     2.11           OBSERVATION DATA    G (GPS)             RINEX VERSION / TYPE
teqc 2010Oct21 OPUS Account 20111028 01:35:47UTC            PGM / RUN BY / DATE
P 1526                                                      MARKER NAME
3050                                                        MARKER NUMBER
CSMIDDLETON NGS                                             OBSERVER / AGENCY
0220284361 TRIMBLE 5700 NP 1.22 / SP 1.22                   REC # / TYPE / VERS
12234991 TRM41249.00 NONE                                   ANT # / TYPE
  -751846.0176 -5572231.6286  3000866.2620                  APPROX POSITION XYZ
        2.0000        0.0000        0.0000                  ANTENNA: DELTA H/E/N
     1     1                                                WAVELENGTH FACT L1/2
     5    L1    L2    C1    P1    P2                        # / TYPES OF OBSERV
    15                                                      LEAP SECONDS
  2011     8    21     0     0   30.0000000     GPS         TIME OF FIRST OBS
                                                            END OF HEADER
 11  8 21  0  0 30.0000000  0  7G12G09G17G10G05G04G02
 -20055102.94958 -15615467.25956  21858608.2034                   21858606.9774
 -16370470.66857 -12743975.34254  23193626.5394                   23193628.2934
 -33652613.78157 -26210552.00855  22875265.0634                   22875264.1134
 -28368464.06258 -22094270.87656  20940718.9144                   20940717.9264
 -15037514.62557 -11705299.96055  22529119.4454                   22529120.5944
 -34206778.09058 -26641381.20356  21257835.3674                   21257834.7584
 -32372889.12558 -25213253.55957  20652071.0634                   20652067.3364
 11  8 21  0  1  0.0000000  0  7G12G09G17G10G05G04G02
 -20160583.65648 -15697659.96346  21838535.7894                   21838534.1214
 -16332381.37947 -12714295.51344  23200874.4384                   23200877.0204
 -33637788.49247 -26198999.88345  22878086.3834                   22878086.5164
 -28420032.53148 -22134454.07046  20930905.7344                   20930904.8754
 -15167887.42247 -11806889.02146  22504310.2734                   22504311.2344
 -34167941.46948 -26611118.92646  21265225.7734                   21265224.5864
 -32415120.02348 -25246160.75046  20644034.6724                   20644031.0594
 11  8 21  0  1 30.0000000  0  7G12G09G17G10G05G04G02
 -20265717.55548 -15779582.43546  21818529.3674                   21818528.4574
 -16294019.10247 -12684402.94644  23208174.7114                   23208176.9804
 -33622828.77747 -26187342.97345  22880933.5554                   22880932.2664
 -28470993.90648 -22174164.22046  20921207.7894                   20921206.9414
 -15298048.41447 -11908313.04845  22479541.5394                   22479542.0784
 -34128905.22348 -26580701.10246  21272653.7344                   21272652.9734
 -32457031.60948 -25278819.12247  20636059.4224                   20636055.5314
 11  8 21  0  2  0.0000000  0  7G12G09G17G10G05G04G02
 -20370501.99648 -15861232.59846  21798589.8204                   21798588.3634
 -16255386.95747 -12654300.10344  23215526.5704                   23215528.1414
 -33607733.46147 -26175580.40345  22883805.9534                   22883805.2274
 -28521346.81248 -22213400.21646  20911626.1954                   20911624.9414
 -15427994.10547 -12009569.31145  22454813.5394                   22454814.3834
 -34089671.53948 -26550129.41846  21280119.9614                   21280118.4614
 -32498624.84048 -25311229.41247  20628144.1644                   20628140.8444
 11  8 21  0  2 30.0000000  0  7G12G09G17G10G05G04G02
 -20474936.76248 -15942610.30246  21778716.5314                   21778714.6094
 -16216490.16847 -12623991.04844  23222927.7424                   23222929.7774
 -33592503.87547 -26163713.24045  22886704.4144                   22886703.7734
 -28571091.86748 -22252162.56446  20902159.8284                   20902158.8754
 -15557723.65247 -12110657.13945  22430126.7894                   22430127.5704
 -34050244.38348 -26519406.97346  21287622.4384                   21287621.8094
 -32539902.73448 -25343393.97547  20620289.2814                   20620285.5204
 11  8 21  0  3  0.0000000  0  7G12G09G17G10G05G04G02
 -20579012.34848 -16023708.12646  21758911.1484                   21758909.4264
 -16177325.43747 -12593473.22444  23230381.5234                   23230383.4304
 -33577132.67647 -26151735.71845  22889629.0234                   22889628.6884
 -28620221.71148 -22290445.52346  20892810.7424                   20892809.6764
 -15687227.21547 -12211568.87645  22405482.9844                   22405483.6994
 -34010619.47748 -26488530.45546  21295162.7504                   21295161.9574
 -32580859.55948 -25375308.37046  20612495.7974                   20612491.9694
 11  8 21  0  3 30.0000000  0  8G12G09G17G10G05G04G30G02
 -20682733.52748 -16104529.78246  21739174.0784                   21739172.4534
 -16137903.65647 -12562755.08044  23237883.1174                   23237885.4024
 -33561626.46147 -26139653.00645  22892579.3444                   22892579.1994
 -28668742.40248 -22328253.81246  20883577.6724                   20883576.6174
 -15816509.26247 -12312308.00245  22380881.7584                   22380881.8284
 -33970806.21947 -26457507.15846  21302738.8984                   21302738.4414
   -204588.03156   -143578.21954  24294899.5234                   24294900.4384
 -32621503.60548 -25406979.03046  20604761.2194                   20604757.6414
 11  8 21  0  4  0.0000000  0  9G12G09G17G10G05G04G30G02G25
 -20786106.82048 -16185080.37346  21719502.4454                   21719500.8444
 -16098236.78146 -12531845.96644  23245431.3914                   23245433.1884
 -33545993.56647 -26127471.57745  22895554.7814                   22895554.1214
 -28716661.76648 -22365593.54446  20874458.8054                   20874457.6484
 -15945575.44547 -12412878.91245  22356320.7424                   22356321.6484
 -33930815.73848 -26426345.75746  21310349.0314                   21310348.2934
   -342080.05146   -250714.79444  24268736.0864                   24268736.7304
 -32661845.03548 -25438413.88546  20597084.2194                   20597080.4964
   -202352.55156   -141719.37154  24592736.3364                   24592740.3594
 11  8 21  0  4 30.0000000  0  9G12G09G17G10G05G04G30G02G25
 -20889140.34048 -16265366.20346  21699896.1644                   21699894.1054
 -16058339.14146 -12500757.06644  23253023.6254                   23253025.7154
 -33530244.21947 -26115199.40045  22898551.5474                   22898551.0164
 -28763989.55948 -22402472.29746  20865452.7194                   20865451.2504
 -16074433.84047 -12513287.92546  22331799.7114                   22331800.4184
 -33890661.04348 -26395056.38946  21317990.5474                   21317989.4144
   -479415.81646   -357729.63043  24242602.0944                   24242602.3364
 -32701895.36748 -25469621.91546  20589462.9384                   20589459.4924
   -338122.50846   -247514.03544  24566900.3054                   24566903.9494
 11  8 21  0  5  0.0000000  0  9G12G09G17G10G05G04G30G02G25
 -20991831.19948 -16345385.03446  21680354.4614                   21680352.8014
 -16018214.12146 -12469490.92144  23260659.5084                   23260661.0274
 -33514377.50447 -26102835.77045  22901570.9534                   22901571.1094
 -28810724.97748 -22438889.48046  20856559.0704                   20856558.1254
 -16203081.52347 -12613532.74246  22307318.5554                   22307319.5164
 -33850344.07847 -26363640.60246  21325662.2424                   21325661.4924
   -616592.60946   -464620.50944  24216498.0084                   24216498.3364
 -32741655.79348 -25500604.04246  20581897.0004                   20581893.5044
   -473808.21546   -353243.08344  24541080.4534                   24541083.0164
 11  8 21  0  5 30.0000000  0  9G12G09G17G10G05G04G30G02G25
 -21094169.33248 -16425129.00146  21660879.9774                   21660878.2424
 -15977857.35546 -12438044.23344  23268339.5084                   23268341.1844
 -33498384.85547 -26090374.01645  22904614.7274                   22904614.2464
 -28856858.73048 -22474837.82246  20847780.5314                   20847779.0824
 -16331507.37947 -12713604.70045  22282880.1414                   22282880.4734
 -33809859.24648 -26332094.00546  21333366.3914                   21333365.7424
   -753599.78146   -571379.26843  24190425.8524                   24190426.2704
 -32781118.87948 -25531354.48247  20574387.3984                   20574383.6914
   -609399.30546   -458898.40144  24515278.3444                   24515280.9494
 11  8 21  0  6  0.0000000  0  9G12G09G17G10G05G04G30G02G25
 -21196146.94148 -16504592.05346  21641474.4384                   21641472.3794
 -15937266.55946 -12406415.21344  23276063.5164                   23276065.6684
 -33482260.84047 -26077809.86445  22907682.8284                   22907682.7584
 -28902384.98048 -22510312.78846  20839116.9064                   20839115.5204
 -16459703.22747 -12813497.42646  22258485.3834                   22258485.8594
 -33769203.43048 -26300414.16446  21341102.9924                   21341102.2814
   -890429.14846   -677999.48243  24164387.9454                   24164388.7584
 -32820280.43748 -25561869.96346  20566934.8444                   20566931.5044
   -744887.96947   -564473.88244  24489495.7814                   24489498.7424
 11  8 21  0  6 30.0000000  0  9G12G09G17G10G05G04G30G02G25
 -21297759.24648 -16583770.45146  21622138.3284                   21622136.5664
 -15896443.50447 -12374605.14144  23283832.2034                   23283834.5514
 -33466002.36747 -26065140.98245  22910777.0234                   22910776.1454
 -28947300.98048 -22545312.23446  20830569.4064                   20830568.2934
 -16587663.99247 -12913206.97446  22234134.9614                   22234135.3444
 -33728376.55948 -26268601.03546  21348872.0084                   21348870.7664
  -1027076.12146   -784477.47043  24138385.5634                   24138385.6844
 -32859139.72347 -25592149.90246  20559540.5164                   20559536.8014
   -880269.78146   -669966.14344  24463733.2344                   24463735.7704
 11  8 21  0  7  0.0000000  0  9G12G09G17G10G05G04G30G02G25
 -21399002.25448 -16662661.08546  21602871.9384                   21602870.5234
 -15855389.49246 -12342615.13544  23291644.1094                   23291647.1134
 -33449606.98847 -26052365.39645  22913896.9534                   22913896.3244
 -28991603.95348 -22579833.99546  20822139.1094                   20822137.6024
 -16715385.12147 -13012729.79746  22209830.0474                   22209831.0204
 -33687379.23048 -26236655.08346  21356673.6804                   21356672.6254
  -1163535.89746   -890809.72043  24112416.8054                   24112417.5984
 -32897695.95748 -25622193.70346  20552203.2034                   20552199.7154
  -1015540.41846   -775371.70444  24437991.8594                   24437994.2854
 11  8 21  0  7 30.0000000  0  9G12G09G17G10G05G04G30G02G25
 -21499870.56248 -16741259.75946  21583677.5554                   21583676.0164
 -15814104.99246 -12310445.52744  23299500.4534                   23299502.8754
 -33433071.14547 -26039480.35845  22917043.0004                   22917042.8054
 -29035290.11748 -22613875.13146  20813825.7114                   20813824.6024
 -16842860.59047 -13112061.19146  22185572.4304                   22185572.9534
 -33646210.43748 -26204575.50246  21364508.0004                   21364507.2774
  -1299802.90646   -996991.74443  24086486.9144                   24086486.5904
 -32935947.12548 -25651999.79146  20544924.4304                   20544920.7584
  -1150694.32846   -880686.34744  24412272.3834                   24412275.6884
 11  8 21  0  8  0.0000000  0  9G12G09G17G10G05G04G30G02G25
 -21600357.60948 -16819561.32546  21564555.5554                   21564553.6294
 -15772589.50446 -12278095.96044  23307400.6024                   23307402.8094
 -33416390.55547 -26026482.51245  22920217.3674                   22920216.9654
 -29078354.92248 -22647432.11046  20805630.6174                   20805629.5824
 -16970083.60547 -13211195.87646  22161362.6334                   22161362.7664
 -33604868.76647 -26172361.22046  21372374.8914                   21372373.9734
  -1435870.53146  -1103018.27143  24060593.8984                   24060593.3444
 -32973890.60248 -25681566.12846  20537703.7344                   20537700.3674
  -1285725.38746   -985905.23843  24386577.2114                   24386579.7584
 11  8 21  0  8 30.0000000  0  9G12G09G17G10G05G04G30G02G25
 -21700462.68748 -16897565.27846  21545506.0234                   21545504.2704
 -15730848.26246 -12245570.48244  23315343.4924                   23315345.8204
 -33399566.23847 -26013372.70345  22923419.2274                   22923419.0234
 -29120799.50448 -22680505.77246  20797553.8524                   20797552.4304
 -17097053.03547 -13310132.95346  22137201.1254                   22137201.6294
 -33563358.00048 -26140015.17846  21380274.2344                   21380273.5044
  -1571737.68746  -1208888.73842  24034738.6564                   24034738.6954
 -33011529.31648 -25710894.97546  20530541.5944                   20530538.1214
  -1420632.75846  -1091027.75143  24360904.9064                   24360907.7344
 11  8 21  0  9  0.0000000  0  9G12G09G17G10G05G04G30G02G25
 -21800180.34448 -16975267.34246  21526530.2974                   21526528.8284
 -15688881.47746 -12212869.23844  23323329.6484                   23323332.8674
 -33382594.34447 -26000147.87845  22926649.2344                   22926648.4224
 -29162619.66048 -22713092.88946  20789595.6644                   20789594.3524
 -17223762.83647 -13408867.73346  22113088.8284                   22113089.1214
 -33521677.36348 -26107536.77846  21388205.8054                   21388204.5984
  -1707398.56246  -1314598.48042  24008923.3984                   24008922.3094
 -33048860.82048 -25739984.44046  20523437.3984                   20523433.8404
  -1555410.85946  -1196049.55843  24335257.2814                   24335259.4384
 11  8 21  0  9 30.0000000  0  9G12G09G17G10G05G04G30G02G25
 -21899508.02747 -17052665.52146  21507629.0704                   21507627.7624
 -15646693.18447 -12179995.37944  23331357.9144                   23331361.6914
 -33365474.70747 -25986807.95845  22929906.8674                   22929906.0744
 -29203815.01648 -22745193.14146  20781756.5554                   20781755.1294
 -17350210.01247 -13507397.86646  22089026.8594                   22089026.8594
 -33479828.96548 -26074927.66046  21396169.3984                   21396168.4774
  -1842850.62946  -1420145.53142  23983148.1804                   23983147.1214
 -33085886.69148 -25768835.75446  20516391.7894                   20516388.3284
  -1690057.46146  -1300968.90843  24309635.0474                   24309636.3484
 11  8 21  0 10  0.0000000  0  9G12G09G17G10G05G04G30G02G25
 -21998442.01647 -17129756.93546  21488802.5004                   21488801.1094
 -15604285.20347 -12146950.33244  23339428.4384                   23339430.5514
 -33348205.43047 -25973351.40845  22933192.9064                   22933192.8014
 -29244383.61348 -22776805.00446  20774036.3054                   20774035.1174
 -17476390.69947 -13605720.34146  22065015.0944                   22065015.7424
 -33437813.77748 -26042188.55746  21404164.4144                   21404163.8324
  -1978089.73046  -1525526.56743  23957412.7274                   23957411.7734
 -33122606.59047 -25797448.64646  20509404.0164                   20509400.5744
  -1824568.68746  -1405782.83543  24284038.3054                   24284039.6804
 11  8 21  0 10 30.0000000  0  9G12G09G17G10G05G04G30G02G25
 -22096983.63747 -17206542.60046  21470050.6174                   21470049.2194
 -15561664.14147 -12113739.28344  23347539.3284                   23347541.5634
 -33330789.19147 -25959780.35245  22936506.7584                   22936506.5594
 -29284328.14848 -22807930.59746  20766435.1564                   20766434.0984
 -17602304.78547 -13703835.08746  22041054.1174                   22041054.6024
 -33395636.84448 -26009323.43746  21412190.4534                   21412189.5164
  -2113116.16046  -1630741.98643  23931717.8284                   23931717.6914
 -33159024.78548 -25825826.43146  20502473.7344                   20502470.3594
  -1958945.10946  -1510491.69643  24258467.5314                   24258469.6484
 11  8 21  0 11  0.0000000  0  9G12G09G17G10G05G04G30G02G25
 -22195127.52047 -17283018.35246  21451374.6884                   21451373.2774
 -15518830.98047 -12080362.93844  23355689.7734                   23355692.8324
 -33313222.63747 -25946092.15144  22939849.7194                   22939849.4494
 -29323645.61747 -22838567.57046  20758953.5234                   20758952.2074
 -17727947.02747 -13801738.02246  22017145.8444                   22017145.1564
 -33353298.06248 -25976332.21646  21420247.1094                   21420246.5314
  -2247924.73046  -1735787.53643  23906064.7194                   23906065.1294
 -33195139.94148 -25853968.10946  20495601.5864                   20495598.0234
  -2093181.78547  -1615091.69043  24232923.2584                   24232925.5354
 11  8 21  0 11 30.0000000  0  9G12G09G17G10G05G04G30G02G25
 -22292872.62947 -17359183.36546  21432774.0784                   21432772.5354
 -15475790.35947 -12046824.95544  23363880.7974                   23363883.5234
 -33295506.43447 -25932287.35644  22943221.4924                   22943220.8014
 -29362336.57048 -22868716.34146  20751590.8204                   20751589.5944
 -17853315.66847 -13899427.74746  21993288.4534                   21993288.5514
 -33310800.44948 -25943217.20846  21428334.2584                   21428333.4064
  -2382513.80547  -1840662.12544  23880453.3204                   23880453.9844
 -33230954.46148 -25881875.51247  20488786.1644                   20488782.5984
  -2227277.31647  -1719581.73244  24207405.3364                   24207408.2894
 11  8 21  0 12  0.0000000  0  9G12G09G17G10G05G04G30G02G25
 -22390216.57047 -17435035.78046  21414250.2424                   21414248.7154
 -15432545.85247 -12013128.07944  23372110.6024                   23372113.2304
 -33277640.22747 -25918365.67644  22946620.7424                   22946620.4804
 -29400400.71948 -22898376.69346  20744347.3834                   20744346.2274
 -17978408.09847 -13996902.26246  21969484.0864                   21969484.0434
 -33268146.82048 -25909980.64746  21436451.0704                   21436450.2384
  -2516880.89147  -1945363.71744  23854883.8134                   23854884.9884
 -33266469.40648 -25909549.47846  20482028.0004                   20482024.3714
  -2361229.56247  -1823960.05144  24181915.3594                   24181918.3324
 11  8 21  0 12 30.0000000  0  9G12G09G17G10G05G04G30G02G25
 -20911735.41847 -16282972.53546  21695596.2424                   21695594.8054
 -13813683.91847 -10751677.37044  23680169.3914                   23680171.8284
 -31684205.46147 -24676728.23244  23249841.6484                   23249841.5634
 -27862418.12547 -21699948.68446  21037015.5864                   21037014.3484
 -16527798.91047 -12866557.33546  22245526.0634                   22245525.8014
 -31649921.91448 -24649026.18645  21744389.0944                   21744388.0234
  -1075600.18447   -822287.78344  24129150.3444                   24129151.6094
 -31726266.60547 -24709391.43947  20775118.8754                   20775115.1954
   -919612.95747   -700622.41744  24456246.0164                   24456248.6994
 11  8 21  0 13  0.0000000  0  9G12G09G17G10G05G04G30G02G25
 -21008268.13748 -16358192.81746  21677226.2344                   21677224.6954
 -13770040.42647 -10717669.60944  23688474.4224                   23688477.6564
 -31666035.57447 -24662569.89144  23253299.2584                   23253298.7504
 -27899225.83648 -21728629.99646  21030011.4694                   21030010.1484
 -16652328.79747 -12963593.49246  22221828.3364                   22221828.4964
 -31606960.24248 -24615549.58646  21752564.5164                   21752563.7774
  -1209513.05947   -926635.46144  24103667.6174                   24103667.9264
 -31761184.41048 -24736600.10846  20768474.2424                   20768470.7114
  -1053269.11347   -804770.05244  24430811.5784                   24430814.8014
 11  8 21  0 13 30.0000000  0  9G12G09G17G10G05G04G30G02G25
 -21104392.35548 -16433094.78546  21658934.6254                   21658932.6604
 -13726203.07847 -10683510.79444  23696816.4224                   23696819.8014
 -31647713.91447 -24648293.33244  23256785.9844                   23256785.1484
 -27935405.07048 -21756821.58246  21023126.5944                   21023125.7304
 -16776573.63747 -13060407.54746  22198185.0554                   22198185.3914
 -31563848.11748 -24581955.74846  21760768.0554                   21760767.4344
  -1343195.19147  -1030803.34244  24078229.0864                   24078228.8634
 -31795805.88747 -24763577.87047  20761885.6804                   20761882.1454
  -1186773.87147   -908799.67844  24405406.2734                   24405409.8554
 11  8 21  0 14  0.0000000  0  9G12G09G17G10G05G04G30G02G25
 -21200106.72747 -16507677.39146  21640720.6954                   21640718.8364
 -13682176.35547 -10649204.41544  23705194.6414                   23705196.9534
 -31629240.97347 -24633898.86544  23260300.8364                   23260299.9804
 -27970956.36748 -21784523.87546  21016361.3984                   21016360.1254
 -16900531.41447 -13156997.90946  22174596.8284                   22174596.8444
 -31520588.82048 -24548247.23045  21769000.4384                   21768999.6174
  -1476644.94946  -1134790.05743  24052834.5234                   24052834.9654
 -31830133.29348 -24790326.48746  20755353.5164                   20755349.8524
  -1320125.89847  -1012710.27944  24380030.7194                   24380033.2584
 11  8 21  0 14 30.0000000  0  9G12G09G17G10G05G04G30G02G25
 -21295407.10247 -16581937.39946  21622585.7584                   21622584.5004
 -13637961.95747 -10614751.77044  23713608.2034                   23713610.7584
 -31610614.09047 -24619384.45144  23263845.9534                   23263844.7624
 -28005877.43447 -21811735.07546  21009716.2274                   21009714.8204
 -17024197.41847 -13253360.91246  22151063.9304                   22151063.7704
 -31477182.65648 -24514424.25945  21777260.0164                   21777259.5234
  -1609857.52047  -1238592.04643  24027484.7734                   24027484.5664
 -31864165.97747 -24816845.44746  20748877.1334                   20748873.6454
  -1453320.78147  -1116498.43744  24354684.5234                   24354686.8164
 11  8 21  0 15  0.0000000  0  9G12G09G17G10G05G04G30G02G25
 -21390294.79747 -16655875.84146  21604529.2974                   21604527.5044
 -13593566.96946 -10580158.45644  23722056.9924                   23722059.2624
 -31591836.31647 -24604752.47244  23267419.1024                   23267417.9494
 -28040172.19148 -21838458.24146  21003190.0084                   21003188.8754
 -17147572.59047 -13349497.29446  22127586.3524                   22127586.6844
 -31433635.38347 -24480491.33345  21785547.0634                   21785546.2074
  -1742833.94946  -1342209.94743  24002180.0234                   24002179.5204
 -31897908.76647 -24843138.50946  20742456.1954                   20742452.5634
  -1586359.66847  -1220165.01344  24329367.0234                   24329370.5554
 11  8 21  0 15 30.0000000  0  9G12G09G17G10G05G04G30G02G25
 -21484763.18447 -16729487.54446  21586552.1334                   21586550.6174
 -13548990.73847 -10545423.84644  23730539.8204                   23730541.6644
 -31572903.02747 -24589999.26844  23271022.1254                   23271021.4734
 -28073836.10547 -21864689.82446  20996784.0474                   20996782.6484
 -17270650.18747 -13445401.81346  22104165.5234                   22104165.2774
 -31389944.92248 -24446446.81045  21793860.8284                   21793860.4104
  -1875567.40246  -1445638.51743  23976922.0234                   23976921.6024
 -31931358.84847 -24869203.49546  20736090.9224                   20736087.3554
  -1719235.96146  -1323704.91244  24304082.0164                   24304084.1644
 11  8 21  0 16  0.0000000  0  9G12G09G17G10G05G04G30G02G25
 -21578813.36347 -16802773.36946  21568655.4304                   21568653.7384
 -13504239.96947 -10510553.29844  23739054.7194                   23739058.5434
 -31553816.83247 -24575126.95244  23274653.8984                   23274654.0314
 -28106872.08647 -21890432.12746  20990497.7584                   20990496.1294
 -17393430.32847 -13541074.53246  22080800.4844                   22080800.8134
 -31346116.41448 -24412294.71745  21802201.0394                   21802200.5634
  -2008058.12946  -1548877.95943  23951709.9694                   23951708.9414
 -31964520.14147 -24895043.43746  20729780.4384                   20729777.0824
  -1851950.15246  -1427118.53944  24278827.7974                   24278829.5594
 11  8 21  0 16 30.0000000  0  9G12G09G17G10G05G04G30G02G25
 -21672443.84847 -16875732.16446  21550838.0234                   21550836.2934
 -13459318.93746 -10475550.04444  23747603.5164                   23747606.5314
 -31534578.31247 -24560135.93945  23278314.9924                   23278314.9144
 -28139280.35948 -21915685.30446  20984330.5314                   20984329.4264
 -17515910.85547 -13636513.80346  22057493.4454                   22057493.4024
 -31302152.81248 -24378037.36745  21810567.2894                   21810567.0394
  -2140304.23446  -1651926.86143  23926544.6804                   23926542.8754
 -31997394.67647 -24920659.94446  20723524.5704                   20723521.3634
  -1984500.67247  -1530404.51444  24253604.1804                   24253605.7894
 11  8 21  0 17  0.0000000  0  9G12G09G17G10G05G04G30G02G25
 -21765647.30147 -16948358.19846  21533101.7194                   21533099.9304
 -13414225.94146 -10440412.78744  23756184.5394                   23756187.5514
 -31515181.53547 -24545021.58145  23282005.9064                   23282006.3554
 -28171055.86347 -21940445.39446  20978283.7734                   20978282.2774
 -17638083.88747 -13731713.44846  22034244.6254                   22034244.8324
 -31258051.24648 -24343672.48845  21818959.6094                   21818958.9694
  -2272297.91046  -1754778.94143  23901426.4144                   23901425.8444
 -32029978.92247 -24946050.22647  20717324.0164                   20717320.7974
  -2116879.76647  -1633556.98044  24228413.0784                   24228415.2774
 11  8 21  0 17 30.0000000  0  9G12G09G17G10G05G04G30G02G25
 -21858420.59447 -17020649.05646  21515447.6254                   21515445.7304
 -13368963.63347 -10405143.61344  23764797.4774                   23764801.0204
 -31495625.46147 -24529783.11545  23285727.7664                   23285727.5634
 -28202197.60547 -21964711.65946  20972357.3674                   20972356.4924
 -17759946.00047 -13826670.83646  22011055.0474                   22011054.6524
 -31213812.80948 -24309200.95445  21827377.8444                   21827376.9924
  -2404035.49647  -1857431.56943  23876357.9064                   23876356.2974
 -32062272.98047 -24971214.39546  20711178.6954                   20711175.1604
  -2249084.25447  -1736573.38844  24203254.9614                   24203257.3404
 11  8 21  0 18  0.0000000  0  9G12G09G17G10G05G04G30G02G25
 -21950767.48847 -17092607.65546  21497874.4224                   21497872.7464
 -13323541.68046 -10369750.01144  23773441.6024                   23773443.9064
 -31475915.46147 -24514424.70645  23289478.0784                   23289477.9884
 -28232711.61347 -21988488.78846  20966551.0394                   20966549.6884
 -17881500.56647 -13921388.57146  21987923.9304                   21987923.8714
 -31169445.66847 -24274629.14945  21835820.7814                   21835819.9224
  -2535520.28547  -1959887.14243  23851336.4304                   23851336.1914
 -32094284.27747 -24996158.23046  20705087.2584                   20705083.9104
  -2381117.50847  -1839456.36644  24178130.2664                   24178131.6994
 11  8 21  0 18 30.0000000  0  9G12G09G17G10G05G04G30G02G25
 -22042685.26647 -17164231.87646  21480383.1954                   21480381.1564
 -13277963.30546 -10334234.52844  23782114.7584                   23782118.1454
 -31456051.15247 -24498946.07745  23293258.2734                   23293258.1454
 -28262597.55948 -22011776.53246  20960864.1334                   20960862.6374
 -18002744.28947 -14015864.10246  21964852.0554                   21964851.8404
 -31124951.70348 -24239958.51545  21844287.6414                   21844286.6804
  -2666749.46946  -2062143.61443  23826364.5864                   23826364.4454
 -32126013.96148 -25020882.63446  20699049.1254                   20699045.6644
  -2512976.91447  -1942203.87044  24153037.5394                   24153040.5434
 11  8 21  0 19  0.0000000  0  9G12G09G17G10G05G04G30G02G25
 -22134169.17647 -17235518.00946  21462974.3284                   21462972.3054
 -13232228.71947 -10298597.38444  23790817.6414                   23790821.3674
 -31436028.82847 -24483344.28545  23297068.6094                   23297068.2544
 -28291852.47348 -22034572.54846  20955296.8204                   20955295.5354
 -18123671.62947 -14110093.09046  21941840.3524                   21941839.8404
 -31080329.98848 -24205188.33045  21852778.9064                   21852777.9184
  -2797717.25846  -2164196.31943  23801441.8364                   23801441.7504
 -32157460.21147 -25045386.16347  20693065.1414                   20693061.7274
  -2644656.96547  -2044811.59344  24127980.5784                   24127982.4454
 11  8 21  0 19 30.0000000  0  9G12G09G17G10G05G04G30G02G25
 -22225214.79347 -17306462.63946  21445648.9844                   21445646.9694
 -13186339.62146 -10262839.78743  23799549.5864                   23799554.1994
 -31415845.95747 -24467617.44045  23300908.9224                   23300908.8134
 -28320474.20348 -22056875.18146  20949850.2974                   20949849.1604
 -18244277.73047 -14204071.77746  21918889.6564                   21918889.6334
 -31035580.52048 -24170318.59545  21861294.4454                   21861293.4104
  -2928418.76646  -2266041.62743  23776570.4144                   23776569.9654
 -32188622.24647 -25069668.24646  20687135.3914                   20687131.7114
  -2776153.06647  -2147276.05244  24102957.2424                   24102959.2934
 11  8 21  0 20  0.0000000  0  9G12G09G17G10G05G04G30G02G25
 -22315824.98447 -17377067.95846  21428406.6644                   21428404.0474
 -13140304.10547 -10226968.08744  23808310.8204                   23808313.1524
 -31395506.93747 -24451768.88445  23304780.0004                   23304779.5904
 -28348468.10948 -22078688.60546  20944523.1644                   20944521.7234
 -18364564.88747 -14297801.93146  21895999.6334                   21895999.2194
 -30990710.14848 -24135354.65745  21869833.0314                   21869832.0594
  -3058856.32047  -2367681.19843  23751749.1884                   23751748.6564
 -32219506.08248 -25093733.54346  20681257.9694                   20681254.4614
  -2907467.63347  -2249598.99744  24077969.2034                   24077971.5904
 11  8 21  0 20 30.0000000  0  9G12G09G17G10G05G04G30G02G25
 -22405996.29348 -17447331.29746  21411247.4384                   21411245.0904
 -13094124.64847 -10190984.22544  23817098.8204                   23817101.9734
 -31375009.87147 -24435797.19345  23308680.4064                   23308679.6844
 -28375832.71148 -22100011.65646  20939315.6954                   20939314.6804
 -18484528.93047 -14391280.30946  21873171.2504                   21873171.3054
 -30945720.01248 -24100297.39945  21878394.3754                   21878393.3244
  -3189025.93446  -2469112.00244  23726978.8834                   23726978.2344
 -32250112.07447 -25117582.34447  20675434.1484                   20675430.3754
  -3038596.90247  -2351777.60144  24053015.5164                   24053017.8554
 11  8 21  0 21  0.0000000  0  9G12G09G17G10G05G04G30G02G25
 -22495726.27348 -17517250.73246  21394172.1334                   21394170.4414
 -13047804.58247 -10154890.79844  23825913.3984                   23825916.8324
 -31354354.54747 -24419702.18145  23312611.4694                   23312610.8014
 -28402567.66448 -22120844.08146  20934228.2974                   20934227.0704
 -18604167.04347 -14484504.72646  21850404.4774                   21850404.1454
 -30900611.56248 -24065147.95245  21886977.9614                   21886977.3014
  -3318924.63746  -2570331.70343  23702259.1804                   23702259.4144
 -32280440.97748 -25141215.21546  20669662.7424                   20669658.8054
  -3169538.16046  -2453809.64244  24028098.5784                   24028100.2704
 11  8 21  0 21 30.0000000  0  9G12G09G17G10G05G04G30G02G25
 -22585013.79747 -17586825.41746  21377181.0864                   21377179.1214
 -13001348.44547 -10118691.34043  23834753.3364                   23834756.2544
 -31333541.62947 -24403484.35345  23316571.1954                   23316571.4264
 -28428674.46548 -22141187.03146  20929260.7734                   20929259.3284
 -18723477.65247 -14577473.93046  21827700.6804                   21827700.0514
 -30855388.19148 -24029908.95545  21895583.5164                   21895583.0234
  -3448550.69946  -2671338.94644  23677591.8524                   23677592.2504
 -32310495.35947 -25164634.19446  20663943.3284                   20663939.6254
  -3300289.91847  -2555694.05844  24003217.2344                   24003219.1564
 11  8 21  0 22  0.0000000  0  9G12G09G17G10G05G04G30G02G25
 -22673855.27747 -17656052.51346  21360275.1644                   21360273.2194
 -12954758.11347 -10082387.31343  23843619.2894                   23843622.6414
 -31312569.08647 -24387142.16845  23320562.0234                   23320562.0204
 -28454151.75048 -22161039.45446  20924412.2344                   20924410.8244
 -18842456.16047 -14670184.35546  21805059.6024                   21805059.2894
 -30810050.37948 -23994580.78545  21904211.3594                   21904210.3954
  -3577900.01246  -2772130.57244  23652977.5864                   23652978.2304
 -32340274.81647 -25187838.93746  20658276.4534                   20658273.1644
  -3430848.15247  -2657427.69844  23978372.7034                   23978375.0164
 11  8 21  0 22 30.0000000  0  9G12G09G17G10G05G04G30G02G25
 -22762247.26647 -17724929.35846  21343454.9694                   21343452.9264
 -12908035.97747 -10045980.58044  23852510.4844                   23852513.6054
 -31291434.68047 -24370673.87244  23324584.5704                   23324584.3714
 -28478998.32448 -22180400.42346  20919684.1334                   20919682.7504
 -18961099.03947 -14762633.25946  21782482.7974                   21782482.1454
 -30764598.65648 -23959163.86045  21912860.7664                   21912859.3324
  -3706968.41846  -2872703.27644  23628417.1024                   23628417.2704
 -32369779.25847 -25210829.38746  20652662.2894                   20652658.3284
  -3561209.03947  -2759007.56144  23953565.4924                   23953568.1334
 11  8 21  0 23  0.0000000  0  9G12G09G17G10G05G04G30G02G25
 -22850189.37948 -17793455.64246  21326719.8834                   21326718.2344
 -12861186.97347 -10009475.02844  23861426.0394                   23861429.2344
 -31270140.01647 -24354080.65844  23328635.9534                   23328636.7424
 -28503216.13348 -22199271.42546  20915075.6174                   20915074.3794
 -19079404.72747 -14854819.40146  21759969.1884                   21759969.3754
 -30719036.52348 -23923660.91245  21921530.8134                   21921530.0554
  -3835754.80947  -2973056.24344  23603909.0004                   23603909.6804
 -32399011.79348 -25233607.97446  20647099.0314                   20647095.7664
  -3691371.62147  -2860432.88144  23928796.1094                   23928798.7304
 11  8 21  0 23 30.0000000  0  9G12G09G17G10G05G04G30G02G25
 -22937680.04747 -17861630.16046  21310071.0944                   21310069.2974
 -12814215.00847  -9972873.63143  23870364.5784                   23870366.8364
 -31248685.12147 -24337362.57544  23332719.0554                   23332718.7194
 -28526806.02748 -22217653.15246  20910586.3284                   20910585.1174
 -19197371.75047 -14946741.65346  21737521.3984                   21737520.6254
 -30673366.85948 -23888074.17145  21930221.7114                   21930220.5634
  -3964257.09846  -3073187.87343  23579456.3284                   23579456.4694
 -32427974.08247 -25256175.96746  20641588.0554                   20641584.2504
  -3821333.93747  -2961702.17544  23904065.6484                   23904067.8094
 11  8 21  0 24  0.0000000  0  9G12G09G17G10G05G04G30G02G25
 -23024716.75447 -17929450.93846  21293508.4454                   21293507.0164
 -12767123.32846  -9936178.93444  23879325.5704                   23879329.0164
 -31227069.24247 -24320519.08644  23336832.2664                   23336832.6134
 -28549767.99648 -22235545.58446  20906217.1414                   20906215.8404
 -19314996.95347 -15038397.56646  21715137.6954                   21715137.0124
 -30627591.26247 -23852404.89845  21938931.9924                   21938931.6804
  -4092472.22346  -3173095.71744  23555057.9384                   23555057.2114
 -32456667.41047 -25278534.38846  20636127.5704                   20636124.0234
  -3951093.21547  -3062813.26444  23879373.0704                   23879375.4964
 11  8 21  0 24 30.0000000  0  9G12G09G17G10G05G04G30G02G25
 -23111298.05547 -17996916.84346  21277032.2344                   21277031.1564
 -12719916.28147  -9899394.34944  23888308.5394                   23888311.5124
 -31205292.62147 -24303550.33644  23340975.9304                   23340976.2894
 -28572103.00048 -22252949.46046  20901967.0784                   20901965.4734
 -19432278.08647 -15129785.36546  21692819.8524                   21692819.0824
 -30581712.41848 -23816655.16445  21947662.6724                   21947661.8164
  -4220398.22346  -3272778.23344  23530714.1414                   23530714.3134
 -32485093.57047 -25300684.64746  20630718.4384                   20630714.8984
  -4080647.54347  -3163764.64544  23854719.3204                   23854721.6334
 11  8 21  0 25  0.0000000  0  9G12G09G17G10G05G04G30G02G25
 -23197415.30148 -18064021.15046  21260644.9694                   21260642.9384
 -12672590.25447  -9862517.05644  23897314.8284                   23897318.3204
 -31183348.39147 -24286450.97144  23345151.6024                   23345152.0864
 -28593804.67248 -22269859.84346  20897837.1334                   20897835.9144
 -19549205.98447 -15220897.91146  21670568.9614                   21670568.9654
 -30535725.40248 -23780821.14245  21956413.2034                   21956412.9454
  -4348025.38747  -3372227.90944  23506427.1254                   23506427.3284
 -32513247.03547 -25322622.40446  20625361.0944                   20625357.6804
  -4209987.56247  -3264549.02344  23830107.2504                   23830109.1024
 11  8 21  0 25 30.0000000  0  9G12G09G17G10G05G04G30G02G25
 -23283070.32048 -18130765.27946  21244345.5314                   21244343.7384
 -12625152.80146  -9825552.93644  23906342.4064                   23906345.2234
 -31161239.47347 -24269223.26844  23349359.7584                   23349358.6524
 -28614877.02348 -22286279.85046  20893827.1334                   20893825.9804
 -19665781.70347 -15311736.04346  21648385.4064                   21648385.0084
 -30489635.90247 -23744907.28245  21965183.8594                   21965183.2234
  -4475354.85547  -3471445.59344  23482197.3054                   23482197.0904
 -32541132.83648 -25344351.61146  20620054.4614                   20620050.9804
  -4339114.42647  -3365167.30444  23805535.1094                   23805537.4964
 11  8 21  0 26  0.0000000  0  9G12G09G17G10G05G04G30G02G25
 -23368262.17647 -18197148.50046  21228133.9774                   21228132.1484
 -12577608.38347  -9788505.49944  23915389.8674                   23915393.0784
 -31138967.08646 -24251868.20244  23353598.2734                   23353597.0084
 -28635321.56248 -22302210.65046  20889936.8914                   20889935.2974
 -19782003.55147 -15402298.41946  21626268.8914                   21626268.8364
 -30443447.14148 -23708916.04745  21973973.6644                   21973973.0984
  -4602385.04747  -3570430.10344  23458024.7424                   23458024.3634
 -32568753.55548 -25365874.25746  20614798.1804                   20614794.7624
  -4468026.83247  -3465618.45344  23781003.2894                   23781006.4534
 11  8 21  0 26 30.0000000  0  9G12G09G17G10G05G04G30G02G25
 -23452986.73447 -18263167.58646  21212011.3054                   21212009.2734
 -12529958.44946  -9751375.78044  23924456.7584                   23924460.9144
 -31116528.57847 -24234383.66944  23357868.1024                   23357867.0664
 -28655136.93448 -22317651.18246  20886165.8364                   20886164.5634
 -19897867.23047 -15492581.72646  21604220.8364                   21604220.2384
 -30397159.09047 -23672847.45845  21982781.9454                   21982781.2704
  -4729111.41847  -3669177.86544  23433909.4454                   23433909.2734
 -32596108.57848 -25387189.87446  20609593.1804                   20609589.3164
  -4596720.35547  -3565899.05944  23756514.3204                   23756516.1564
 11  8 21  0 27  0.0000000  0  9G12G09G17G10G05G04G30G02G25
 -23537240.37147 -18328819.73546  21195978.3444                   21195976.7114
 -12482204.72746  -9714165.23644  23933544.1484                   23933548.0744
 -31093921.83246 -24216768.02444  23362169.7344                   23362169.0164
 -28674321.69948 -22332600.34346  20882515.3284                   20882513.7974
 -20013368.34047 -15582582.50346  21582241.5944                   21582240.9654
 -30350771.94147 -23636701.64545  21991609.0234                   21991607.8164
  -4855529.59047  -3767685.43744  23409852.6094                   23409852.5944
 -32623197.50048 -25408298.15246  20604438.5474                   20604434.4844
  -4725190.76647  -3666005.78744  23732067.2114                   23732069.4264
 11  8 21  0 27 30.0000000  0  9G12G09G17G10G05G04G30G02G25
 -23621020.33248 -18394102.77346  21180035.5164                   21180033.6764
 -12434350.09847  -9676876.01044  23942650.5004                   23942655.1174
 -31071145.94147 -24199020.59444  23366504.4304                   23366503.8754
 -28692876.12948 -22347058.30446  20878984.5864                   20878982.9064
 -20128503.68747 -15672298.26646  21560332.3054                   21560331.5274
 -30304287.14147 -23600479.74945  22000454.7504                   22000454.3404
  -4981636.10947  -3865950.21644  23385855.5634                   23385854.4884
 -32650020.95348 -25429199.55446  20599333.9224                   20599330.1374
  -4853434.77747  -3765936.11944  23707662.5164                   23707664.5824
 11  8 21  0 28  0.0000000  0  9G12G09G17G10G05G04G30G02G25
 -23704326.23848 -18459016.43146  21164182.8914                   21164180.7704
 -12386399.38346  -9639511.96243  23951774.9774                   23951779.4344
 -31048201.78547 -24181142.04944  23370870.3524                   23370869.9184
 -28710801.52348 -22361026.11746  20875573.4144                   20875572.0204
 -20243271.75447 -15761727.83746  21538492.3594                   21538491.6884
 -30257707.78148 -23564184.15745  22009318.7734                   22009317.7934
  -5107429.46947  -3963970.91243  23361917.4384                   23361916.6604
 -32676581.41848 -25449896.02446  20594279.6724                   20594275.6134
  -4981451.08647  -3865688.99344  23683302.0394                   23683303.8244
 11  8 21  0 28 30.0000000  0  9G12G09G17G10G05G04G30G02G25
 -23787157.63348 -18523560.33346  21148420.7894                   21148418.8484
 -12338357.28146  -9602076.71044  23960918.1884                   23960921.7464
 -31025090.68047 -24163133.41744  23375268.2974                   23375268.0004
 -28728100.01248 -22374505.44146  20872281.5004                   20872279.7114
 -20357671.60247 -15850870.49746  21516722.8984                   21516722.2544
 -30211037.24247 -23527817.50645  22018199.5634                   22018198.8834
  -5232908.54747  -4061746.70044  23338039.1804                   23338039.4184
 -32702881.94148 -25470389.94946  20589274.8674                   20589271.2664
  -5109238.73447  -3965263.68544  23658984.7974                   23658986.3914
 11  8 21  0 29  0.0000000  0  9G12G09G17G10G05G04G30G02G25
 -23869516.13748 -18587735.75246  21132748.3134                   21132746.3954
 -12290231.01247  -9564575.87844  23970076.5234                   23970080.0554
 -31001815.69947 -24144997.08644  23379697.7974                   23379697.2544
 -28744776.22348 -22387499.86946  20869108.0704                   20869106.6454
 -20471704.38348 -15939727.11346  21495022.7974                   21495022.1054
 -30164281.03947 -23491384.13945  22027097.5164                   22027096.5164
  -5358074.45746  -4159278.49443  23314220.6564                   23314220.6764
 -32728927.48048 -25490685.17347  20584318.4224                   20584314.6214
  -5236798.83647  -4064661.05444  23634711.2274                   23634713.0864
 11  8 21  0 29 30.0000000  0  9G12G09G17G10G05G04G30G02G25
 -23951393.09848 -18651535.96146  21117167.7344                   21117165.6954
 -12242017.36347  -9527006.90144  23979251.0004                   23979255.5004
 -30978369.63747 -24126727.45844  23384158.7974                   23384158.7934
 -28760824.05148 -22400004.64746  20866054.2734                   20866052.6994
 -20585360.97748 -16028290.60946  21473394.7194                   21473394.1914
 -30117434.60247 -23454880.42045  22036011.8524                   22036011.1884
  -5482917.67646  -4256558.82044  23290464.0554                   23290463.8284
 -32754712.61748 -25510777.48646  20579411.8054                   20579407.9144
  -5364122.23447  -4163874.00644  23610481.7974                   23610484.0944
 11  8 21  0 30  0.0000000  0  9G12G09G17G10G05G04G30G02G25
 -24032785.95348 -18714958.94946  21101678.8524                   21101677.4734
 -12193718.97346  -9489371.91944  23988441.4924                   23988446.2304
 -30954751.84447 -24108323.98744  23388653.0004                   23388653.2304
 -28776243.42248 -22412019.72146  20863119.9614                   20863118.7034
 -20698638.03548 -16116558.35546  21451838.7424                   21451838.0944
 -30070498.99647 -23418307.23345  22044943.2344                   22044942.4534
  -5607435.00847  -4353585.21544  23266769.4304                   23266769.0084
 -32780238.14848 -25530667.49046  20574554.4454                   20574550.3714
  -5491205.68747  -4262899.93244  23586298.5004                   23586300.9924
 11  8 21  0 30 30.0000000  0  9G12G09G17G10G05G04G30G02G25
 -24113699.36348 -18778008.34146  21086281.8524                   21086279.8524
 -12145345.83646  -9451678.68344  23997646.6334                   23997651.2034
 -30930967.94147 -24089791.13344  23393179.0004                   23393179.1524
 -28791041.20348 -22423550.44446  20860303.8674                   20860302.8554
 -20811539.52047 -16204533.46246  21430354.3754                   21430353.6644
 -30023482.62147 -23381671.11845  22053890.3524                   22053889.5044
  -5731630.11747  -4450360.53044  23243135.8284                   23243135.3244
 -32805511.66448 -25550361.14247  20569744.9384                   20569741.1214
  -5618053.08647  -4361741.98044  23562160.2734                   23562162.2734
 11  8 21  0 31  0.0000000  0  9G12G09G17G10G05G04G30G02G25
 -24194125.25448 -18840677.85546  21070977.0704                   21070975.3484
 -12096895.28146  -9413925.17943  24006867.1254                   24006870.4774
 -30907011.91047 -24071124.11744  23397738.0474                   23397737.9064
 -28805212.07848 -22434592.65946  20857607.6954                   20857606.1484
 -20924056.75848 -16292209.14446  21408942.9224                   21408942.3164
 -29976381.08247 -23344968.64145  22062853.1334                   22062852.8634
  -5855494.16046  -4546877.88844  23219564.9224                   23219565.0864
 -32830528.44948 -25569854.72046  20564984.0784                   20564980.4884
  -5744655.69947  -4460393.23944  23538068.1884                   23538070.7234
 11  8 21  0 31 30.0000000  0  9G12G09G17G10G05G04G30G02G25
 -24274064.46948 -18902968.15146  21055765.0634                   21055763.4304
 -12048373.36346  -9376116.04243  24016100.9774                   24016104.5474
 -30882885.98447 -24052324.73744  23402328.7974                   23402328.7624
 -28818759.34448 -22445148.92946  20855029.7584                   20855028.0784
 -21036189.69148 -16379585.36846  21387604.4064                   21387603.7344
 -29929199.05147 -23308203.43945  22071831.8594                   22071831.0744
  -5979027.18746  -4643137.27944  23196057.1884                   23196057.1374
 -32855292.55148 -25589151.40846  20560271.6334                   20560268.1174
  -5871013.71947  -4558853.94044  23514023.2034                   23514025.2274
 11  8 21  0 32  0.0000000  0  9G12G09G17G10G05G04G30G02G25
 -24353513.99648 -18964876.87146  21040646.5864                   21040644.5824
 -11999782.28546  -9338253.07044  24025347.4924                   24025350.8674
 -30858588.77747 -24033391.88444  23406952.4224                   23406952.5594
 -28831682.80548 -22455219.13446  20852570.4454                   20852568.7234
 -21147934.89548 -16466659.48046  21366340.1254                   21366339.2974
 -29881937.34447 -23271376.16145  22080825.2034                   22080824.8714
  -6102225.40647  -4739135.79544  23172613.2734                   23172613.7274
 -32879804.11748 -25608251.30446  20555607.4844                   20555603.6564
  -5997123.48047  -4657121.19644  23490025.7974                   23490027.6724
 11  8 21  0 32 30.0000000  0  9G12G09G17G10G05G04G30G02G25
 -24432469.13748 -19026400.36046  21025621.8444                   21025619.7814
 -11951122.96146  -9300336.86244  24034607.1094                   24034610.7154
 -30834116.93746 -24014322.96444  23411608.7974                   23411609.5204
 -28843980.45748 -22464801.70946  20850230.2114                   20850228.7704
 -21259286.79348 -16553427.11946  21345150.3914                   21345149.8984
 -29834594.74247 -23234485.85745  22089834.3594                   22089834.0004
  -6225083.32447  -4834869.17044  23149234.1884                   23149234.5594
 -32904061.74648 -25627153.33346  20550991.5474                   20550987.5354
  -6122979.58647  -4755190.78445  23466075.5234                   23466077.5944
 11  8 21  0 33  0.0000000  0  9G12G09G17G10G05G04G30G02G25
 -24510934.87948 -19087542.50946  21010690.1644                   21010688.3364
 -11902405.23846  -9262375.16044  24043878.4304                   24043882.0124
 -30809476.84447 -23995122.91944  23416298.1884                   23416298.2974
 -28855659.94548 -22473902.59646  20848007.7584                   20848005.9144
 -21370250.40648 -16639892.19546  21324034.6954                   21324033.7114
 -29787180.02047 -23197539.35745  22098857.6334                   22098856.9064
  -6347605.08247  -4930340.60044  23125919.0314                   23125919.4774
 -32928073.64548 -25645863.87246  20546422.1724                   20546418.1054
  -6248586.21947  -4853065.97844  23442173.1954                   23442175.2854
 11  8 21  0 33 30.0000000  0  9G12G09G17G10G05G04G30G02G25
 -24588903.60548 -19148297.35246  20995853.3444                   20995851.5314
 -11853626.69547  -9224366.08843  24053160.6724                   24053164.2584
 -30784662.70746 -23975787.25044  23421020.2194                   23421020.0274
 -28866716.35948 -22482517.97546  20845903.3364                   20845902.1994
 -21480817.08248 -16726047.96546  21302994.8364                   21302993.8364
 -29739689.00447 -23160533.40845  22107894.4924                   22107893.3284
  -6469782.16447  -5025543.40844  23102669.5004                   23102669.1994
 -32951835.27348 -25664379.40146  20541900.4144                   20541896.3524
  -6373935.16047  -4950740.39144  23418320.1724                   23418322.2664
 11  8 21  0 34  0.0000000  0  9G12G09G17G10G05G04G30G02G25
 -24666377.19148 -19208666.39546  20981110.7584                   20981108.6564
 -11804794.22747  -9186315.04644  24062453.3914                   24062457.1024
 -30759677.32447 -23956318.12644  23425774.4064                   23425774.8444
 -28877154.07048 -22490651.24946  20843916.9924                   20843916.0164
 -21590987.54348 -16811894.99246  21282029.9454                   21282029.3714
 -29692127.14147 -23123472.24945  22116945.6094                   22116944.5594
  -6591615.39147  -5120478.35144  23079485.4614                   23079484.7074
 -32975351.41848 -25682703.65547  20537425.4924                   20537421.6994
  -6499027.16847  -5048214.64644  23394515.8284                   23394517.4884
 11  8 21  0 34 30.0000000  0  9G12G09G17G10G05G04G30G02G25
 -24743352.57848 -19268647.21846  20966462.4844                   20966460.8014
 -11755910.27346  -9148223.81543  24071754.9384                   24071758.7234
 -30734519.47746 -23936714.64844  23430560.9534                   23430562.2664
 -28886973.05548 -22498302.37846  20842048.6804                   20842047.2934
 -21700758.59848 -16897430.79946  21261141.2504                   21261140.2584
 -29644495.28147 -23086356.56045  22126009.2504                   22126008.4184
  -6713101.16447  -5215142.50444  23056367.5944                   23056367.4534
 -32998622.24648 -25700836.74946  20532996.8444                   20532993.2424
  -6623858.81647  -5145485.93845  23370761.3754                   23370763.3484
 11  8 21  0 35  0.0000000  0  9G12G09G17G10G05G04G30G02G25
 -24819825.73848 -19328236.70546  20951910.1414                   20951908.4384
 -11706975.73046  -9110093.22043  24081067.6884                   24081070.9344
 -30709186.49246 -23916974.67044  23435382.2894                   23435382.9574
 -28896171.18748 -22505469.75846  20840298.4224                   20840297.2464
 -21810125.41448 -16982651.62546  21240329.3204                   21240328.3324
 -29596792.47347 -23049185.59345  22135087.0164                   22135086.3714
  -6834234.12947  -5309531.80044  23033317.0164                   23033315.5664
 -33021646.40248 -25718777.63346  20528615.7194                   20528612.1484
  -6748424.87947  -5242550.31545  23347057.8204                   23347058.7664
 11  8 21  0 35 30.0000000  0  9G12G09G17G10G05G04G30G02G25
 -24895797.32448 -19387435.33846  20937453.2424                   20937451.4024
 -11657996.39546  -9071927.68743  24090388.1024                   24090392.0354
 -30683680.60546 -23897099.99544  23440236.3204                   23440236.6954
 -28904752.27048 -22512156.31846  20838665.2734                   20838664.2544
 -21919087.69948 -17067557.22246  21219594.3754                   21219593.5044
 -29549023.07847 -23011962.73245  22144177.4774                   22144176.3094
  -6955014.21147  -5403646.08644  23010332.9144                   23010332.4104
 -33044428.56648 -25736529.95846  20524280.2034                   20524276.5904
  -6872725.40647  -5339407.82944  23323403.0084                   23323404.6254
 11  8 21  0 36  0.0000000  0  9G12G09G17G10G05G04G30G02G25
 -24971264.09048 -19446240.62646  20923092.5864                   20923090.5124
 -11608973.89846  -9033728.56143  24099717.1174                   24099721.2234
 -30657999.74646 -23877088.94544  23445123.3984                   23445123.2274
 -28912715.96948 -22518361.80146  20837150.2504                   20837148.8244
 -22027641.87548 -17152144.81246  21198937.0944                   21198936.1334
 -29501187.29347 -22974688.13145  22153279.9924                   22153279.6024
  -7075437.39147  -5497482.24744  22987416.4534                   22987416.4064
 -33066968.08248 -25754093.20446  20519991.4304                   20519987.6254
  -6996756.31647  -5436055.23145  23299800.7664                   23299802.3954
 11  8 21  0 36 30.0000000  0  9G12G09G17G10G05G04G30G02G25
 -23470803.09048 -18277050.22346  21208620.9144                   21208618.8134
  -9984494.53946  -7767900.69043  24408845.7974                   24408848.6174
 -29056725.84446 -22629343.06844  23749835.4844                   23749835.7584
 -27344643.82848 -21296487.41146  21135544.3284                   21135542.6524
 -20560363.00048 -16008810.55546  21478150.7734                   21478149.8094
 -27877869.68747 -21709765.35545  22462187.0234                   22462186.7234
  -5620078.15247  -4363435.99844  23264362.5864                   23264361.9494
 -31513846.47348 -24543868.57446  20815540.7194                   20815536.7194
  -5545092.15647  -4304888.28845  23576044.0234                   23576045.4264
 11  8 21  0 37  0.0000000  0  9G12G09G17G10G05G04G30G02G25
 -23545258.12148 -18335067.12246  21194452.6094                   21194450.4844
  -9935399.02346  -7729644.69343  24418187.6484                   24418192.1094
 -29030697.38346 -22609061.16144  23754788.6804                   23754788.7304
 -27351378.12148 -21301734.89446  21134262.6414                   21134261.5664
 -20668096.52748 -16092758.67046  21457649.6174                   21457648.8634
 -27829909.42647 -21672393.76045  22471313.6254                   22471313.5164
  -5739782.36747  -4456711.96544  23241583.3984                   23241582.4454
 -31535907.46148 -24561058.94047  20811342.4924                   20811338.7114
  -5668579.14547  -4401111.83945  23552544.5554                   23552546.8364
 11  8 21  0 37 30.0000000  0  9G12G09G17G10G05G04G30G02G25
 -23619206.24248 -18392689.02846  21180380.3524                   21180378.5044
  -9886273.53946  -7691365.27943  24427536.1024                   24427539.7504
 -29004495.99646 -22588644.51244  23759774.6724                   23759774.4774
 -27357501.25847 -21306506.15146  21133097.3914                   21133095.7584
 -20775417.56248 -16176385.37846  21437227.0314                   21437226.3444
 -27781891.28147 -21634977.07245  22480451.1724                   22480450.9184
  -5859124.68747  -4549705.86744  23218873.7894                   23218873.2894
 -31557732.83248 -24578065.72446  20807189.3444                   20807185.3524
  -5791791.84447  -4497121.63244  23529097.4304                   23529100.2384
 11  8 21  0 38  0.0000000  0  9G12G09G17G10G05G04G30G02G25
 -23692644.09048 -18449913.32646  21166405.7974                   21166403.5984
  -9837119.60547  -7653063.71843  24436890.1254                   24436894.5984
 -28978119.87946 -22568091.72644  23764794.1724                   23764793.3794
 -27363012.20748 -21310800.38546  21132048.6884                   21132047.4064
 -20882321.91448 -16259687.39346  21416884.0004                   21416882.7274
 -27733814.67647 -21597514.82045  22489600.2424                   22489599.6954
  -5978100.69947  -4642414.36644  23196233.0164                   23196232.3834
 -31579322.21548 -24594888.61846  20803080.8524                   20803076.8874
  -5914725.87947  -4592914.28644  23505703.8754                   23505706.4774
 11  8 21  0 38 30.0000000  0  9G12G09G17G10G05G04G30G02G25
 -23765568.74248 -18506737.70846  21152528.7504                   21152526.7974
  -9787939.55546  -7614741.81843  24446248.7344                   24446253.7234
 -28951567.74246 -22547401.78644  23769846.4534                   23769846.5204
 -27367911.04748 -21314617.63446  21131116.7114                   21131115.1564
 -20988806.38348 -16342662.23246  21396620.6094                   21396619.8284
 -27685680.56247 -21560007.73245  22498759.2504                   22498759.1454
  -6096706.75447  -4734834.62744  23173663.0784                   23173662.5664
 -31600675.68748 -24611527.67646  20799017.5234                   20799013.5704
  -6037377.63347  -4688487.03345  23482364.4534                   23482366.0824
 11  8 21  0 39  0.0000000  0  9G12G09G17G10G05G04G30G02G25
 -23837976.48448 -18563159.30546  21138749.7344                   21138747.7774
  -9738734.16046  -7576400.16043  24455612.2974                   24455617.4964
 -28924837.19146 -22526572.79344  23774933.0164                   23774933.2544
 -27372196.77348 -21317957.15246  21130301.0944                   21130299.6454
 -21094866.36348 -16425306.28446  21376438.0554                   21376436.9144
 -27637488.45347 -21522455.47645  22507930.1564                   22507929.8134
  -6214937.96947  -4826962.78144  23151164.3134                   23151163.6724
 -31621792.26648 -24627982.15546  20794999.1094                   20794995.1524
  -6159742.37147  -4783836.08844  23459079.1644                   23459080.7194
 11  8 21  0 39 30.0000000  0  9G12G09G17G10G05G04G30G02G25
 -23909866.97748 -18619177.86346  21125069.6414                   21125067.1414
  -9689508.38746  -7538042.64943  24464980.0084                   24464985.5354
 -28897929.08246 -22505605.44344  23780053.4924                   23780053.8954
 -27375871.68448 -21320820.70446  21129601.7894                   21129600.5044
 -21200500.41848 -16507618.46346  21356336.4454                   21356335.3484
 -27589241.25447 -21484860.27345  22517111.4694                   22517110.9064
  -6332793.02347  -4918797.87644  23128737.0164                   23128736.3164
 -31642674.91448 -24644254.33446  20791025.6174                   20791021.7734
  -6281818.82846  -4878960.54944  23435849.2584                   23435849.9144
 11  8 21  0 40  0.0000000  0  9G12G09G17G10G05G04G30G02G25
 -23981243.43748 -18674795.86946  21111486.7894                   21111485.0554
  -9640269.93746  -7499675.21543  24474349.8914                   24474355.0554
 -28870847.35946 -22484502.85744  23785206.8134                   23785207.7624
 -27378941.32448 -21323212.59746  21129017.4924                   21129015.9884
 -21305711.18448 -16589600.80546  21336315.5474                   21336314.7304
 -27540945.11347 -21447226.92245  22526301.7194                   22526301.4454
  -6450273.78547  -5010341.25244  23106380.6564                   23106381.3794
 -31663329.35948 -24660348.69846  20787094.7664                   20787091.2194
  -6403608.84047  -4973861.77545  23412673.0084                   23412674.4414
 11  8 21  0 40 30.0000000  0  9G12G09G17G10G05G04G30G02G25
 -24052101.16848 -18730009.66146  21098003.3284                   21098001.3914
  -9591019.41446  -7461298.41943  24483722.4064                   24483727.1684
 -28843589.19546 -22463262.74344  23790394.5004                   23790393.9024
 -27381404.45747 -21325131.89846  21128548.9064                   21128547.4654
 -21410493.53148 -16671249.30746  21316375.9694                   21316375.0204
 -27492598.69947 -21409554.40545  22535501.9694                   22535501.4774
  -6567374.85947  -5101588.80144  23084097.7034                   23084097.0314
 -31683753.99648 -24676263.99546  20783208.4064                   20783204.3794
  -6525107.14847  -5068535.72945  23389552.7274                   23389554.0004
 11  8 21  0 41  0.0000000  0  9G12G09G17G10G05G04G30G02G25
 -24122438.10948 -18784817.65646  21084618.4924                   21084616.3014
  -9541759.54746  -7422914.29143  24493096.5004                   24493101.3954
 -28816153.86346 -22441884.54544  23795615.4774                   23795614.8874
 -27383261.90647 -21326579.21746  21128194.9454                   21128193.8014
 -21514844.62148 -16752561.76846  21296518.4064                   21296517.4884
 -27444203.29347 -21371843.70645  22544711.1254                   22544710.8014
  -6684093.12147  -5192538.00244  23061886.3054                   23061886.8484
 -31703949.55948 -24692000.77046  20779365.3054                   20779361.2034
  -6646310.68047  -5162979.96445  23366488.1024                   23366489.5594
 11  8 21  0 41 30.0000000  0  9G12G09G17G10G05G04G30G02G25
 -24192253.17248 -18839218.98846  21071333.1954                   21071330.7504
  -9492493.40246  -7384525.22943  24502471.3914                   24502476.6684
 -28788541.39146 -22420368.37144  23800869.1804                   23800868.6684
 -27384515.15248 -21327555.76046  21127957.1564                   21127955.1174
 -21618762.38348 -16833536.57346  21276743.6564                   21276742.9574
 -27395760.91847 -21334096.39845  22553929.5704                   22553928.5354
  -6800426.25447  -5283187.15644  23039749.4774                   23039748.1684
 -31723917.90248 -24707560.50346  20775565.3834                   20775561.4304
  -6767217.07847  -5257192.70245  23343480.0864                   23343482.2854
 11  8 21  0 42  0.0000000  0  9G12G09G17G10G05G04G30G02G25
 -24261543.53548 -18893211.45746  21058148.0704                   21058145.4224
  -9443223.48846  -7346133.28744  24511847.2344                   24511852.1294
 -28760750.57846 -22398713.20644  23806157.8284                   23806158.3324
 -27385164.54748 -21328061.75646  21127833.4064                   21127831.9964
 -21722243.66848 -16914171.26446  21257051.7814                   21257050.4804
 -27347272.16847 -21296312.96945  22563156.7344                   22563156.0594
  -6916370.87147  -5373533.53845  23017685.5084                   23017685.7154
 -31743659.30948 -24722943.40246  20771808.9144                   20771804.6454
  -6887822.97747  -5351171.23345  23320529.6564                   23320532.0904
 11  8 21  0 42 30.0000000  0  9G12G09G17G10G05G04G30G02G25
 -24330308.59448 -18946794.59846  21045062.5394                   21045060.0554
  -9393953.62946  -7307741.32244  24521223.0864                   24521228.1644
 -28732781.60546 -22376919.19544  23811480.1414                   23811480.3364
 -27385211.62148 -21328098.41246  21127824.2664                   21127822.6454
 -21825286.47348 -16994464.29346  21237443.1564                   21237442.2704
 -27298739.12947 -21258495.03945  22572392.2894                   22572391.4384
  -7031924.70747  -5463575.42045  22995696.8284                   22995696.2894
 -31763175.72748 -24738150.98546  20768094.5554                   20768090.9454
  -7008126.23847  -5444913.98445  23297636.8524                   23297638.3404
 11  8 21  0 43  0.0000000  0  9G12G09G17G10G05G04G30G02G25
 -24398551.66048 -18999970.98746  21032075.9224                   21032073.8134
  -9344692.02746  -7269355.79844  24530598.3054                   24530602.9734
 -28704639.06246 -22354989.95544  23816835.9224                   23816836.2384
 -27384662.35248 -21327670.38146  21127928.5474                   21127927.0124
 -21927893.50448 -17074417.74946  21217917.4694                   21217916.5904
 -27250168.32047 -21220647.67645  22581634.7344                   22581634.2584
  -7147090.08247  -5553314.61944  22973781.2734                   22973780.5044
 -31782472.99648 -24753187.79746  20764422.5864                   20764418.6334
  -7128129.09847  -5538422.67145  23274800.5634                   23274803.6254
 11  8 21  0 43 30.0000000  0  9G12G09G17G10G05G04G30G02G25
 -24466266.65248 -19052735.89246  21019190.3444                   21019187.9064
  -9295437.23046  -7230975.56744  24539970.7664                   24539974.9454
 -28676318.32446 -22332921.84844  23822225.0474                   23822224.9264
 -27383514.04747 -21326775.58246  21128147.3134                   21128146.1764
 -22030058.08248 -17154026.44046  21198476.5704                   21198475.2034
 -27201556.94147 -21182768.70745  22590885.3524                   22590884.8444
  -7261860.02747  -5642745.67244  22951941.3674                   22951940.2774
 -31801548.18448 -24768051.56046  20760792.4224                   20760788.6764
  -7247824.55947  -5631691.80145  23252023.6644                   23252024.7424
 11  8 21  0 44  0.0000000  0  9G12G09G17G10G05G04G30G02G25
 -24533452.56248 -19105088.52746  21006405.2734                   21006403.0084
  -9246193.07446  -7192603.63643  24549340.9694                   24549346.9614
 -28647819.67246 -22310715.13844  23827647.8984                   23827648.1604
 -27381768.57848 -21325415.44146  21128479.5944                   21128477.9844
 -22131778.55548 -17233289.08746  21179119.6414                   21179118.3794
 -27152906.82047 -21144859.52845  22600143.3134                   22600142.6994
  -7376232.30547  -5731866.87744  22930177.5864                   22930176.9064
 -31820402.87148 -24782743.50146  20757204.7194                   20757200.8244
  -7367210.61347  -5724719.86145  23229305.3984                   23229307.2074
 11  8 21  0 44 30.0000000  0  9G12G09G17G10G05G04G30G02G25
 -24600105.61748 -19157025.94846  20993721.2894                   20993719.6644
  -9196960.41046  -7154240.65344  24558711.2814                   24558714.7934
 -28619140.53546 -22288367.75444  23833106.0864                   23833105.7894
 -27379425.33248 -21323589.51246  21128924.8834                   21128923.8714
 -22233050.35948 -17312202.11346  21159848.1884                   21159847.0554
 -27104217.11747 -21106919.49545  22609408.6484                   22609408.2854
  -7490202.24247  -5820674.51744  22908488.7814                   22908488.3754
 -31839036.27748 -24797263.00746  20753658.8284                   20753655.2814
  -7486282.39147  -5817503.00845  23206646.1174                   23206648.5824
 11  8 21  0 45  0.0000000  0  9G12G09G17G10G05G04G30G02G25
 -24666225.80548 -19208548.14346  20981139.1414                   20981136.9694
  -9147743.91446  -7115890.32243  24568075.9924                   24568081.0234
 -28590282.01646 -22265880.60844  23838596.7274                   23838598.1254
 -27376486.93748 -21321299.82646  21129484.5634                   21129482.7384
 -22333872.96548 -17390765.12146  21140662.1724                   21140661.1294
 -27055491.09847 -21068951.17245  22618681.0634                   22618680.1644
  -7603768.64547  -5909167.78344  22886877.6174                   22886877.9454
 -31857451.11348 -24811612.21046  20750154.5634                   20750150.6844
  -7605038.71147  -5910040.34045  23184048.0394                   23184049.1254
 11  8 21  0 45 30.0000000  0  9G12G09G17G10G05G04G30G02G25
 -24731808.55548 -19259651.55146  20968659.1954                   20968657.2274
  -9098543.39146  -7077552.35643  24577438.7814                   24577444.2934
 -28561240.77046 -22243251.06444  23844123.6644                   23844124.2384
 -27372951.39848 -21318544.84146  21130157.0864                   21130155.6174
 -22434240.46948 -17468973.50246  21121563.0634                   21121561.3674
 -27006726.94147 -21030953.16245  22627960.1644                   22627959.8754
  -7716925.55947  -5997341.89844  22865344.7034                   22865344.1644
 -31875645.32848 -24825789.48446  20746692.5164                   20746688.7424
  -7723473.70347  -6002327.33744  23161510.1804                   23161511.5864
 11  8 21  0 46  0.0000000  0  9G12G09G17G10G05G04G30G02G25
 -24796854.76648 -19310336.87246  20956280.9224                   20956279.2304
  -9049364.39546  -7039231.19143  24586797.8524                   24586801.7304
 -28532018.87146 -22220480.77044  23849684.0554                   23849684.8754
 -27368822.27348 -21315327.32846  21130943.0634                   21130941.4774
 -22534153.15248 -17546827.48246  21102550.1884                   21102548.8834
 -26957928.23847 -20992928.23445  22637246.4224                   22637246.1414
  -7829672.83247  -6085196.88644  22843889.2734                   22843889.5634
 -31893622.59448 -24839797.71046  20743271.3444                   20743267.6134
  -7841587.17647  -6094363.72745  23139034.2974                   23139036.6024
 11  8 21  0 46 30.0000000  0  9G12G09G17G10G05G04G30G02G25
 -24861363.78548 -19360603.60746  20944005.7194                   20944003.7974
  -9000210.76246  -7000929.89243  24596151.3914                   24596155.8094
 -28502616.74647 -22197570.01144  23855279.7034                   23855279.5634
 -27364101.98848 -21311649.19046  21131840.8984                   21131839.6524
 -22633609.93748 -17624326.22746  21083624.1024                   21083622.8914
 -26909097.44947 -20954878.30545  22646538.9844                   22646538.1884
  -7942008.63347  -6172731.19644  22822512.5634                   22822512.4104
 -31911384.71948 -24853638.30146  20739891.3204                   20739887.0744
  -7959377.22747  -6186148.14045  23116619.0004                   23116620.7974
 11  8 21  0 47  0.0000000  0  9G12G09G17G10G05G04G30G02G25
 -24925331.98448 -19410448.92446  20931832.7974                   20931830.4734
  -8951083.37546  -6962648.87843  24605499.3054                   24605504.6564
 -28473031.69947 -22174516.72544  23860909.3834                   23860909.3594
 -27358790.00848 -21307509.99146  21132852.0474                   21132850.6174
 -22732605.93048 -17701465.89846  21064785.8284                   21064784.2854
 -26860233.54347 -20916802.56844  22655837.7974                   22655836.7424
  -8053928.05547  -6259941.11744  22801215.8674                   22801215.0784
 -31928930.61748 -24867310.39446  20736552.3674                   20736548.3794
  -8076838.92647  -6277676.69345  23094267.7274                   23094269.0984
 11  8 21  0 47 30.0000000  0  9G12G09G17G10G05G04G30G02G25
 -24988760.20348 -19459873.47946  20919762.8674                   20919760.8914
  -8901988.01646  -6924392.94243  24614842.2114                   24614846.9144
 -28443266.36747 -22151322.92744  23866573.7504                   23866573.6764
 -27352890.51648 -21302913.00446  21133974.2734                   21133973.2274
 -22831141.78548 -17778247.03046  21046034.9844                   21046033.7194
 -26811340.77047 -20878704.31844  22665140.8054                   22665140.8714
  -8165431.37547  -6346826.75744  22779996.8674                   22779995.9694
 -31946264.37948 -24880817.18046  20733253.7814                   20733250.1254
  -8193972.48447  -6368949.56545  23071977.3594                   23071978.9414
 11  8 21  0 48  0.0000000  0  9G12G09G17G10G05G04G30G02G25
 -25051648.56248 -19508877.34946  20907795.7504                   20907793.4264
  -8852928.02046  -6886164.57743  24624179.4064                   24624183.4844
 -28413320.96546 -22127988.82244  23872271.5314                   23872271.5354
 -27346405.37948 -21297859.64446  21135208.7894                   21135207.2384
 -22929215.44948 -17854668.00146  21027372.1484                   21027370.7584
 -26762421.10947 -20840585.07645  22674450.4454                   22674449.6294
  -8276516.49247  -6433386.55444  22758857.5394                   22758856.9384
 -31963387.96148 -24894160.19946  20729995.4384                   20729991.4774
  -8310775.94547  -6459965.18745  23049750.4304                   23049751.8594
 11  8 21  0 48 30.0000000  0  9G12G09G17G10G05G04G30G02G25
 -25113989.51648 -19557454.68946  20895932.2424                   20895930.5594
  -8803901.26646  -6847962.08743  24633507.9384                   24633512.8634
 -28383189.84046 -22104510.02944  23878005.8594                   23878005.7154
 -27339330.33248 -21292346.61646  21136555.1954                   21136553.6414
 -23026819.80548 -17930723.26946  21008798.6334                   21008797.4064
 -26713470.32847 -20802441.62145  22683765.6724                   22683764.6334
  -8387175.23047  -6519614.10345  22737800.0164                   22737799.9414
 -31980296.78948 -24907335.87346  20726777.8594                   20726773.6724
  -8427240.95347  -6550717.13845  23027587.6644                   23027589.1764
 11  8 21  0 49  0.0000000  0  9G12G09G17G10G05G04G30G02G25
 -25175787.74247 -19605609.10846  20884172.3524                   20884170.4454
  -8754916.75846  -6809792.58543  24642829.2664                   24642834.7894
 -28352878.62146 -22080890.89344  23883773.7344                   23883773.9924
 -27331672.78548 -21286379.70046  21138012.3054                   21138010.6214
 -23123958.51648 -18006415.71546  20990313.6884                   20990312.2974
 -26664495.71147 -20764279.56644  22693084.6334                   22693084.5204
  -8497411.05547  -6605512.09844  22716823.1644                   22716822.3164
 -31996998.10948 -24920349.85946  20723599.6484                   20723595.2544
  -8543370.97747  -6641208.00245  23005488.3914                   23005490.4304
 11  8 21  0 49 30.0000000  0  9G12G09G17G10G05G04G30G02G25
 -25237041.50848 -19653339.28246  20872516.0944                   20872514.2664
  -8705976.72746  -6771657.61543  24652142.6024                   24652148.0274
 -28322386.30146 -22057130.62144  23889576.0704                   23889575.9264
 -27323434.30548 -21279960.10246  21139580.0084                   21139578.6524
 -23220629.19948 -18081743.45446  20971917.5944                   20971916.3404
 -26615498.22747 -20726099.71844  22702409.0944                   22702408.0594
  -8607220.96947  -6691078.23744  22695926.9534                   22695926.0664
 -32013492.84848 -24933202.86746  20720460.7664                   20720456.8134
  -8659162.81247  -6731435.39345  22983454.8054                   22983455.3954
 11  8 21  0 50  0.0000000  0  9G12G09G17G10G05G04G30G02G25
 -25297750.14548 -19700644.69046  20860963.8834                   20860961.8484
  -8657084.95346  -6733560.34343  24661447.1254                   24661452.3364
 -28291713.69146 -22033229.88544  23895413.2194                   23895413.0204
 -27314617.02747 -21273089.50446  21141257.6024                   21141256.2734
 -23316829.87548 -18156704.97246  20953611.5634                   20953610.2154
 -26566479.91946 -20687903.70444  22711737.0784                   22711736.1374
  -8716602.80947  -6776310.83845  22675112.7194                   22675112.2894
 -32029782.21948 -24945895.85246  20717360.7034                   20717356.8834
  -8774614.51247  -6821397.71545  22961484.5474                   22961486.3364
 11  8 21  0 50 30.0000000  0  9G12G09G17G10G05G04G30G02G25
 -25357908.44148 -19747521.24346  20849515.7424                   20849514.1214
  -8608240.58247  -6695499.95843  24670741.2974                   24670746.9454
 -28260856.68046 -22009185.47144  23901285.3444                   23901285.0984
 -27305218.71148 -21265766.13346  21143046.3914                   21143044.7704
 -23412554.78548 -18231295.75046  20935395.5314                   20935394.1764
 -26517437.83247 -20649689.05044  22721069.5474                   22721068.5084
  -8825550.57847  -6861205.15244  22654380.2114                   22654379.4654
 -32045864.02348 -24958427.10546  20714300.3524                   20714296.2664
  -8889719.69547  -6911090.04545  22939580.8674                   22939581.9024
 11  8 21  0 51  0.0000000  0  9G12G09G17G10G05G04G30G02G25
 -25417516.33648 -19793968.91746  20838173.0084                   20838170.7974
  -8559447.96546  -6657479.99443  24680026.9224                   24680031.8364
 -28229815.96146 -21984997.90744  23907191.8674                   23907191.1764
 -27295242.14548 -21257992.17746  21144944.7814                   21144943.1054
 -23507803.23848 -18305515.25146  20917270.2504                   20917268.8014
 -26468375.04747 -20611458.32144  22730405.3754                   22730404.8054
  -8934062.63747  -6945759.99945  22633731.6954                   22633729.8794
 -32061740.72348 -24970798.54446  20711279.2504                   20711275.4224
  -9004476.99647  -7000511.28045  22917743.1024                   22917744.3714
 11  8 21  0 51 30.0000000  0  9G12G09G17G10G05G04G30G02G25
 -25476571.25848 -19839985.70746  20826935.3524                   20826933.3754
  -8510708.46946  -6619501.35343  24689301.3524                   24689307.9884
 -28198590.18046 -21960666.15144  23913133.3134                   23913133.8164
 -27284687.54348 -21249767.78746  21146953.2274                   21146951.6094
 -23602571.55148 -18379360.62746  20899236.4064                   20899235.0394
 -26419291.21147 -20573211.18144  22739745.6564                   22739744.8444
  -9042135.17247  -7029972.35045  22613165.6884                   22613164.9024
 -32077411.83648 -24983009.78246  20708297.4384                   20708293.5274
  -9118882.25847  -7089658.18445  22895972.6644                   22895974.8054
 11  8 21  0 52  0.0000000  0  9G12G09G17G10G05G04G30G02G25
 -25535074.62148 -19885572.71446  20815802.4774                   20815800.3984
  -8462028.33246  -6581569.02644  24698565.4844                   24698571.0554
 -28167182.05546 -21936192.31244  23919110.6884                   23919110.1884
 -27273559.51248 -21241096.56946  21149070.8984                   21149069.0664
 -23696860.70348 -18452832.63547  20881293.6094                   20881292.0234
 -26370190.86747 -20534951.19144  22749089.4454                   22749088.8094
  -9149768.75447  -7113842.62445  22592683.4454                   22592683.1484
 -32092881.61348 -24995064.15346  20705353.6644                   20705349.3834
  -9232936.10247  -7178531.24345  22874269.0634                   22874269.7114
 11  8 21  0 52 30.0000000  0  9G12G09G17G10G05G04G30G02G25
 -25593025.84047 -19930729.48546  20804774.5394                   20804772.5474
  -8413410.19546  -6543685.02643  24707817.3204                   24707823.0784
 -28135591.07846 -21911575.97344  23925122.1334                   23925122.4264
 -27261859.75047 -21231979.84846  21151297.4534                   21151295.8984
 -23790668.24647 -18525929.35546  20863442.6254                   20863441.1294
 -26321075.13747 -20496679.21444  22758436.3594                   22758435.1454
  -9256960.58247  -7197368.68845  22572286.0944                   22572284.1954
 -32108151.12548 -25006962.45946  20702447.6174                   20702443.8204
  -9346635.69147  -7267128.31945  22852632.8524                   22852633.2624
 11  8 21  0 53  0.0000000  0  9G12G09G17G10G05G04G30G02G25
 -25650422.17248 -19975453.87246  20793852.6564                   20793850.4614
  -8364855.71946  -6505850.63044  24717056.7424                   24717062.5314
 -28103815.89846 -21886816.11844  23931168.2034                   23931168.8284
 -27249588.39848 -21222417.73046  21153632.2584                   21153630.7464
 -23883991.39848 -18598648.63646  20845683.9534                   20845682.5124
 -26271943.78147 -20458395.06544  22767785.7664                   22767784.5084
  -9363707.09847  -7280547.77245  22551972.1564                   22551971.0904
 -32123220.48448 -25018704.80946  20699580.2734                   20699576.2344
  -9459977.26247  -7355446.37045  22831064.1094                   22831066.3244
 11  8 21  0 53 30.0000000  0  9G12G09G17G10G05G04G30G02G25
 -25707264.28548 -20019746.38846  20783035.6484                   20783033.6174
  -8316370.27046  -6468070.03144  24726283.8754                   24726289.6644
 -28071858.41846 -21861914.21044  23937249.7814                   23937250.5594
 -27236749.60948 -21212413.44646  21156075.5864                   21156073.8754
 -23976830.21948 -18670990.50347  20828017.1334                   20828015.6764
 -26222800.39547 -20420101.54544  22777136.3984                   22777136.4494
  -9470007.91847  -7363379.53945  22531743.7194                   22531743.2854
 -32138092.97748 -25030293.77746  20696750.0394                   20696745.7624
  -9572960.36348  -7443485.08045  22809564.7034                   22809565.1254
 11  8 21  0 54  0.0000000  0  9G12G09G17G10G05G04G30G02G25
 -25763550.80548 -20063605.99446  20772324.8054                   20772322.6994
  -8267955.75846  -6430344.61344  24735496.6564                   24735503.5164
 -28039717.70346 -21836869.48744  23943366.2194                   23943366.1844
 -27223344.59448 -21201967.93946  21158626.6954                   21158624.8244
 -24069181.91048 -18742952.80547  20810443.1804                   20810441.6724
 -26173645.53947 -20381799.12444  22786490.9774                   22786490.3524
  -9575859.83247  -7445861.50645  22511601.0944                   22511600.5664
 -32152768.96148 -25041729.61346  20693957.0944                   20693953.5204
  -9685581.71547  -7531241.95145  22788132.5864                   22788134.8484
 11  8 21  0 54 30.0000000  0  9G12G09G17G10G05G04G30G02G25
 -25819282.19148 -20107033.02446  20761719.3594                   20761717.3794
  -8219616.77346  -6392678.10343  24744695.7274                   24744701.5204
 -28007395.16846 -21811683.06243  23949517.0704                   23949515.8364
 -27209376.51647 -21191083.68346  21161284.3754                   21161282.5664
 -24161046.07848 -18814535.21646  20792961.7114                   20792960.3444
 -26124482.11347 -20343490.03244  22795846.6174                   22795845.7304
  -9681262.04347  -7527993.06845  22491543.3914                   22491542.8204
 -32167251.19947 -25053014.49346  20691201.1724                   20691197.3164
  -9797840.35247  -7618716.16445  22766770.9384                   22766773.0084
 11  8 21  0 55  0.0000000  0  9G12G09G17G10G05G04G30G02G25
 -25874450.06648 -20150020.97346  20751221.3834                   20751219.2384
  -8171349.40246  -6355067.36743  24753880.8054                   24753887.0234
 -27974883.62147 -21786349.44044  23955704.0864                   23955703.9844
 -27194840.24647 -21179756.70046  21164050.5084                   21164048.8244
 -24252413.82847 -18885730.79846  20775575.1024                   20775573.2814
 -26075304.08247 -20305169.49844  22805204.5554                   22805203.9924
  -9786204.93047  -7609766.70445  22471573.6024                   22471572.9264
 -32181533.42248 -25064143.51146  20688483.6024                   20688479.6174
  -9909726.55947  -7705900.19245  22745479.7114                   22745480.4184
 11  8 21  0 55 30.0000000  0  9G12G09G17G10G05G04G30G02G25
 -25929059.70348 -20192573.93146  20740829.5314                   20740827.1024
  -8123162.97346  -6317519.67243  24763049.9064                   24763057.3054
 -27942189.46946 -21760873.42343  23961925.1884                   23961924.4454
 -27179744.14547 -21167993.48446  21166923.4304                   21166921.7344
 -24343289.66848 -18956543.08247  20758281.8754                   20758280.5084
 -26026119.29347 -20266843.75344  22814564.3674                   22814564.2624
  -9890692.68747  -7691185.71145  22451690.3524                   22451689.8794
 -32195623.73048 -25075122.98646  20685802.4534                   20685798.2464
 -10021244.48847  -7792797.21945  22724258.4224                   22724259.1564
 11  8 21  0 56  0.0000000  0  9G12G09G17G10G05G04G30G02G25
 -25983106.72748 -20234688.47846  20730544.8204                   20730542.4104
  -8075056.78946  -6280034.52643  24772204.2584                   24772211.4734
 -27909308.71946 -21735251.97843  23968181.9144                   23968181.4734
 -27164086.31248 -21155792.55546  21169902.5784                   21169901.0044
 -24433667.86348 -19026967.58946  20741083.2664                   20741081.9654
 -25976925.32847 -20228510.84144  22823925.1414                   22823925.8794
  -9994719.29747  -7772245.36045  22431894.0234                   22431893.5664
 -32209519.71148 -25085951.02946  20683157.9384                   20683153.8984
 -10132387.86347  -7879402.39945  22703108.6174                   22703110.3594
 11  8 21  0 56 30.0000000  0  8G12G17G10G05G04G30G02G25
 -26036589.89848 -20276363.68246  20720367.3204                   20720364.8794
 -27876240.92246 -21709484.87344  23974474.8134                   23974475.1054
 -27147868.31248 -21143155.14346  21172988.8834                   21172986.8954
 -24523546.59048 -19097002.90747  20723980.0554                   20723978.4734
 -25927723.02347 -20190171.42844  22833288.5554                   22833287.9804
 -10098281.93747  -7852943.49345  22412187.4534                   22412185.9574
 -32223222.00848 -25096628.15446  20680550.6024                   20680546.5514
 -10243153.80147  -7965713.48545  22682030.3364                   22682031.6764
 11  8 21  0 57  0.0000000  0  8G12G17G10G05G04G30G02G25
 -26089510.52348 -20317600.53546  20710296.8284                   20710294.3164
 -27842988.48846 -21683573.93043  23980802.2664                   23980802.6334
 -27131094.70347 -21130084.80446  21176181.2034                   21176179.3834
 -24612926.39548 -19166649.44846  20706971.3054                   20706970.1684
 -25878516.06647 -20151828.39144  22842652.4144                   22842651.8054
 -10201380.70347  -7933280.15145  22392568.1024                   22392567.5234
 -32236734.32448 -25107157.22546  20677978.9064                   20677974.9614
 -10353542.31247  -8051730.47245  22661024.3594                   22661025.6564
 11  8 21  0 57 30.0000000  0  8G12G17G10G05G04G30G02G25
 -26141857.52348 -20358390.39746  20700335.5084                   20700332.9264
 -27809541.66446 -21657511.40244  23987167.2664                   23987166.9384
 -27113757.49647 -21116575.28346  21179479.7894                   21179478.3204
 -24701795.48448 -19235898.03546  20690059.9224                   20690058.7894
 -25829295.96947 -20113475.11944  22852018.2974                   22852018.1414
 -10304003.50847  -8013245.93345  22373039.6884                   22373038.6954
 -32250047.90248 -25117531.43446  20675445.7034                   20675441.4884
 -10463541.05147  -8137443.74045  22640092.4304                   22640093.8244
 11  8 21  0 58  0.0000000  0  8G12G17G10G05G04G30G02G25
 -26193627.18048 -20398730.39046  20690483.9844                   20690481.5984
 -27775897.06646 -21631294.78544  23993569.8284                   23993569.7974
 -27095855.53547 -21102625.71946  21182886.7194                   21182884.9384
 -24790148.80548 -19304744.72946  20673247.0474                   20673245.6844
 -25780060.68447 -20075110.00844  22861388.2034                   22861387.3054
 -10406144.88747  -8092836.56045  22353602.7974                   22353601.9264
 -32263160.86348 -25127749.31446  20672950.2114                   20672946.4774
 -10573144.52347  -8222848.98345  22619234.8754                   22619237.2814
 11  8 21  0 58 30.0000000  0  8G12G17G10G05G04G30G02G25
 -26244826.81648 -20438626.22146  20680741.1254                   20680738.7734
 -27742062.38746 -21604930.10143  24000007.6644                   24000007.8404
 -27077398.80947 -21088243.85646  21186399.0084                   21186397.1914
 -24877992.92648 -19373194.63846  20656531.1484                   20656529.5354
 -25730819.46147 -20036740.25544  22870758.4454                   22870757.2194
 -10507810.46947  -8172056.47645  22334256.5704                   22334255.9574
 -32276082.41448 -25137818.03146  20670491.4064                   20670487.2034
 -10682358.11747  -8307950.44245  22598452.6804                   22598453.7854
 11  8 21  0 59  0.0000000  0  8G12G17G10G05G04G30G02G25
 -26295452.24648 -20478074.60946  20671107.3284                   20671105.0784
 -27708034.46146 -21578414.81944  24006483.7734                   24006482.7234
 -27058385.93748 -21073428.65646  21190016.8914                   21190015.2304
 -24965322.59048 -19441243.66546  20639912.7194                   20639911.4064
 -25681570.18047 -19998364.20244  22880130.0004                   22880129.5824
 -10608994.62147  -8250901.21945  22315001.8054                   22315001.2114
 -32288810.54348 -25147736.01846  20668069.2344                   20668065.3674
 -10791176.10247  -8392743.61945  22577744.9924                   22577746.1764
 11  8 21  0 59 30.0000000  0  8G12G17G10G05G04G30G02G25
 -26345506.50048 -20517077.92146  20661582.2974                   20661579.8554
 -27673817.23046 -21551752.01944  24012994.3134                   24012995.5984
 -27038823.03947 -21058184.86046  21193739.5784                   21193738.1134
 -25052140.28148 -19508893.76746  20623391.8134                   20623390.5044
 -25632318.10247 -19959986.03644  22889502.3834                   22889502.2504
 -10709699.23447  -8329372.29545  22295838.5864                   22295837.4024
 -32301350.19948 -25157507.14146  20665683.2734                   20665678.9804
 -10899600.11747  -8477229.81145  22557113.0234                   22557114.2774
 11  8 21  1  0  0.0000000  0  8G12G17G10G05G04G30G02G25
 -26394989.65648 -20555636.22746  20652165.8754                   20652163.8014
 -27639411.47746 -21524942.31444  24019541.9774                   24019542.0434
 -27018713.28547 -21042514.92446  21197566.1804                   21197565.0314
 -25138445.05148 -19576144.17547  20606968.2424                   20606967.0044
 -25583065.46947 -19921607.38144  22898875.3284                   22898874.7704
 -10809923.03147  -8407468.68445  22276766.1724                   22276765.7154
 -32313703.69548 -25167133.20946  20663332.2894                   20663328.1454
 -11007628.69547  -8561407.84845  22536555.6334                   22536556.3094
 11  8 21  1  0 30.0000000  0  8G12G17G10G05G04G30G02G25
 -24868482.75848 -19366150.32446  20942650.6414                   20942648.3054
 -26029401.96546 -20270389.36744  24325916.3594                   24325916.3404
 -25422642.73847 -19798823.59245  21501288.4774                   21501286.7304
 -23648815.75848 -18415394.01947  20890435.6724                   20890434.0594
 -23958398.22747 -18655632.93644  23208038.8754                   23208038.2344
  -9334243.80147  -7257588.66645  22557578.6884                   22557578.1994
 -30750455.32848 -23949017.55146  20960808.2114                   20960804.0164
  -9539839.27747  -7417675.77945  22815866.7344                   22815868.0744
 11  8 21  1  1  0.0000000  0  8G12G17G10G05G04G30G02G25
 -24916826.85248 -19403821.04546  20933451.1644                   20933448.8364
 -25994624.78146 -20243290.23344  24332534.0944                   24332534.1604
 -25401450.30948 -19782309.98846  21505321.0864                   21505319.7464
 -23734094.83248 -18481845.18647  20874207.4224                   20874205.8324
 -23909152.73046 -18617259.84744  23217409.7424                   23217409.5354
  -9433504.38747  -7334934.52745  22538689.4454                   22538689.0394
 -30762445.34448 -23958360.39446  20958527.0784                   20958522.9414
  -9647074.98447  -7501235.98745  22795460.3524                   22795461.6334
 11  8 21  1  1 30.0000000  0  8G12G17G10G05G04G30G02G25
 -24964599.33648 -19441046.35246  20924360.1644                   20924357.6884
 -25959660.90646 -20216045.62144  24339188.1564                   24339187.8834
 -25379719.03547 -19765376.51146  21509456.6724                   21509455.0664
 -23818857.96948 -18547894.33247  20858077.3364                   20858075.9494
 -23859911.73046 -18578890.22044  23226779.8364                   23226779.0704
  -9532279.25447  -7411901.87545  22519893.6414                   22519892.4494
 -30774254.46948 -23967562.26846  20956279.5784                   20956275.8404
  -9753909.79347  -7584483.79745  22775130.0554                   22775131.5004
 11  8 21  1  2  0.0000000  0  8G12G17G10G05G04G30G02G25
 -25011800.24648 -19477826.27546  20915378.1724                   20915375.9924
 -25924510.52746 -20188655.69744  24345876.8524                   24345876.5474
 -25357451.48848 -19748025.15045  21513693.7734                   21513692.5234
 -23903103.98048 -18613540.51147  20842045.9454                   20842044.5554
 -23810677.07047 -18540525.56744  23236149.1334                   23236147.8284
  -9630566.62547  -7488489.36745  22501189.8674                   22501189.4964
 -30785884.34848 -23976624.47646  20954066.3984                   20954062.3134
  -9860341.73847  -7667417.70345  22754876.8754                   22754877.6134
 11  8 21  1  2 30.0000000  0  8G12G17G10G05G04G30G02G25
 -25058430.03548 -19514161.17246  20906504.7894                   20906502.2194
 -25889175.47346 -20161121.86644  24352600.8284                   24352600.2074
 -25334651.19947 -19730258.67945  21518032.7664                   21518030.7934
 -23986832.54348 -18678783.49646  20826112.9534                   20826111.4344
 -23761451.19146 -18502167.75744  23245516.1644                   23245515.4414
  -9728365.83647  -7564696.49045  22482578.9454                   22482578.0984
 -30797337.78548 -23985549.19546  20951886.6804                   20951883.4654
  -9966370.00447  -7750037.04645  22734700.2664                   22734701.6134
 11  8 21  1  3  0.0000000  0  8G12G17G10G05G04G30G02G25
 -25104486.69148 -19550049.46346  20897740.5864                   20897738.1134
 -25853654.06246 -20133442.75244  24359359.7274                   24359360.0204
 -25311318.83248 -19712077.58946  21522473.0864                   21522470.8674
 -24070040.61348 -18743620.89847  20810278.9614                   20810277.4384
 -23712233.55946 -18463816.37144  23254882.5944                   23254881.6454
  -9825673.05947  -7640520.21245  22464062.4694                   22464061.2734
 -30808613.99648 -23994335.81946  20949741.1724                   20949737.2464
 -10071990.53547  -7832338.67645  22714601.4614                   22714602.6294
 11  8 21  1  3 30.0000000  0  8G12G17G10G05G04G30G02G25
 -25149973.31248 -19585493.57846  20889084.7664                   20889082.6294
 -25817949.80946 -20105621.20944  24366154.0784                   24366154.0124
 -25287460.12547 -19693486.35746  21527013.0314                   21527011.1054
 -24152730.02048 -18808054.14147  20794543.5944                   20794542.0274
 -23663028.84447 -18425475.05744  23264245.6094                   23264245.0864
  -9922489.92247  -7715961.85045  22445638.9384                   22445637.9454
 -30819718.11748 -24002988.35446  20947628.0394                   20947624.1994
 -10177204.68747  -7914323.63445  22694579.2424                   22694581.1174
 11  8 21  1  4  0.0000000  0  8G12G17G10G05G04G30G02G25
 -25194884.55548 -19620489.34246  20880538.4844                   20880536.1844
 -25782058.21546 -20077653.68744  24372984.2194                   24372984.0044
 -25263072.99648 -19674483.37746  21531653.4534                   21531651.8094
 -24234895.37148 -18872079.05147  20778907.8834                   20778906.3594
 -23613833.96947 -18387141.39144  23273607.1804                   23273606.4614
 -10018809.78547  -7791016.18945  22427309.5394                   22427308.8674
 -30830646.78548 -24011504.18246  20945548.4454                   20945544.5004
 -10282005.62547  -7995986.64045  22674637.0004                   22674637.9804
 11  8 21  1  4 30.0000000  0  8G12G17G10G05G04G30G02G25
 -25239220.82848 -19655037.07446  20872101.3134                   20872099.2544
 -25745980.40246 -20049541.11044  24379849.0784                   24379849.5474
 -25238160.83248 -19655071.26146  21536393.8364                   21536392.6214
 -24316535.83248 -18935694.94047  20763372.4924                   20763370.8244
 -23564650.94547 -18348817.03344  23282966.9694                   23282966.8754
 -10114631.43747  -7865682.35845  22409075.0234                   22409074.5434
 -30841401.93748 -24019884.79446  20943502.0634                   20943497.7774
 -10386392.01647  -8077326.60245  22654772.6644                   22654773.1214
 11  8 21  1  5  0.0000000  0  8G12G17G10G05G04G30G02G25
 -25282981.42648 -19689136.23446  20863774.1414                   20863771.9454
 -25709716.00046 -20021283.05943  24386749.9614                   24386750.3674
 -25212724.79347 -19635250.95545  21541234.2664                   21541232.5824
 -24397649.25048 -18998900.15747  20747936.6094                   20747935.2424
 -23515480.02747 -18310502.05144  23292323.5164                   23292323.2194
 -10209952.26647  -7939958.23245  22390936.1644                   22390935.1914
 -30851984.31648 -24028130.78846  20941487.9304                   20941484.1764
 -10490360.87147  -8158341.20645  22634987.8444                   22634989.1724
 11  8 21  1  5 30.0000000  0  8G12G17G10G05G04G30G02G25
 -25326163.70748 -19722784.75446  20855556.8524                   20855554.8444
 -25673262.97746 -19992878.03043  24393687.0554                   24393686.5204
 -25186765.40647 -19615022.83145  21546174.3284                   21546172.5864
 -24478232.50848 -19061692.25447  20732602.3364                   20732600.4694
 -23466320.56247 -18272196.00544  23301678.3914                   23301678.5084
 -10304768.25447  -8013840.74445  22372893.4614                   22372892.4964
 -30862393.01648 -24036241.44146  20939507.4064                   20939503.4924
 -10593907.98047  -8239027.19345  22615283.4774                   22615284.2854
 11  8 21  1  6  0.0000000  0  8G12G17G10G05G04G30G02G25
 -25368768.73048 -19755983.47146  20847449.3594                   20847447.1724
 -25636622.96546 -19964327.41243  24400659.9064                   24400659.0314
 -25160287.08647 -19594390.35945  21551212.8984                   21551211.0394
 -24558285.64548 -19124071.28547  20717368.8204                   20717367.1094
 -23417175.39146 -18233901.05344  23311030.1484                   23311030.0944
 -10399079.11347  -8087329.65045  22354946.3524                   22354944.9224
 -30872630.89548 -24044218.99046  20937559.0004                   20937554.7934
 -10697032.80947  -8319384.14645  22595659.4064                   22595660.5664
 11  8 21  1  6 30.0000000  0  8G12G17G10G05G04G30G02G25
 -25410792.79747 -19788729.48846  20839452.3914                   20839450.4734
 -25599792.93446 -19935628.61843  24407667.4924                   24407667.9534
 -25133288.55947 -19573352.54446  21556350.6094                   21556349.1764
 -24637803.97748 -19186033.57547  20702236.9534                   20702234.9494
 -23368042.18746 -18195615.43844  23320380.0554                   23320379.5354
 -10492879.55147  -8160420.82645  22337096.6804                   22337095.8244
 -30882696.01648 -24052061.94846  20935643.7424                   20935639.6334
 -10799729.80547  -8399407.71145  22576116.9064                   22576118.1294
 11  8 21  1  7  0.0000000  0  9G12G29G17G10G05G04G30G02G25
 -25452238.93448 -19821025.18146  20831565.1094                   20831563.5274
   4558951.06357   3565498.53154  24703354.7974                   24703355.0124
 -25562776.42646 -19906784.57543  24414711.6174                   24414711.1644
 -25105775.87947 -19551914.10545  21561586.0084                   21561584.2854
 -24716789.85548 -19247580.97247  20687206.3364                   20687204.8634
 -23318925.73446 -18157342.94144  23329726.4224                   23329726.1724
 -10586171.23847  -8233115.55045  22319343.9384                   22319342.7274
 -30892593.05148 -24059773.91146  20933760.4064                   20933756.3794
 -10902000.32047  -8479098.97145  22556655.3204                   22556656.6134
 11  8 21  1  7 30.0000000  0  9G12G29G17G10G05G04G30G02G25
 -25493116.28947 -19852877.66146  20823787.0164                   20823784.7464
   4446588.57847   3477943.49744  24681972.3204                   24681973.3244
 -25525582.99246 -19877802.60643  24421789.2274                   24421789.1334
 -25077760.69547 -19530084.09945  21566917.2664                   21566915.6374
 -24795251.02748 -19308719.50247  20672275.5554                   20672273.6374
 -23269836.23046 -18119091.38844  23339068.1644                   23339067.3794
 -10678961.23847  -8305419.39045  22301686.5474                   22301685.3754
 -30902332.39847 -24067363.01146  20931907.1094                   20931903.1094
 -11003851.24247  -8558463.25245  22537273.6094                   22537274.2304
 11  8 21  1  8  0.0000000  0  9G12G29G17G10G05G04G30G02G25
 -25533424.66047 -19884286.76446  20816116.5164                   20816113.9454
   4334136.16047   3390318.33644  24660573.6094                   24660574.0824
 -25488212.36746 -19848682.56243  24428900.4454                   24428900.5084
 -25049245.19947 -19507864.23945  21572343.4844                   21572341.7734
 -24873186.39548 -19369448.32047  20657444.8914                   20657443.2704
 -23220774.57846 -18080861.55344  23348404.3364                   23348403.7304
 -10771247.73047  -8377330.87745  22284125.1724                   22284123.5004
 -30911914.98047 -24074829.95846  20930083.4614                   20930079.8594
 -11105280.39147  -8637498.91245  22517972.1484                   22517973.2074
 11  8 21  1  8 30.0000000  0  9G12G29G17G10G05G04G30G02G25
 -25573160.74248 -19915249.92546  20808554.6954                   20808552.2664
   4221596.90647   3302625.62344  24639157.7814                   24639158.9494
 -25450662.14546 -19819422.57543  24436046.3674                   24436046.3134
 -25020228.94947 -19485254.19845  21577865.0704                   21577863.6724
 -24950591.64548 -19429764.04347  20642715.2734                   20642713.4884
 -23171739.28146 -18042652.23444  23357735.0314                   23357734.9734
 -10863026.01247  -8448846.34845  22266660.2584                   22266658.6684
 -30921339.49648 -24082173.73146  20928290.1414                   20928286.2114
 -11206282.77747  -8716202.01145  22498751.9534                   22498753.1484
 11  8 21  1  9  0.0000000  0  9G12G29G17G10G05G04G30G02G25
 -25612320.91047 -19945764.33046  20801102.3594                   20801100.1954
   4108973.94147   3214867.70544  24617726.7584                   24617727.2114
 -25412929.72746 -19790020.67543  24443227.4454                   24443226.0164
 -24990711.60247 -19462253.67145  21583482.2114                   21583480.4614
 -25027462.79348 -19489663.60647  20628086.9924                   20628085.4024
 -23122728.43746 -18004461.96244  23367061.3594                   23367061.4774
 -10954291.38747  -8519962.16045  22249292.5704                   22249291.0314
 -30930604.30548 -24089393.05646  20926526.9384                   20926523.2304
 -11306853.42247  -8794568.66945  22479613.8674                   22479614.5944
 11  8 21  1  9 30.0000000  0  9G12G29G17G10G05G04G30G02G25
 -25650901.07848 -19975826.78346  20793761.1724                   20793758.8754
   3996272.28547   3127048.44344  24596279.7344                   24596279.8364
 -25375010.70746 -19760473.29443  24450442.2034                   24450441.7934
 -24960691.45347 -19438861.36645  21589194.6484                   21589193.3484
 -25103794.27748 -19549142.64747  20613561.8284                   20613559.8524
 -23073738.71546 -17966288.14844  23376384.4064                   23376383.4964
 -11045037.45747  -8590673.33945  22232024.4064                   22232023.3984
 -30939706.04747 -24096485.31046  20924795.0164                   20924790.9494
 -11406985.72347  -8872593.78845  22460559.2424                   22460559.9414
 11  8 21  1 10  0.0000000  0  9G12G29G17G10G05G04G30G02G25
 -25688900.08247 -20005436.37346  20786530.0944                   20786527.7274
   3883493.14146   3039168.80644  24574818.0944                   24574819.3674
 -25336904.71546 -19730780.21543  24457693.6094                   24457693.2344
 -24930170.10247 -19415078.49345  21595002.9304                   21595001.2974
 -25179584.01248 -19608199.52447  20599139.3984                   20599137.6604
 -23024770.51246 -17928131.09444  23385701.8134                   23385702.1524
 -11135261.66847  -8660977.88945  22214855.2504                   22214854.7074
 -30948644.95347 -24103450.68446  20923094.2974                   20923090.0864
 -11506676.71947  -8950275.03345  22441588.8284                   22441589.8594
 11  8 21  1 10 30.0000000  0  9G12G29G17G10G05G04G30G02G25
 -25726321.18448 -20034595.64646  20779408.9064                   20779407.0554
   3770633.57446   2951226.52944  24553342.0084                   24553342.3714
 -25298615.00446 -19700944.02843  24464980.0394                   24464979.3364
 -24899153.34848 -19390909.60845  21600905.1954                   21600903.3284
 -25254833.99248 -19666835.83347  20584819.7894                   20584817.7034
 -22975828.19546 -17889994.23543  23395015.9384                   23395015.3714
 -11224965.58647  -8730876.99845  22197785.5164                   22197783.6994
 -30957425.71948 -24110292.83346  20921423.2584                   20921419.3754
 -11605927.74247  -9027613.45845  22422701.7114                   22422702.6294
 11  8 21  1 11  0.0000000  0  9G12G29G17G10G05G04G30G02G25
 -25763161.68748 -20063302.50846  20772398.6484                   20772396.6024
   3657696.32446   2863223.68443  24531850.2504                   24531850.6374
 -25260139.66447 -19670963.15243  24472302.0314                   24472301.2814
 -24867641.53947 -19366354.96945  21606901.6024                   21606899.7034
 -25329541.21148 -19725049.20147  20570603.2114                   20570601.6454
 -22926910.51647 -17851876.51644  23404323.9304                   23404324.3054
 -11314145.10547  -8800367.50445  22180814.6954                   22180813.6844
 -30966046.96548 -24117010.66646  20919782.4694                   20919778.6214
 -11704734.26247  -9104605.51545  22403900.1254                   22403900.5274
 11  8 21  1 11 30.0000000  0  9G12G29G17G10G05G04G30G02G25
 -25799419.27348 -20091555.12846  20765499.0314                   20765496.7704
   3544684.00046   2775162.32343  24510344.8984                   24510345.3164
 -25221476.61747 -19640835.99844  24479658.8524                   24479658.2894
 -24835635.00847 -19341414.80845  21612992.3984                   21612990.4774
 -25403702.14548 -19782836.88847  20556491.0784                   20556489.0434
 -22878016.10547 -17813777.00744  23413628.9924                   23413628.3094
 -11402796.12947  -8869446.19145  22163944.6174                   22163943.9844
 -30974507.92248 -24123603.61546  20918172.6484                   20918168.6884
 -11803091.94147  -9181247.81645  22385182.8444                   22385183.5784
 11  8 21  1 12  0.0000000  0  9G12G29G17G10G05G04G30G02G25
 -25835090.88748 -20119351.15646  20758711.2584                   20758708.6214
   3431600.37946   2687045.42143  24488825.3134                   24488825.4804
 -25182622.77747 -19610560.17944  24487052.1094                   24487052.1024
 -24803133.05947 -19316088.61545  21619177.1484                   21619175.5944
 -25477312.39148 -19840195.47047  20542483.3754                   20542481.5984
 -22829142.80547 -17775693.90744  23422929.2974                   23422928.6374
 -11490913.83247  -8938109.29945  22147176.8914                   22147175.6724
 -30982806.52048 -24130070.04446  20916593.4534                   20916589.2274
 -11900995.60247  -9257536.35245  22366552.4774                   22366553.1174
 11  8 21  1 12 30.0000000  0  9G12G29G17G10G05G04G30G02G25
 -25870176.52048 -20146690.58547  20752034.2034                   20752031.7424
   3318445.53546   2598872.87643  24467293.1334                   24467291.6994
 -25143578.46547 -19580135.94444  24494482.2974                   24494481.5124
 -24770138.32447 -19290378.43445  21625455.8754                   21625453.9414
 -25550371.26648 -19897124.41347  20528580.7814                   20528578.5514
 -22780291.93747 -17737628.30744  23432224.9534                   23432224.8284
 -11578496.58247  -9006355.59245  22130510.5394                   22130509.1804
 -30990944.14848 -24136411.04646  20915044.6094                   20915040.5434
 -11998443.31247  -9333469.61245  22348008.6484                   22348009.2544
 11  8 21  1 13  0.0000000  0  8G12G29G10G05G04G30G02G25
 -25904678.04348 -20173574.84546  20745468.7664                   20745466.4774
   3205218.26646   2510643.85443  24445746.0004                   24445746.3754
 -24736655.48047 -19264287.90245  21631827.6414                   21631825.9534
 -25622879.61348 -19953624.35747  20514782.6954                   20514780.9264
 -22731466.48447 -17699582.47244  23441516.2664                   23441515.4884
 -11665544.70747  -9074185.25245  22113945.6334                   22113945.0044
 -30998923.91848 -24142629.02846  20913526.3594                   20913521.9694
 -12095435.01247  -9409047.52545  22329551.8284                   22329551.7304
 11  8 21  1 13 30.0000000  0  8G12G29G10G05G04G30G02G25
 -25938596.40648 -20200004.69446  20739014.3834                   20739012.1484
   3091917.92246   2422357.94943  24424184.7114                   24424186.0704
 -24702687.85547 -19237819.62845  21638291.4224                   21638289.6214
 -25694837.61748 -20009695.47747  20501089.5784                   20501087.6214
 -22682668.41047 -17661558.00944  23450802.0704                   23450802.2624
 -11752057.39147  -9141597.69945  22097482.4454                   22097481.6024
 -31006747.84448 -24148725.58646  20912037.2194                   20912033.1994
 -12191969.58647  -9484269.24245  22311181.7194                   22311182.6644
 11  8 21  1 14  0.0000000  0  8G12G29G10G05G04G30G02G25
 -25971922.01648 -20225972.65946  20732672.6024                   20732670.1484
   2978554.53546   2334022.92643  24402613.2424                   24402613.2894
 -24668228.78147 -19210968.41545  21644848.6414                   21644847.0944
 -25766234.60548 -20065329.44147  20487503.0234                   20487501.3054
 -22633889.07847 -17623548.14744  23460084.9924                   23460084.2034
 -11838023.45347  -9208584.21945  22081124.0084                   22081122.9654
 -31014407.50848 -24154694.14146  20910579.7034                   20910575.8284
 -12288035.55547  -9559125.80046  22292901.1334                   22292902.0044
 11  8 21  1 14 30.0000000  0  8G12G29G10G05G04G30G02G25
 -26004650.38748 -20251475.24546  20726444.8364                   20726442.1764
   2865133.28546   2245642.67443  24381030.2424                   24381030.6214
 -24633276.49247 -19183732.84045  21651499.7344                   21651498.4144
 -25837064.91048 -20120521.83147  20474024.6254                   20474022.4844
 -22585125.04746 -17585550.21244  23469364.7584                   23469363.3914
 -11923436.69947  -9275139.93345  22064870.1564                   22064868.9384
 -31021899.72348 -24160532.22146  20909154.0554                   20909149.7344
 -12383626.23447  -9633612.00945  22274711.0004                   22274711.7234
 11  8 21  1 15  0.0000000  0  8G12G29G10G05G04G30G02G25
 -26036788.18048 -20276517.64846  20720329.1644                   20720326.5514
   2751648.09846   2157212.65943  24359434.3594                   24359434.5704
 -24597840.02747 -19156120.02345  21658243.1094                   21658241.3754
 -25907333.90248 -20175276.83747  20460652.6644                   20460650.7384
 -22536383.46146 -17547569.75944  23478639.4384                   23478638.5354
 -12008302.00447  -9341268.71345  22048720.6804                   22048719.1954
 -31029232.12548 -24166245.77246  20907758.5234                   20907754.6724
 -12478746.21548  -9707731.44746  22256610.2584                   22256610.9534
 11  8 21  1 15 30.0000000  0  8G12G29G10G05G04G30G02G25
 -26068337.86748 -20301101.79146  20714325.3284                   20714323.0784
   2638097.01646   2068731.16143  24337826.3984                   24337825.8954
 -24561924.48848 -19128133.86545  21665077.7114                   21665075.7544
 -25977044.02348 -20229596.36547  20447387.4144                   20447385.3754
 -22487668.37947 -17509610.00044  23487909.8754                   23487909.0164
 -12092620.35247  -9406971.29145  22032676.0084                   22032674.6024
 -31036408.17648 -24171837.48446  20906393.1804                   20906389.1094
 -12573396.05547  -9781484.52245  22238598.6804                   22238599.6644
 11  8 21  1 16  0.0000000  0  8G12G29G10G05G04G30G02G25
 -26099298.66048 -20325227.04546  20708433.6414                   20708431.3834
   2524481.75446   1980199.75044  24316206.6254                   24316206.2854
 -24525531.48447 -19099775.68245  21672002.6644                   21672001.3634
 -26046192.82848 -20283478.49847  20434228.7814                   20434226.6214
 -22438979.29347 -17471670.47944  23497175.4614                   23497174.7814
 -12176389.16047  -9472245.64045  22016735.0474                   22016734.1484
 -31043428.09448 -24177307.53846  20905057.2734                   20905053.0124
 -12667572.73447  -9854868.90345  22220677.6564                   22220678.0744
 11  8 21  1 16 30.0000000  0  8G12G29G10G05G04G30G02G25
 -26129675.68748 -20348897.42346  20702653.1484                   20702650.7584
   2410797.57846   1891614.64544  24294572.7894                   24294573.5864
 -24488668.93048 -19071051.60745  21679017.9534                   21679016.1914
 -26114784.62548 -20336926.59647  20421176.3134                   20421174.0864
 -22390322.57047 -17433756.16944  23506433.9924                   23506433.5594
 -12259612.02747  -9537094.59645  22000898.3134                   22000896.9774
 -31050298.24248 -24182660.88546  20903749.9454                   20903746.1334
 -12761279.60247  -9927887.19046  22202845.4614                   22202846.3984
 11  8 21  1 17  0.0000000  0  8G12G29G10G05G04G30G02G25
 -26159467.02748 -20372111.43647  20696983.6564                   20696981.6414
   2297047.39846   1802978.09444  24272927.0314                   24272927.0164
 -24451337.20347 -19041961.92645  21686121.6484                   21686119.8484
 -26182816.41047 -20389938.33147  20408229.8674                   20408227.9654
 -22341696.47347 -17395865.72843  23515686.8444                   23515687.2934
 -12342284.96947  -9601515.04045  21985165.6564                   21985164.8594
 -31057017.37547 -24187896.56046  20902471.2504                   20902467.2934
 -12854512.18048 -10000535.91745  22185103.6884                   22185104.5634
 11  8 21  1 17 30.0000000  0  8G12G29G10G05G04G30G02G25
 -26188674.14148 -20394870.21046  20691426.1884                   20691423.5084
   2183230.58246   1714289.76044  24251268.2194                   24251269.3164
 -24413540.30148 -19012509.75345  21693313.9534                   21693311.9264
 -26250288.50847 -20442513.95247  20395390.2504                   20395388.3914
 -22293103.50447 -17358001.11044  23524933.9144                   23524933.4884
 -12424407.81647  -9665506.84945  21969538.4454                   21969537.2114
 -31063587.98847 -24193016.50946  20901221.0864                   20901216.6414
 -12947269.96148 -10072814.68445  22167452.6254                   22167453.2894
 11  8 21  1 18  0.0000000  0  8G12G29G10G05G04G30G02G25
 -26217297.63348 -20417174.20346  20685979.2114                   20685976.7074
   2069347.21547   1625549.56444  24229597.2274                   24229597.3954
 -24375281.41848 -18982697.64045  21700594.5004                   21700592.8754
 -26317200.51648 -20494653.13447  20382657.7034                   20382655.1024
 -22244544.94947 -17320163.30944  23534174.5944                   23534174.0394
 -12505979.57447  -9729069.22945  21954016.0084                   21954014.9384
 -31070011.51648 -24198021.84946  20899998.8754                   20899994.6454
 -13039551.51247 -10144722.34246  22149891.9384                   22149892.3284
 11  8 21  1 18 30.0000000  0  8G12G29G10G05G04G30G02G25
 -26245341.25048 -20439026.36146  20680642.7814                   20680640.2154
   1955394.30547   1536755.19544  24207912.2504                   24207913.1724
 -24336566.97747 -18952530.53645  21707961.3594                   21707960.1724
 -26383555.54348 -20546358.30947  20370030.4924                   20370028.5594
 -22196025.41447 -17282355.91344  23543407.6414                   23543406.9924
 -12587002.34048  -9792203.85345  21938597.4534                   21938596.3634
 -31076292.72748 -24202916.29146  20898803.4224                   20898799.1334
 -13131358.61347 -10216260.30345  22132421.3054                   22132422.7154
 11  8 21  1 19  0.0000000  0  8G12G29G10G05G04G30G02G25
 -26272803.87548 -20460425.80246  20675416.7664                   20675413.9804
   1841373.86747   1447908.27344  24186214.7664                   24186215.3674
 -24297398.30147 -18922009.48545  21715414.9694                   21715413.1604
 -26449351.13348 -20597627.55347  20357510.2584                   20357507.7894
 -22147544.44946 -17244578.57644  23552633.0164                   23552632.3134
 -12667473.13747  -9854908.35945  21923284.5474                   21923283.2934
 -31082431.05548 -24207699.40146  20897635.1884                   20897631.0664
 -13222687.76647 -10287425.84546  22115042.3754                   22115042.6844
 11  8 21  1 19 30.0000000  0  8G12G29G10G05G04G30G02G25
 -26299682.79748 -20481370.41646  20670301.8054                   20670299.3244
   1727289.45746   1359011.48344  24164505.3364                   24164506.0314
 -24257775.04347 -18891134.21845  21722955.3914                   21722953.5004
 -26514583.68048 -20648458.06747  20345096.6414                   20345094.5824
 -22099099.43047 -17206829.21343  23561852.0944                   23561851.0234
 -12747387.58247  -9917179.33445  21908077.2974                   21908075.6334
 -31088424.77748 -24212369.83246  20896494.7424                   20896490.5474
 -13313534.18747 -10358215.24345  22097754.8984                   22097755.3134
 11  8 21  1 20  0.0000000  0  8G12G29G10G05G04G30G02G25
 -26325977.35248 -20501859.67546  20665298.2114                   20665295.9454
   1613142.87146   1270066.26244  24142782.8914                   24142784.2114
 -24217698.93047 -18859906.10745  21730581.5084                   21730580.0474
 -26579251.28148 -20698848.37447  20332790.8284                   20332788.7894
 -22050690.50047 -17169108.00544  23571063.9774                   23571063.7424
 -12826743.17647  -9979014.86745  21892976.6724                   21892974.6724
 -31094273.85248 -24216927.53546  20895381.9064                   20895377.6804
 -13403894.94948 -10428626.20946  22080559.5314                   22080560.6684
 11  8 21  1 20 30.0000000  0  8G12G29G10G05G04G30G02G25
 -26351693.87948 -20521898.52846  20660404.0164                   20660401.8794
   1498928.10546   1181067.90144  24121050.0004                   24121049.1374
 -24177179.35947 -18828332.42745  21738292.4454                   21738290.5434
 -26643359.93447 -20748803.13047  20320591.3914                   20320589.2274
 -22002324.91047 -17131420.56043  23580267.8054                   23580267.1174
 -12905545.00047 -10040418.85845  21877981.1804                   21877979.8164
 -31099985.94948 -24221378.52146  20894294.6024                   20894290.4454
 -13493774.77048 -10498662.41345  22063455.9614                   22063456.9064
 11  8 21  1 21  0.0000000  0  8G12G29G10G05G04G30G02G25
 -26376826.20748 -20541482.17346  20655622.0234                   20655619.1644
   1384653.19546   1092022.73044  24099303.5474                   24099303.9264
 -24136211.41847 -18796409.34545  21746088.4064                   21746086.3054
 -26706901.54347 -20798316.04647  20308499.7504                   20308497.5744
 -21953996.30147 -17093761.90843  23589464.5634                   23589463.9614
 -12983784.28547 -10101384.53545  21863092.6804                   21863091.3834
 -31105554.57048 -24225717.70246  20893235.0864                   20893231.1294
 -13583164.39548 -10568316.64045  22046445.6484                   22046446.2974
 11  8 21  1 21 30.0000000  0  8G12G29G10G05G04G30G02G25
 -26401374.39548 -20560610.64046  20650950.5084                   20650948.1454
   1270318.57446   1002930.91844  24077546.0944                   24077545.8834
 -24094798.27747 -18764139.37545  21753968.8284                   21753967.1524
 -26769875.41448 -20847386.55947  20296516.2344                   20296513.9224
 -21905705.55947 -17056132.77043  23598653.4924                   23598653.5744
 -13061459.92247 -10161910.94445  21848311.2894                   21848309.8134
 -31110981.10948 -24229946.15546  20892202.3984                   20892198.1804
 -13672062.23048 -10637587.63846  22029529.4144                   22029529.9774
 11  8 21  1 22  0.0000000  0  8G12G29G10G05G04G30G02G25
 -26425338.77048 -20579284.18146  20646390.2034                   20646387.7544
   1155924.97346    913793.18343  24055777.6254                   24055777.4304
 -24052942.98047 -18731524.86745  21761933.2814                   21761932.1684
 -26832281.84848 -20896014.91347  20284640.4064                   20284638.4654
 -21857453.62547 -17018533.85843  23607835.4774                   23607835.0864
 -13138570.78547 -10221997.29645  21833638.0084                   21833636.1214
 -31116266.69148 -24234064.79446  20891196.5394                   20891192.3714
 -13760466.69148 -10706474.19346  22012706.2814                   22012706.8674
 11  8 21  1 22 30.0000000  0  8G12G29G10G05G04G30G02G25
 -26448724.47748 -20597506.82646  20641939.9694                   20641937.4414
   1041468.89146    824606.75343  24033997.2734                   24033996.4344
 -24010652.60547 -18698571.32545  21769981.5634                   21769979.6024
 -26894123.90648 -20944203.48947  20272872.4774                   20272870.0944
 -21809245.58647 -16980969.13443  23617009.0634                   23617008.9694
 -13215119.53947 -10281645.62745  21819070.9224                   21819069.2344
 -31121416.59448 -24238077.69946  20890216.7664                   20890212.6174
 -13848380.02348 -10774978.07046  21995977.1884                   21995977.4534
 11  8 21  1 23  0.0000000  0  8G12G29G10G05G04G30G02G25
 -26471527.26248 -20615275.22946  20637600.7734                   20637598.3404
    926955.21146    735375.40944  24012206.1024                   24012206.1804
 -23967924.99647 -18665277.08145  21778111.8754                   21778109.9964
 -26955396.44548 -20991948.29647  20261212.6024                   20261210.3714
 -21761077.43746 -16943435.50943  23626175.2664                   23626175.2114
 -13291100.35247 -10340851.38445  21804612.5474                   21804610.7424
 -31126427.71148 -24241982.45146  20889262.7974                   20889258.7774
 -13935795.94948 -10843094.31446  21979342.2894                   21979342.5784
 11  8 21  1 23 30.0000000  0  8G12G29G10G05G04G30G02G25
 -26493750.09848 -20632591.72446  20633372.1094                   20633369.6724
    812382.18046    646097.83543  23990403.5554                   23990402.9574
 -23924765.83647 -18631646.55445  21786324.7584                   21786322.8954
 -27016101.88748 -21039251.20047  20249660.7274                   20249658.5394
 -21712952.95747 -16905935.91143  23635333.4924                   23635332.9224
 -13366514.88747 -10399615.88545  21790261.4534                   21790259.9104
 -31131303.31648 -24245781.60846  20888335.2114                   20888331.0944
 -14022715.53148 -10910823.80346  21962801.8204                   21962802.7624
 11  8 21  1 24  0.0000000  0  8G12G29G10G05G04G30G02G25
 -26515390.36748 -20649454.27646  20629254.1564                   20629251.5434
    697753.87146    556777.14144  23968590.3284                   23968590.0744
 -23881174.62947 -18597679.36645  21794619.8594                   21794618.6804
 -27076236.03948 -21086108.93847  20238217.5944                   20238215.3244
 -21664869.38747 -16868468.21243  23644483.3754                   23644482.8874
 -13441358.30147 -10457935.36545  21776019.2814                   21776017.6454
 -31136040.92248 -24249473.22946  20887433.6804                   20887429.7504
 -14109133.58248 -10978162.49846  21946357.2734                   21946357.3284
 11  8 21  1 24 30.0000000  0  8G12G29G10G05G04G30G02G25
 -24961028.31248 -19438263.05646  20925039.1254                   20925036.9804
   2158494.48446   1695016.67244  24246559.6724                   24246560.0904
 -22261735.97347 -17335779.10845  22102789.1334                   22102787.5904
 -25560376.97348 -19904920.02647  20526675.9614                   20526673.7154
 -20041409.77347 -15603434.75443  23953417.5634                   23953417.4494
 -11940207.56647  -9288207.45345  22061678.7344                   22061676.6914
 -29565221.85948 -23025458.35846  21186350.6954                   21186346.1414
 -12619626.06648  -9817507.23046  22229801.0784                   22229801.3594
 11  8 21  1 25  0.0000000  0  8G12G29G10G05G04G30G02G25
 -24981504.13748 -19454218.24746  20921142.7894                   20921140.4384
   2043758.34446   1605611.99044  24224726.5394                   24224725.7034
 -22217288.53147 -17301144.74245  22111246.9304                   22111245.1564
 -25619366.75048 -19950886.05147  20515450.4534                   20515448.1914
 -19993409.89546 -15566032.17643  23962551.3834                   23962551.1914
 -12013904.72748  -9345633.73945  22047654.5784                   22047652.9064
 -29569686.21148 -23028937.06646  21185500.9454                   21185496.9734
 -12705035.43048  -9884059.90846  22213548.2814                   22213548.3444
 11  8 21  1 25 30.0000000  0  8G12G29G10G05G04G30G02G25
 -25001395.68448 -19469718.14446  20917357.4534                   20917354.7774
   1928973.00046   1516168.93244  24202883.2274                   24202882.5314
 -22172413.91047 -17266177.48245  22119786.1564                   22119784.6134
 -25677780.10548 -19996402.92347  20504334.5474                   20504332.4224
 -19945449.58646 -15528660.51143  23971677.6254                   23971677.4144
 -12087023.43448  -9402609.30345  22033740.3594                   22033738.8014
 -29574011.73848 -23032307.59046  21184677.7664                   21184673.7154
 -12789934.40248  -9950214.90146  22197392.2194                   22197392.6724
 11  8 21  1 26  0.0000000  0  8G12G29G10G05G04G30G02G25
 -25020709.86348 -19484768.14046  20913682.0004                   20913679.7074
   1814132.41846   1426682.83444  24181029.5234                   24181029.4694
 -22127121.70747 -17230884.83745  22128405.0634                   22128402.9614
 -25735623.97348 -20041476.02747  20493327.2034                   20493324.8404
 -19897536.35946 -15491325.50343  23980796.0004                   23980794.9804
 -12159569.53548  -9459138.68445  22019934.9534                   22019933.7154
 -29578206.71548 -23035576.38346  21183879.5634                   21183875.3754
 -12874328.32448 -10015976.32746  22181332.6954                   22181333.5664
 11  8 21  1 26 30.0000000  0  8G12G29G10G05G04G30G02G25
 -25039447.32048 -19499368.74446  20910116.5314                   20910114.2034
   1699237.06346   1337154.06244  24159166.0864                   24159166.0784
 -22081415.23847 -17195269.39745  22137102.8754                   22137100.9964
 -25792897.78948 -20086104.93547  20482428.3594                   20482426.5944
 -19849671.19946 -15454027.95743  23989903.4534                   23989903.5274
 -12231542.09448  -9515221.13245  22006239.1954                   22006238.0164
 -29582272.10248 -23038744.20846  21183105.8914                   21183101.5554
 -12958215.67248 -10081343.04446  22165369.2664                   22165369.9304
 11  8 21  1 27  0.0000000  0  8G12G29G10G05G04G30G02G25
 -25057604.60948 -19513517.27046  20906661.2974                   20906658.8484
   1584292.36346   1247586.88444  24137292.0784                   24137292.1214
 -22035292.32047 -17159329.45745  22145879.9694                   22145878.0984
 -25849596.41848 -20130285.65847  20471639.0164                   20471636.6134
 -19801849.75046 -15416764.50743  23999004.3674                   23999003.2624
 -12302934.91848  -9570851.87145  21992653.7894                   21992652.5904
 -29586204.12548 -23041808.11146  21182357.6334                   21182353.6254
 -13041589.91048 -10146309.93946  22149503.4064                   22149504.2974
 11  8 21  1 27 30.0000000  0  8G12G29G10G05G04G30G02G25
 -25075184.25448 -19527215.67246  20903316.0784                   20903313.2154
   1469296.58247   1157979.85844  24115409.8134                   24115409.0004
 -21988758.73447 -17123069.52245  22154734.5704                   22154733.2584
 -25905722.21948 -20174020.00947  20460958.6174                   20460956.5044
 -19754075.88746 -15379538.13043  24008095.3444                   24008093.8404
 -12373749.98848  -9626032.40245  21979177.5944                   21979176.5744
 -29590006.46148 -23044770.95646  21181633.9614                   21181630.0084
 -13124452.40648 -10210878.07546  22133735.5704                   22133735.9734
 11  8 21  1 28  0.0000000  0  8G12G29G10G05G04G30G02G25
 -25092184.60248 -19540462.66346  20900080.8524                   20900078.3164
   1354253.64846   1068336.08644  24093517.9384                   24093517.8054
 -21941814.14147 -17086489.32645  22163667.8054                   22163666.3134
 -25961271.64848 -20217305.24247  20450387.9384                   20450385.9924
 -19706346.79746 -15342346.63843  24017177.0474                   24017177.5594
 -12443983.01248  -9680759.40245  21965812.9694                   21965811.4224
 -29593677.10248 -23047631.18946  21180935.6804                   21180931.3754
 -13206798.27348 -10275043.63646  22118065.3284                   22118065.8984
 11  8 21  1 28 30.0000000  0  8G12G29G10G05G04G30G02G25
 -25108611.42648 -19553262.76546  20896955.1414                   20896952.4654
   1239158.93047    978651.98544  24071615.8914                   24071615.5274
 -21894466.68747 -17049595.21645  22172678.0004                   22172676.1884
 -26016249.99248 -20260145.48147  20439925.5474                   20439923.5944
 -19658668.61346 -15305194.81843  24026250.7584                   24026250.3634
 -12513638.24248  -9735036.18045  21952558.0784                   21952556.2154
 -29597222.15648 -23050393.55946  21180261.0164                   21180256.9224
 -13288631.32048 -10338809.61346  22102493.3364                   22102493.8284
 11  8 21  1 29  0.0000000  0  8G12G29G10G05G04G30G02G25
 -25124460.49648 -19565612.67946  20893938.9924                   20893936.6484
   1124018.60247    888932.33044  24049705.8134                   24049704.3134
 -21846713.99647 -17012385.32945  22181764.9384                   22181763.0984
 -26070651.64848 -20302536.34347  20429573.8914                   20429571.2504
 -19611036.96546 -15268079.22943  24035313.8754                   24035314.2854
 -12582709.46148  -9788857.89445  21939414.4224                   21939412.5474
 -29600637.44548 -23053054.83046  21179611.1564                   21179607.1884
 -13369944.77748 -10402170.72746  22087019.5554                   22087019.6884
 11  8 21  1 29 30.0000000  0  8G12G29G10G05G04G30G02G25
 -25139734.25448 -19577514.28146  20891032.8594                   20891030.0234
   1008831.96546    799176.57544  24027785.7114                   24027785.4964
 -21798560.68747 -16974863.26145  22190928.0944                   22190926.3484
 -26124477.96148 -20344478.89747  20419330.7114                   20419328.2344
 -19563454.12146 -15231001.75743  24044369.5164                   24044368.8244
 -12651197.46148  -9842225.15945  21926381.1884                   21926379.8284
 -29603925.57448 -23055617.00446  21178985.2814                   21178981.6994
 -13450738.85548 -10465127.12146  22071645.0944                   22071645.9304
 11  8 21  1 30  0.0000000  0  8G12G29G10G05G04G30G02G25
 -25154435.03148 -19588969.41946  20888235.0164                   20888232.4384
    893597.59846    709383.65944  24005856.6024                   24005857.5664
 -21750011.76647 -16937032.93345  22200167.0084                   22200164.9264
 -26177730.89548 -20385974.65047  20409197.1484                   20409194.7934
 -19515922.82046 -15193964.44543  24053414.1644                   24053413.7274
 -12719103.08248  -9895138.60845  21913459.2814                   21913458.0164
 -29607089.29348 -23058082.24246  21178383.1954                   21178379.0944
 -13531013.92248 -10527679.10346  22056369.0234                   22056370.0984
 11  8 21  1 30 30.0000000  0  8G12G29G10G05G04G30G02G25
 -25168558.36748 -19599974.59247  20885547.5084                   20885545.0904
    778321.76247    619558.38644  23983920.7274                   23983920.3874
 -21701064.87947 -16898892.49445  22209481.2274                   22209478.9494
 -26230404.57448 -20427019.05447  20399173.4144                   20399171.0664
 -19468438.17646 -15156963.39043  24062449.9224                   24062449.7774
 -12786420.03147  -9947593.37045  21900649.1094                   21900647.6374
 -29610124.27348 -23060447.16846  21177805.3054                   21177801.3594
 -13610763.07048 -10589821.28146  22041193.3444                   22041193.9694
 11  8 21  1 31  0.0000000  0  8G12G29G10G05G04G30G02G25
 -25182109.48848 -19610533.89146  20882968.8594                   20882966.5594
    663001.28146    529698.35344  23961975.7344                   23961976.2274
 -21651727.09447 -16860447.46745  22218869.4614                   22218868.0314
 -26282503.50448 -20467615.59347  20389259.2894                   20389257.1174
 -19421004.82046 -15120002.39843  24071476.5944                   24071476.0084
 -12853151.48847  -9999591.90045  21887951.1094                   21887949.2384
 -29613035.60248 -23062715.73946  21177251.5784                   21177247.6254
 -13689988.93048 -10651555.70546  22026117.1884                   22026117.8054
 11  8 21  1 31 30.0000000  0  8G12G29G10G05G04G30G02G25
 -25195088.87548 -19620647.68246  20880498.9384                   20880496.4884
    547637.64546    439804.76144  23940022.8364                   23940023.1724
 -21602000.65247 -16821699.58045  22228332.1884                   22228330.6174
 -26334026.46148 -20507763.31747  20379454.9384                   20379452.7194
 -19373622.79746 -15083081.34443  24080492.6644                   24080492.7504
 -12919295.91047 -10051132.99046  21875363.9614                   21875362.0984
 -29615823.34448 -23064888.01446  21176721.0234                   21176717.1954
 -13768689.35248 -10712880.68946  22011140.9924                   22011141.3984
 11  8 21  1 32  0.0000000  0  8G12G29G10G05G04G30G02G25
 -25207490.55948 -19630311.31946  20878138.6414                   20878136.0634
    432238.48446    349883.45144  23918063.2974                   23918062.5474
 -21551881.57447 -16782645.77445  22237869.5164                   22237868.0474
 -26384966.51648 -20547456.83547  20369761.1954                   20369758.9654
 -19326286.14146 -15046195.69043  24089500.9064                   24089500.5664
 -12984845.76248 -10102210.77745  21862889.8444                   21862888.5434
 -29618481.60548 -23066959.38046  21176215.0864                   21176211.1914
 -13846856.29348 -10773789.98346  21996266.2734                   21996266.6604
 11  8 21  1 32 30.0000000  0  8G12G29G10G05G04G30G02G25
 -25219322.79748 -19639531.22946  20875887.0474                   20875884.6804
    316797.03147    259929.23744  23896095.3284                   23896094.3404
 -21501380.68447 -16743294.43145  22247480.0394                   22247477.8054
 -26435331.40248 -20586702.17347  20360177.3834                   20360175.0044
 -19279003.08646 -15009351.79543  24098498.9304                   24098498.5514
 -13049807.83247 -10152830.54646  21850528.1724                   21850526.9734
 -29621019.42648 -23068936.89746  21175732.6174                   21175728.2734
 -13924495.91448 -10834288.36646  21981492.0084                   21981492.6454
 11  8 21  1 33  0.0000000  0  8G12G29G10G05G04G30G02G25
 -25230588.05948 -19648309.33746  20873743.2114                   20873740.8444
    201313.30947    169942.05044  23874119.3364                   23874119.6214
 -21450501.97347 -16703648.68545  22257161.5314                   22257159.7704
 -26485122.39848 -20625500.31247  20350702.3054                   20350699.8754
 -19231775.10946 -14972550.76644  24107485.2664                   24107485.9924
 -13114182.43447 -10202992.54145  21838278.1564                   21838276.5944
 -29623438.48448 -23070821.86546  21175272.0314                   21175268.0354
 -14001607.98448 -10894375.66046  21966817.8524                   21966819.2664
 11  8 21  1 33 30.0000000  0  8G12G29G10G05G04G30G02G25
 -25241285.63748 -19656645.09546  20871707.8284                   20871704.9694
     85789.81647     79923.92544  23852135.5394                   23852135.8484
 -21399246.39547 -16663709.27045  22266914.8524                   22266913.6174
 -26534337.44148 -20663849.65847  20341336.8984                   20341334.5314
 -19184601.25047 -14935791.97043  24116462.8284                   24116462.3714
 -13177967.02747 -10252694.80145  21826140.1094                   21826139.0514
 -29625737.98848 -23072613.67846  21174834.5004                   21174829.9774
 -14078189.32048 -10954049.39246  21952245.0164                   21952246.0394
 11  8 21  1 34  0.0000000  0  8G12G29G10G05G04G30G02G25
 -25251414.24648 -19664537.51646  20869780.3054                   20869777.9494
    -29770.41047    -10122.80944  23830145.1804                   23830144.7934
 -21347614.98047 -16623477.03145  22276739.7114                   22276738.8444
 -26582974.28148 -20701748.46547  20332081.5784                   20332079.7624
 -19137479.99646 -14899074.09443  24125429.0784                   24125428.6644
 -13241158.75847 -10301935.07845  21814115.5084                   21814113.7154
 -29627916.66847 -23074311.32146  21174420.0474                   21174415.4574
 -14154236.50048 -11013306.90346  21937773.5394                   21937774.2974
 11  8 21  1 34 30.0000000  0  8G12G29G10G05G04G30G02G25
 -25260970.32848 -19671983.80246  20867962.0784                   20867959.7814
   -145361.94947   -100193.97744  23808149.2194                   23808149.1454
 -21295606.17247 -16582950.70145  22286636.9144                   22286635.3524
 -26631028.56648 -20739193.32547  20322936.8754                   20322934.4654
 -19090407.30546 -14862394.07843  24134387.6024                   24134387.0944
 -13303752.30547 -10350709.25045  21802203.7034                   21802202.1214
 -29629970.85948 -23075911.97346  21174029.2974                   21174024.6294
 -14229743.61348 -11072143.56546  21923405.2894                   21923406.0984
 11  8 21  1 35  0.0000000  0  8G12G29G10G05G04G30G02G25
 -25269963.98048 -19678991.82946  20866250.3754                   20866247.8444
   -260992.64547   -190295.69244  23786145.5784                   23786144.2344
 -21243231.82047 -16542139.52145  22296603.7344                   22296602.4304
 -26678509.48048 -20776191.39847  20313901.6644                   20313899.4414
 -19043392.64146 -14825759.22343  24143333.8594                   24143333.0634
 -13365756.02347 -10399023.82945  21790405.0234                   21790403.3524
 -29631910.48848 -23077423.35346  21173659.7734                   21173655.5274
 -14304718.36348 -11130565.42046  21909137.9064                   21909138.6524
 11  8 21  1 35 30.0000000  0  8G12G29G10G05G04G30G02G25
 -25278393.17248 -19685560.02646  20864646.4144                   20864643.8054
   -376658.62947   -280424.86944  23764134.6254                   23764133.7624
 -21190491.86747 -16501043.46145  22306639.5314                   22306638.0634
 -26725413.94548 -20812740.29947  20304976.0864                   20304973.9224
 -18996433.67246 -14789167.84443  24152270.3524                   24152269.6844
 -13427166.10547 -10446875.81945  21778718.6724                   21778717.3404
 -29633733.12147 -23078843.55746  21173313.0004                   21173308.8284
 -14379156.32448 -11188568.99046  21894972.8284                   21894973.2074
 11  8 21  1 36  0.0000000  0  8G12G29G10G05G04G30G02G25
 -25286260.71548 -19691690.57246  20863149.1724                   20863146.7274
   -492360.44547   -370581.96244  23742117.0234                   23742116.8674
 -21137391.09047 -16459666.24445  22316744.5314                   22316742.9804
 -26771743.38348 -20848841.13547  20296159.8054                   20296157.5004
 -18949532.53946 -14752621.49043  24161194.5864                   24161194.3524
 -13487983.43047 -10494265.91446  21767145.5554                   21767144.5394
 -29635441.16447 -23080174.47946  21172988.0474                   21172983.8484
 -14453057.85548 -11246154.56346  21880909.9454                   21880910.2584
 11  8 21  1 36 30.0000000  0  8G12G29G10G05G04G30G02G25
 -25293565.52748 -19697382.62946  20861759.0704                   20861756.4304
   -608095.08647   -460764.63844  23720093.4144                   23720092.2894
 -21083930.07047 -16418008.33045  22326917.9384                   22326916.3054
 -26817495.60948 -20884492.18247  20287453.3284                   20287451.1644
 -18902687.31246 -14716118.70143  24170109.3834                   24170108.4924
 -13548205.13747 -10541191.89245  21755686.1334                   21755684.5824
 -29637033.45347 -23081415.19146  21172684.8984                   21172680.6524
 -14526419.43748 -11303319.39546  21866949.5084                   21866949.9184
 11  8 21  1 37  0.0000000  0  8G12G29G10G05G04G30G02G25
 -25300305.99248 -19702634.94146  20860476.6174                   20860474.0044
   -723858.41847   -550969.72944  23698064.1254                   23698064.0354
 -21030108.82447 -16376069.73045  22337159.3444                   22337158.2704
 -26862668.31648 -20919691.65447  20278857.5784                   20278855.3054
 -18855895.83646 -14679657.73743  24179012.5164                   24179013.0204
 -13607827.66847 -10587650.99046  21744340.2194                   21744339.2894
 -29638508.03147 -23082564.20246  21172404.6024                   21172400.0824
 -14599236.95748 -11360060.29346  21853092.7504                   21853093.3014
 11  8 21  1 37 30.0000000  0  8G12G29G10G05G04G30G02G25
 -25306484.03548 -19707448.99546  20859300.9844                   20859298.2424
   -839650.50847   -641197.20044  23676030.0474                   23676028.7814
 -20975931.37147 -16333853.55045  22347469.4694                   22347467.8834
 -26907262.51648 -20954440.36547  20270371.2194                   20270369.1484
 -18809159.57046 -14643239.87343  24187906.7114                   24187905.7934
 -13666851.62148 -10633643.65846  21733108.4304                   21733107.0124
 -29639866.36348 -23083622.61746  21172145.9224                   21172141.1414
 -14671510.22348 -11416377.10046  21839339.6804                   21839339.9574
 11  8 21  1 38  0.0000000  0  8G12G29G10G05G04G30G02G25
 -25312102.14848 -19711826.75346  20858231.8594                   20858229.4414
   -955471.47347   -731447.15944  23653988.9304                   23653989.1844
 -20921402.02347 -16291363.16845  22357846.0084                   22357844.1644
 -26951279.50848 -20988739.29747  20261995.2114                   20261992.8954
 -18762480.27046 -14606866.39643  24196789.8594                   24196788.8754
 -13725277.55947 -10679170.32545  21721989.8914                   21721989.0554
 -29641110.69547 -23084592.20746  21171909.3914                   21171904.8364
 -14743239.27348 -11472269.84246  21825690.0394                   21825690.2624
 11  8 21  1 38 30.0000000  0  8G12G29G10G05G04G30G02G25
 -25317159.38348 -19715767.45446  20857269.5234                   20857267.3094
  -1071318.17247   -821717.23144  23631944.7664                   23631943.1484
 -20866521.26647 -16248598.94045  22368289.8054                   22368287.5164
 -26994717.26248 -21022586.86747  20253729.4144                   20253727.1954
 -18715856.13746 -14570535.81843  24205661.7034                   24205661.0514
 -13783102.60948 -10724228.78946  21710986.7194                   21710984.6954
 -29642239.50048 -23085471.78946  21171694.3204                   21171689.7194
 -14814420.59848 -11527735.78646  21812144.5554                   21812145.0984
 11  8 21  1 39  0.0000000  0  8G12G29G10G05G04G30G02G25
 -25321654.59848 -19719270.21846  20856414.1644                   20856412.0664
  -1187187.14147   -912004.64044  23609895.2504                   23609895.4964
 -20811289.78147 -16205561.45045  22378799.7584                   22378797.7774
 -27037573.71148 -21055981.48547  20245574.0784                   20245571.8754
 -18669285.40246 -14534247.02443  24214523.8444                   24214523.3484
 -13840323.93048 -10768816.78745  21700097.4614                   21700096.2154
 -29643251.21548 -23086260.12446  21171501.9384                   21171497.6954
 -14885050.66848 -11582772.17846  21798704.1884                   21798704.2894
 11  8 21  1 39 30.0000000  0  9G12G29G26G10G05G04G30G02G25
 -25325590.68748 -19722337.30246  20855665.0234                   20855662.8014
  -1303078.89147  -1002309.78944  23587842.1484                   23587840.5354
   6116115.37955   4780219.53152  24779146.8444                   24779147.8134
 -20755712.20347 -16162254.24344  22389375.7974                   22389374.2814
 -27079851.04348 -21088924.83447  20237528.7274                   20237526.4304
 -18622770.07446 -14498001.29043  24223375.2664                   24223374.9224
 -13896942.84847 -10812935.36945  21689323.4534                   21689322.0784
 -29644148.48848 -23086959.28546  21171331.3204                   21171326.8634
 -14955130.18448 -11637379.55246  21785368.4384                   21785369.2544
 11  8 21  1 40  0.0000000  0  9G12G29G26G10G05G04G30G02G25
 -25328981.78548 -19724979.72046  20855019.8984                   20855017.5664
  -1419005.00047  -1092641.72644  23565781.4614                   23565781.0594
   5991496.61345   4683114.17242  24755433.5394                   24755433.4734
 -20699804.53947 -16118689.85345  22400014.5084                   22400012.1954
 -27121561.66448 -21121426.59947  20229591.6484                   20229589.2854
 -18576323.43046 -14461809.16843  24232213.6414                   24232213.9414
 -13952971.52348 -10856594.03346  21678661.5164                   21678660.0474
 -29644944.38348 -23087579.46446  21171179.5164                   21171175.2504
 -15024670.57448 -11691566.85546  21772135.1644                   21772135.5634
 11  8 21  1 40 30.0000000  0  9G12G29G26G10G05G04G30G02G25
 -25331824.59447 -19727194.90346  20854478.9224                   20854476.5124
  -1534960.05147  -1182996.20944  23543716.4844                   23543715.2194
   5866736.84446   4585898.96142  24731691.5634                   24731692.9804
 -20643564.95747 -16074866.80545  22410716.8284                   22410714.7814
 -27162701.53548 -21153483.61847  20221762.9534                   20221760.6254
 -18529941.14146 -14425667.08443  24241040.5234                   24241040.3674
 -14008404.95348 -10899788.85046  21668112.9614                   21668111.4384
 -29645635.54347 -23088118.02346  21171047.9144                   21171043.8134
 -15093666.20348 -11745329.64246  21759006.2424                   21759006.4694
 11  8 21  1 41  0.0000000  0  9G12G29G26G10G05G04G30G02G25
 -25334120.32448 -19728983.78046  20854041.7734                   20854039.4694
  -1650942.84047  -1273372.33644  23521645.4694                   23521644.3954
   5741839.04346   4488576.10542  24707925.5554                   24707925.1644
 -20586996.35247 -16030787.40545  22421481.9384                   22421479.7034
 -27203270.88748 -21185096.07847  20214042.7894                   20214040.5004
 -18483623.80946 -14389575.62943  24249854.5864                   24249853.5554
 -14063242.59048 -10942519.42446  21657677.7274                   21657675.8914
 -29646222.37948 -23088575.29746  21170936.4844                   21170932.0044
 -15162115.91048 -11798667.02546  21745980.2114                   21745980.5274
 11  8 21  1 41 30.0000000  0  9G12G29G26G10G05G04G30G02G25
 -25335870.20347 -19730347.31846  20853709.2114                   20853705.9494
  -1766951.89847  -1363768.94444  23499569.5784                   23499568.2814
   5616805.85246   4391147.81943  24684131.5474                   24684133.0204
 -20530101.57047 -15986453.84145  22432307.6334                   22432306.5434
 -27243269.80548 -21216264.04747  20206431.0394                   20206428.9774
 -18437371.59847 -14353534.97143  24258656.2734                   24258655.0664
 -14117483.97348 -10984785.37946  21647355.7034                   21647354.0274
 -29646705.36348 -23088951.63446  21170844.5084                   21170840.1684
 -15230018.51248 -11851578.10146  21733058.9384                   21733059.4844
 11  8 21  1 42  0.0000000  0  9G12G29G26G10G05G04G30G02G25
 -25337072.96148 -19731284.54546  20853480.1724                   20853477.6524
  -1882983.44947  -1454183.08144  23477489.2734                   23477489.1564
   5491643.05546   4293618.55743  24660314.0234                   24660314.3244
 -20472881.00447 -15941866.39745  22443197.0944                   22443195.1334
 -27282696.00048 -21246985.74147  20198928.5784                   20198926.4694
 -18391182.15647 -14317543.16343  24267445.5554                   24267444.8954
 -14171125.93048 -11026584.28445  21637147.8054                   21637146.2704
 -29647082.69148 -23089245.64546  21170772.5004                   21170768.5084
 -15297370.18048 -11904059.87446  21720242.4064                   21720242.6294
 11  8 21  1 42 30.0000000  0  9G12G29G26G10G05G04G30G02G25
 -25337724.54348 -19731792.26346  20853355.8524                   20853353.6684
  -1999030.99247  -1544609.67144  23455405.9844                   23455405.0084
   5366358.68446   4195994.48143  24636472.1954                   24636474.1334
 -20415332.31647 -15897023.26044  22454147.7034                   22454146.0904
 -27321544.71148 -21277257.44047  20191535.8284                   20191533.8284
 -18345050.69147 -14281596.59644  24276223.7894                   24276224.2704
 -14224162.89548 -11067911.74445  21627054.9774                   21627053.5634
 -29647349.74248 -23089453.72246  21170722.1174                   21170717.5204
 -15364164.63348 -11956107.46746  21707531.7974                   21707531.6644
 11  8 21  1 43  0.0000000  0  9G12G29G26G10G05G04G30G02G25
 -25337825.81248 -19731871.16446  20853336.6254                   20853334.4734
  -2115092.81247  -1635047.39844  23433320.0634                   23433320.2814
   5240955.83246   4098278.13743  24612609.1644                   24612609.9264
 -20357457.94147 -15851926.34844  22465161.3834                   22465159.4924
 -27359815.78948 -21307079.04047  20184253.1954                   20184251.0314
 -18298976.82047 -14245694.82644  24284991.5554                   24284991.2034
 -14276593.96148 -11108767.09846  21617078.0864                   21617076.2234
 -29647506.70348 -23089576.03746  21170691.8284                   21170687.4774
 -15430400.35248 -12007719.66046  21694927.4384                   21694927.5904
 11  8 21  1 43 30.0000000  0  9G12G29G26G10G05G04G30G02G25
 -25337385.01248 -19731527.68346  20853420.4064                   20853418.0234
  -2231174.43447  -1725500.54744  23411231.0554                   23411229.6884
   5115430.86346   4000466.63543  24588723.1254                   24588723.0204
 -20299267.17646 -15806582.91144  22476234.1174                   22476233.0474
 -27397515.98048 -21336455.79447  20177079.1024                   20177076.9064
 -18252967.69147 -14209843.59844  24293747.2274                   24293746.5594
 -14328425.45748 -11149155.26145  21607214.7034                   21607213.0554
 -29647560.81648 -23089618.19546  21170681.2584                   21170676.9924
 -15496082.89148 -12058900.82446  21682428.2194                   21682428.6844
 11  8 21  1 44  0.0000000  0  9G12G29G26G10G05G04G30G02G25
 -25336396.34048 -19730757.27446  20853609.0004                   20853606.5234
  -2347267.64547  -1815962.75244  23389138.8594                   23389137.9654
   4989793.68046   3902567.71144  24564814.5394                   24564815.6644
 -20240756.04347 -15760989.85544  22487368.6724                   22487367.2304
 -27434638.63748 -21365382.51547  20170014.8054                   20170012.6884
 -18207016.60547 -14174037.50544  24302491.0864                   24302490.0314
 -14379649.98848 -11189070.47846  21597466.9064                   21597465.2194
 -29647505.68448 -23089575.23346  21170691.8984                   21170687.8634
 -15561204.21948 -12109644.68346  21670036.1174                   21670036.3794
 11  8 21  1 44 30.0000000  0  9G12G29G26G10G05G04G30G02G25
 -25334861.60548 -19729561.37546  20853900.7034                   20853898.1684
  -2463370.95747  -1906432.78145  23367045.2814                   23367044.1644
   4864046.95746   3804583.40044  24540886.3594                   24540886.4804
 -20181927.69947 -15715149.63744  22498563.3054                   22498561.9534
 -27471184.77048 -21393859.99847  20163060.6484                   20163058.1844
 -18161123.98047 -14138277.01543  24311223.9844                   24311223.5514
 -14430267.41848 -11228512.62246  21587835.0784                   21587833.0744
 -29647342.20748 -23089447.82046  21170723.3674                   21170718.7154
 -15625763.52348 -12159950.60346  21657750.7974                   21657750.8244
 11  8 21  1 45  0.0000000  0  9G12G29G26G10G05G04G30G02G25
 -25332786.48047 -19727944.38846  20854295.8984                   20854293.0784
  -2579487.91447  -1996913.44544  23344948.7974                   23344947.7074
   4738189.19147   3706512.50444  24516936.0394                   24516936.4844
 -20122789.54747 -15669067.95244  22509817.0474                   22509815.0984
 -27507159.03948 -21421891.86947  20156214.6094                   20156212.7704
 -18115294.44146 -14102565.69343  24319944.5394                   24319945.1804
 -14480281.96948 -11267484.99145  21578317.3524                   21578315.9734
 -29647075.28547 -23089239.81846  21170773.9694                   21170769.7664
 -15689764.31248 -12209821.32546  21645571.8594                   21645572.2704
 11  8 21  1 45 30.0000000  0  9G12G29G26G10G05G04G30G02G25
 -25330166.36348 -19725902.72446  20854794.4454                   20854792.0864
  -2695611.42647  -2087399.26144  23322850.6174                   23322850.2464
   4612229.33246   3608362.06644  24492966.4454                   24492966.5474
 -20063338.59847 -15622742.56445  22521130.7584                   22521128.7344
 -27542555.75448 -21449473.69047  20149478.9774                   20149476.5824
 -18069522.53946 -14066899.30843  24328654.7274                   24328654.2034
 -14529687.41048 -11305982.75346  21568916.2894                   21568914.5824
 -29646699.47748 -23088946.96946  21170845.4384                   21170841.1454
 -15753199.63748 -12259251.42846  21633500.6334                   21633500.6484
 11  8 21  1 46  0.0000000  0  9G12G29G26G10G05G04G30G02G25
 -25327007.09848 -19723440.94746  20855395.4924                   20855393.3134
  -2811743.93447  -2177892.02244  23300751.5554                   23300750.3984
   4486165.90646   3510131.00743  24468977.7424                   24468977.8164
 -20003581.62547 -15576178.72744  22532501.8284                   22532500.1914
 -27577379.71948 -21476609.21847  20142852.2894                   20142849.8874
 -18023812.57446 -14031281.14743  24337353.8134                   24337352.3714
 -14578487.56248 -11344008.83246  21559629.4844                   21559627.8874
 -29646219.58248 -23088573.01846  21170936.6884                   21170932.5634
 -15816072.65247 -12308243.37146  21621536.3054                   21621536.5204
 11  8 21  1 46 30.0000000  0  9G12G29G26G10G05G04G30G02G25
 -25323307.63348 -19720558.25446  20856099.8134                   20856097.2624
  -2927881.67247  -2268388.85744  23278651.7504                   23278650.8014
   4360004.79746   3411823.78143  24444969.4224                   24444970.2114
 -19943518.81247 -15529376.54144  22543931.4774                   22543929.5744
 -27611628.68047 -21503296.69447  20136334.6644                   20136332.5164
 -17978162.08246 -13995709.38143  24346040.0634                   24346040.3524
 -14626679.60248 -11381561.08046  21550458.9614                   21550456.5394
 -29645633.52748 -23088116.33246  21171048.3984                   21171043.9344
 -15878379.77048 -12356794.36146  21609679.3834                   21609679.7734
 11  8 21  1 47  0.0000000  0  9G12G29G26G10G05G04G30G02G25
 -25319074.71148 -19717259.87346  20856905.0474                   20856902.5594
  -3044029.06647  -2358893.20944  23256548.8914                   23256547.6954
   4233743.12146   3313438.21443  24420942.8444                   24420942.9024
 -19883159.00847 -15482342.92444  22555417.6644                   22555415.5044
 -27645309.01647 -21529541.07647  20129925.4774                   20129923.1804
 -17932577.10246 -13960188.63843  24354714.3284                   24354715.2854
 -14674269.11748 -11418643.82345  21541402.9144                   21541400.7584
 -29644947.45748 -23087581.73546  21171179.3594                   21171174.5164
 -15940125.90647 -12404908.21146  21597929.2814                   21597930.1454
 11  8 21  1 47 30.0000000  0  9G12G29G26G10G05G04G30G02G25
 -25314305.10548 -19713543.29646  20857812.6094                   20857810.1764
  -3160179.31247  -2449399.82844  23234446.5474                   23234445.3954
   4107389.36746   3214980.85143  24396898.6334                   24396899.1724
 -19822499.70747 -15435075.98144  22566960.0474                   22566958.7544
 -27678415.84447 -21555338.56147  20123625.5864                   20123623.0554
 -17887052.43045 -13924714.80542  24363377.4844                   24363377.8364
 -14721250.58648 -11455252.75946  21532462.7424                   21532461.5474
 -29644156.89147 -23086965.69246  21171329.6484                   21171325.1414
 -16001304.78147 -12452580.05446  21586287.9144                   21586287.7934
 11  8 21  1 48  0.0000000  0  9G12G29G26G10G05G04G30G02G25
 -25309000.72348 -19709409.99746  20858822.1024                   20858819.5084
  -3276331.43747  -2539907.88944  23212343.6334                   23212342.0164
   3980945.94146   3116453.61343  24372836.7344                   24372836.5664
 -19761544.09447 -15387578.14144  22578560.0164                   22578557.8014
 -27710950.14547 -21580689.92947  20117434.3984                   20117432.0204
 -17841588.72345 -13889288.63742  24372029.7504                   24372029.2234
 -14767624.31648 -11491388.13246  21523638.1174                   21523636.3834
 -29643262.78947 -23086268.99446  21171499.2734                   21171494.8554
 -16061915.97747 -12499809.54146  21574753.7114                   21574754.2274
 11  8 21  1 48 30.0000000  0  9G12G29G26G10G05G04G30G02G25
 -23727744.16048 -18477262.02846  21159725.1804                   21159722.7304
  -1817061.55547  -1402814.37345  23490032.6954                   23490032.1054
   5429838.93446   4245461.31843  24648551.9304                   24648552.6954
 -18124878.40646 -14112254.23944  22890006.7664                   22890005.2424
 -26167492.55547 -20377995.67747  20411144.5004                   20411142.1564
 -16220768.99646 -12626312.18742  24680461.5864                   24680460.7584
 -13237969.80148 -10299449.53146  21814721.2814                   21814719.5944
 -28066846.68747 -21857892.80146  21471481.2424                   21471477.3164
 -14546537.77747 -11318995.34546  21863120.5394                   21863120.7734
 11  8 21  1 49  0.0000000  0  9G12G29G26G10G05G04G30G02G25
 -23721380.19148 -18472303.09246  21160936.1724                   21160933.7774
  -1933219.17647  -1493326.68444  23467928.6024                   23467927.3364
   5303219.69546   4146797.03143  24624456.1954                   24624456.8094
 -18063344.78946 -14064306.00344  22901716.5784                   22901714.5084
 -26198889.22747 -20402460.57847  20405169.8984                   20405167.7034
 -16175433.54346 -12590985.85942  24689088.9614                   24689087.6724
 -13283133.35548 -10334641.90346  21806127.3524                   21806125.7664
 -28065752.34447 -21857040.08046  21471689.6804                   21471685.3524
 -14606016.73447 -11365342.57346  21851802.2814                   21851802.4454
 11  8 21  1 49 30.0000000  0  9G12G29G26G10G05G04G30G02G25
 -23714489.06248 -18466933.37346  21162247.4614                   21162244.9494
  -2049377.28947  -1583839.44245  23445824.9614                   23445823.8284
   5176516.91846   4048067.75842  24600345.1724                   24600345.3754
 -18001526.16846 -14016135.64044  22913480.7664                   22913478.8054
 -26229718.03948 -20426483.00247  20399303.0004                   20399301.0434
 -16130162.58546 -12555709.74242  24697702.9844                   24697701.6644
 -13327691.82048 -10369362.77146  21797648.0164                   21797646.5044
 -28064558.80548 -21856110.06646  21471916.8594                   21471912.6254
 -14664928.52348 -11411247.84746  21840591.2424                   21840591.8984
 11  8 21  1 50  0.0000000  0  9G12G29G26G10G05G04G30G02G25
 -23707071.13748 -18461153.17946  21163659.3054                   21163656.6644
  -2165533.64547  -1674350.80544  23423720.6954                   23423719.9304
   5049735.08646   3949276.89343  24576220.0314                   24576219.9494
 -17939424.59846 -13967744.82544  22925297.8444                   22925296.2034
 -26259978.44948 -20450062.51947  20393545.0004                   20393542.6684
 -16084955.09446 -12520483.10943  24706305.9384                   24706303.8244
 -13371643.82848 -10403611.05946  21789283.9304                   21789282.5314
 -28063265.36747 -21855102.19346  21472162.5234                   21472158.9184
 -14723270.96948 -11456709.47446  21829489.5084                   21829489.7384
 11  8 21  1 50 30.0000000  0  9G12G29G26G10G05G04G30G02G25
 -23699127.81248 -18454963.55746  21165170.6564                   21165168.3834
  -2281686.64847  -1764859.55645  23401617.8834                   23401616.9884
   4922877.24646   3850426.71043  24552079.4534                   24552078.9384
 -17877042.72346 -13919135.59944  22937169.0234                   22937166.8754
 -26289670.71548 -20473199.32347  20387894.7584                   20387892.0314
 -16039810.86746 -12485305.75443  24714896.5314                   24714895.6334
 -13414989.19148 -10437386.64646  21781036.1254                   21781034.3754
 -28061872.24647 -21854016.66946  21472427.9064                   21472423.9734
 -14781043.23847 -11501726.81946  21818495.7194                   21818496.2624
 11  8 21  1 51  0.0000000  0  9G12G29G26G10G05G04G30G02G25
 -23690656.46548 -18448362.50746  21166782.9844                   21166780.1024
  -2397830.29747  -1855361.01745  23379516.1174                   23379515.1024
   4795950.91446   3751523.17243  24527926.0474                   24527926.1884
 -17814379.22346 -13870306.93144  22949093.5234                   22949091.5704
 -26318791.78548 -20495891.06147  20382352.9614                   20382350.7854
 -15994725.98047 -12450174.71443  24723476.0394                   24723474.8674
 -13457723.74648 -10470686.27646  21772904.3204                   21772902.5594
 -28060375.72347 -21852850.54046  21472713.2814                   21472708.7854
 -14838240.29747 -11546295.93846  21807611.2974                   21807611.6024
 11  8 21  1 51 30.0000000  0  9G12G29G26G10G05G04G30G02G25
 -23681661.02748 -18441353.06546  21168494.2194                   21168491.6804
  -2513965.57047  -1945855.98745  23357416.2114                   23357415.4614
   4668956.95346   3652566.93143  24503760.2114                   24503759.8634
 -17751439.28546 -13821262.81544  22961069.9534                   22961069.0944
 -26347343.95748 -20518139.49347  20376919.8444                   20376917.3364
 -15949702.87147 -12415091.77043  24732043.4144                   24732043.1804
 -13499849.78948 -10503511.73746  21764887.7424                   21764885.9144
 -28058778.34447 -21851605.83846  21473016.7504                   21473012.8554
 -14894863.76648 -11590418.10246  21796836.3984                   21796836.4264
 11  8 21  1 52  0.0000000  0  9G12G29G26G10G05G04G30G02G25
 -23672141.36748 -18433935.14946  21170305.9844                   21170303.5984
  -2630089.01647  -2036341.69845  23335318.0474                   23335317.7304
   4541900.13346   3553561.75743  24479582.2194                   24479582.6134
 -17688223.26646 -13772003.59844  22973099.8984                   22973098.6644
 -26375326.50048 -20539944.06647  20371594.8834                   20371592.5124
 -15904739.56647 -12380055.45643  24740599.6724                   24740598.9924
 -13541365.50048 -10535861.60946  21756987.3204                   21756985.8094
 -28057078.72347 -21850281.45846  21473339.9924                   21473336.1684
 -14950911.05548 -11634091.29446  21786170.7974                   21786171.0394
 11  8 21  1 52 30.0000000  0  9G12G29G26G10G05G04G30G02G25
 -23662102.78948 -18426112.87346  21172216.2584                   21172213.8364
  -2746202.87146  -2126820.00845  23313223.1804                   23313222.2464
   4414780.02347   3454507.18843  24455392.1174                   24455391.9344
 -17624738.14846 -13722534.68744  22985180.8054                   22985179.1844
 -26402743.62947 -20561308.05847  20366377.3594                   20366375.4614
 -15859840.09847 -12345068.86943  24749143.5474                   24749142.9884
 -13582274.64548 -10567738.83446  21749202.4454                   21749200.2544
 -28055280.97347 -21848880.61546  21473682.4384                   21473678.2584
 -15006385.19948 -11677317.87946  21775614.3674                   21775614.9964
 11  8 21  1 53  0.0000000  0  9G12G29G26G10G05G04G30G02G25
 -23651552.11348 -18417891.57046  21174224.0084                   21174221.5274
  -2862310.29746  -2217293.27745  23291128.3364                   23291126.8954
   4287595.17647   3355402.24543  24431188.9614                   24431189.5634
 -17560991.37546 -13672861.88344  22997311.4844                   22997309.7934
 -26429600.83647 -20582235.74147  20361266.7974                   20361264.2974
 -15815009.12147 -12310135.59843  24757674.9144                   24757674.0354
 -13622582.03148 -10599147.16146  21741532.2194                   21741530.4184
 -28053390.39147 -21847407.44346  21474041.9774                   21474037.8054
 -15061290.19948 -11720100.97246  21765166.1094                   21765166.6334
 11  8 21  1 53 30.0000000  0  8G12G29G26G10G05G30G02G25
 -23640484.64148 -18409267.55746  21176329.7114                   21176327.7384
  -2978404.10946  -2307755.90245  23269035.9144                   23269035.3794
   4160354.48847   3256253.74244  24406975.8984                   24406975.9534
 -17496979.87146 -13622982.80044  23009492.3594                   23009491.0084
 -26455892.94948 -20602723.08647  20356263.6884                   20356260.8714
 -13662281.82448 -10630082.03546  21733977.4614                   21733975.7974
 -28051401.15647 -21845857.37446  21474420.4304                   21474416.3244
 -15115619.52048 -11762435.48246  21754828.0084                   21754827.6524
 11  8 21  1 54  0.0000000  0  8G12G29G26G10G05G30G02G25
 -23628903.74248 -18400243.48246  21178534.0004                   21178531.2114
  -3094483.50846  -2398207.38845  23246947.2194                   23246946.5554
   4033060.20747   3157063.53944  24382753.1484                   24382753.2584
 -17432707.49646 -13572900.48344  23021723.0234                   23021721.6484
 -26481622.02748 -20622771.70447  20351367.7034                   20351365.0704
 -13701375.18748 -10660544.38946  21726538.6724                   21726536.4734
 -28049314.98048 -21844231.77346  21474817.8444                   21474813.5824
 -15169373.51248 -11804321.71146  21744598.9534                   21744599.4924
 11  8 21  1 54 30.0000000  0  8G12G29G26G10G05G30G02G25
 -23616804.80948 -18390815.75046  21180836.0314                   21180833.5944
  -3210540.93046  -2488641.68745  23224862.1334                   23224860.9344
   3905721.56647   3057838.73344  24358521.0314                   24358521.5004
 -17368171.19546 -13522612.48844  23034003.6644                   23034002.7504
 -26506782.61748 -20642377.33447  20346579.6564                   20346577.0274
 -13739856.30548 -10690529.66446  21719215.6094                   21719213.2194
 -28047126.29348 -21842526.28346  21475233.8984                   21475229.8984
 -15222545.63748 -11845754.51046  21734480.3444                   21734480.7934
 11  8 21  1 55  0.0000000  0  8G12G29G26G10G05G30G02G25
 -23604185.38348 -18380982.42546  21183237.4534                   21183234.9414
  -3326570.47346  -2579054.24945  23202781.9304                   23202781.9024
   3778346.10946   2958585.27944  24334282.1644                   24334282.4804
 -17303369.24646 -13472117.46744  23046335.1024                   23046334.1914
 -26531371.25048 -20661537.28547  20341900.5004                   20341898.2034
 -13777721.07447 -10720034.66146  21712010.1174                   21712008.4264
 -28044830.70748 -21840737.50446  21475670.8754                   21475666.4144
 -15275130.98848 -11886730.09446  21724474.0944                   21724474.1174
 11  8 21  1 55 30.0000000  0  8G12G29G26G10G05G30G02G25
 -23591049.54748 -18370746.72746  21185737.4614                   21185734.6804
  -3442573.23847  -2669446.00045  23180708.0474                   23180707.0864
   3650934.54347   2859303.69144  24310036.3594                   24310036.8484
 -17238307.05546 -13421419.65444  23058716.0704                   23058714.5984
 -26555391.50048 -20680254.34147  20337329.6334                   20337327.3594
 -13814972.25448 -10749061.53646  21704921.4224                   21704919.3594
 -28042431.39848 -21838867.91346  21476127.9694                   21476122.8984
 -15327131.53148 -11927249.97946  21714578.3674                   21714578.3794
 11  8 21  1 56  0.0000000  0  8G12G29G26G10G05G30G02G25
 -23577407.93048 -18360116.90646  21188333.1334                   21188330.6994
  -3558556.10247  -2759822.20244  23158637.0784                   23158635.4144
   3523481.42646   2759989.72944  24285782.7814                   24285782.6764
 -17172996.19147 -13370528.07244  23071144.8754                   23071142.6844
 -26578852.55948 -20698535.66747  20332865.2114                   20332862.9184
 -13851618.68048 -10777617.19646  21697947.9304                   21697946.2344
 -28039937.30548 -21836924.44246  21476601.8054                   21476597.5634
 -15378555.46148 -11967320.57546  21704792.6024                   21704792.7664
 11  8 21  1 56 30.0000000  0  8G12G29G26G10G05G30G02G25
 -23563258.09848 -18349091.05846  21191025.6024                   21191023.1604
  -3674513.27047  -2850178.41645  23136571.4144                   23136570.7584
   3395994.37546   2660649.31343  24261522.2424                   24261522.7504
 -17107434.67246 -13319441.17944  23083620.1644                   23083618.7424
 -26601750.87948 -20716378.48947  20328507.9224                   20328505.3674
 -13887656.16048 -10805698.33846  21691090.1174                   21691088.5204
 -28037344.40648 -21834903.99746  21477095.7814                   21477091.0354
 -15429397.62148 -12006937.83646  21695117.9224                   21695117.8134
 11  8 21  1 57  0.0000000  0  8G12G29G26G10G05G30G02G25
 -23548608.25448 -18337675.59946  21193813.6094                   21193810.9414
  -3790449.20747  -2940518.05245  23114509.2584                   23114507.2544
   3268470.63346   2561280.29843  24237255.8444                   24237255.4184
 -17041631.69147 -13268166.17944  23096142.0164                   23096140.8094
 -26624093.69548 -20733788.45347  20324256.0554                   20324253.2034
 -13923091.35247 -10833310.18946  21684346.6484                   21684345.3524
 -28034659.17648 -21832811.60346  21477606.9924                   21477602.0354
 -15479663.95348 -12046106.40046  21685552.5784                   21685552.8164
 11  8 21  1 57 30.0000000  0  8G12G29G26G10G05G30G02G25
 -23533456.49248 -18325869.04946  21196697.0004                   21196694.2584
  -3906358.70347  -3030837.11845  23092452.0704                   23092451.4574
   3140916.53146   2461887.68743  24212982.0554                   24212982.0044
 -16975586.80547 -13216702.64944  23108710.2504                   23108708.6644
 -26645878.70348 -20750763.75947  20320110.5314                   20320108.1174
 -13957921.06647 -10860450.24246  21677719.2424                   21677717.5204
 -28031878.65248 -21830644.95946  21478135.6484                   21478131.4804
 -15529350.55548 -12084823.23946  21676097.7664                   21676097.8014
 11  8 21  1 58  0.0000000  0  8G12G29G26G10G05G30G02G25
 -23517799.91448 -18313669.12046  21199676.0634                   21199673.8134
  -4022235.66047  -3121130.79845  23070402.0864                   23070400.1374
   3013340.57046   2362477.95843  24188705.2734                   24188704.9844
 -16909297.50447 -13165048.67444  23121324.9144                   23121323.1214
 -26667101.88348 -20767301.28447  20316071.6564                   20316069.3794
 -13992140.75848 -10887114.94146  21671207.5394                   21671205.7504
 -28028998.05948 -21828400.33146  21478683.7584                   21478679.5124
 -15578452.07048 -12123084.16146  21666753.7894                   21666754.1214
 11  8 21  1 58 30.0000000  0  8G12G29G26G10G05G30G02G25
 -23501651.70748 -18301086.10346  21202749.0314                   21202746.5084
  -4138088.96147  -3211406.08045  23048355.6954                   23048355.1994
   2885735.14546   2263045.30143  24164423.1174                   24164422.2584
 -16842777.67247 -13113215.01344  23133982.9924                   23133981.1684
 -26687774.84048 -20783410.05947  20312137.9924                   20312135.2194
 -14025761.66848 -10913313.07346  21664809.8444                   21664807.8284
 -28026028.58648 -21826086.45146  21479249.0004                   21479244.6804
 -15626978.95748 -12160897.32146  21657519.4774                   21657519.7234
 11  8 21  1 59  0.0000000  0  8G12G29G26G10G05G30G02G25
 -23485011.14148 -18288119.44246  21205915.7894                   21205912.9734
  -4253914.80547  -3301659.93145  23026314.3204                   23026312.3984
   2758105.75446   2163593.98343  24140135.6724                   24140135.7854
 -16776027.87547 -13061202.19044  23146685.4304                   23146683.2504
 -26707896.40648 -20799089.19047  20308308.8594                   20308306.1884
 -14058781.95348 -10939043.15946  21658526.0554                   21658524.7114
 -28022968.22748 -21823701.74946  21479831.2424                   21479826.6214
 -15674928.54348 -12198260.63846  21648394.7894                   21648395.1844
 11  8 21  1 59 30.0000000  0  8G12G29G26G10G05G30G02G25
 -23467880.02748 -18274770.53046  21209175.7814                   21209172.9654
  -4369711.53547  -3391891.10445  23004278.7734                   23004278.7034
   2630455.77046   2064126.61143  24115844.2344                   24115844.2814
 -16709050.68747 -13009012.15544  23159430.6334                   23159429.0434
 -26727467.60248 -20814339.44147  20304584.6644                   20304582.1024
 -14091202.07448 -10964305.61046  21652356.9844                   21652355.1454
 -28019817.28148 -21821246.45746  21480430.8134                   21480426.1844
 -15722300.52348 -12235173.88446  21639380.5394                   21639380.5634
 11  8 21  2  0  0.0000000  0  8G12G29G26G10G05G30G02G25
 -23450258.16048 -18261039.21346  21212528.9384                   21212526.4414
  -4485474.65247  -3482096.11345  22982249.7504                   22982248.7424
   2502790.76647   1964647.45343  24091550.8594                   24091550.1764
 -16641846.25447 -12956645.08844  23172219.0164                   23172217.6214
 -26746487.08648 -20829159.80547  20300965.3674                   20300962.8284
 -14123019.95747 -10989098.77846  21646302.1954                   21646299.9924
 -28016573.79348 -21818719.06646  21481048.3674                   21481043.7934
 -15769092.05148 -12271634.80946  21630476.2424                   21630476.5474
 11  8 21  2  0 30.0000000  0  8G12G29G26G10G05G30G02G25
 -23432151.78948 -18246930.35746  21215974.3984                   21215972.0044
  -4601207.02747  -3572277.12945  22960227.1724                   22960225.4064
   2375110.30147   1865156.29443  24067253.4774                   24067253.1884
 -16574421.96547 -12904106.70344  23185049.5394                   23185047.9414
 -26764960.00448 -20843554.26147  20297450.1724                   20297447.5864
 -14154240.40648 -11013426.39746  21640360.8284                   21640359.2664
 -28013241.99247 -21816122.84946  21481682.0944                   21481677.7234
 -15815307.11748 -12307646.55146  21621681.8834                   21621682.4414
 11  8 21  2  1  0.0000000  0  8G12G29G26G10G05G30G02G25
 -23413561.74248 -18232444.60546  21219512.2194                   21219510.0004
  -4716905.93747  -3662432.05445  22938210.1644                   22938208.9024
   2247418.35247   1765656.19843  24042955.0474                   24042953.8364
 -16506779.14147 -12851398.03244  23197921.6724                   23197920.1294
 -26782886.50848 -20857522.94947  20294038.5394                   20294036.3674
 -14184862.85548 -11037288.05546  21634533.4144                   21634531.6214
 -28009821.36348 -21813457.42546  21482332.5784                   21482328.6914
 -15860944.36348 -12343208.03946  21612997.2034                   21612998.2344
 11  8 21  2  1 30.0000000  0  8G12G29G26G10G05G30G02G25
 -23394488.53948 -18217582.38246  21223141.3054                   21223139.1724
  -4832567.77347  -3752558.09745  22916200.2344                   22916198.3714
   2119720.19947   1666151.24343  24018654.7664                   24018653.7194
 -16438918.91847 -12798519.94844  23210835.2584                   23210833.5514
 -26800265.87548 -20871065.29147  20290731.5554                   20290728.8954
 -14214886.10948 -11060682.79646  21628820.2504                   21628818.7074
 -28006310.04748 -21810721.34846  21483001.2734                   21482996.4964
 -15906001.80948 -12378317.73046  21604423.2814                   21604423.5744
 11  8 21  2  2  0.0000000  0  8G12G29G26G10G05G30G02G25
 -23374934.39548 -18202345.39746  21226862.8134                   21226860.1644
  -4948191.14147  -3842654.19245  22894198.1254                   22894197.8834
   1992018.87147   1566643.79943  23994354.1254                   23994352.7154
 -16370844.17647 -12745474.69544  23223788.8054                   23223787.4774
 -26817099.43448 -20884182.33547  20287528.1564                   20287525.4654
 -14244310.95348 -11083611.24046  21623220.9384                   21623219.0984
 -28002708.66448 -21807915.07646  21483686.5004                   21483682.3014
 -15950479.46148 -12412975.62246  21595959.1094                   21595959.7814
 11  8 21  2  2 30.0000000  0  8G12G29G26G10G05G30G02G25
 -23354896.90648 -18186731.78146  21230675.7894                   21230673.0864
  -5063770.05547  -3932715.60045  22872203.6564                   22872201.9924
   1864321.98047   1467139.85544  23970054.0004                   23970053.3874
 -16302553.62547 -12692261.28044  23236784.2194                   23236783.2624
 -26833384.21148 -20896871.75647  20284428.9304                   20284426.4414
 -14273133.84847 -11106070.61746  21617736.2034                   21617734.9264
 -27999013.32848 -21805035.59046  21484389.8754                   21484385.4184
 -15994372.86348 -12447178.25846  21587606.5864                   21587606.7894
 11  8 21  2  3  0.0000000  0  8G12G29G26G10G05G30G02G25
 -23334383.54748 -18170747.34746  21234579.2034                   21234576.7854
  -5179308.17647  -4022745.22745  22850217.7114                   22850216.1684
   1736627.83647   1367638.03944  23945754.9614                   23945753.6294
 -16234055.30147 -12638885.95044  23249818.6484                   23249817.3404
 -26849126.64148 -20909138.57047  20281433.6094                   20281430.9654
 -14301360.53148 -11128065.43046  21612364.8134                   21612363.0514
 -27995229.39547 -21802087.06746  21485109.6484                   21485105.3484
 -16037687.14148 -12480929.61446  21579364.1724                   21579364.8714
 11  8 21  2  3 30.0000000  0  8G12G29G26G10G05G30G02G25
 -23313394.27748 -18154392.07746  21238573.3284                   21238571.0704
  -5294801.30947  -4112739.80445  22828239.0864                   22828238.9064
   1608941.96146   1268142.66144  23921456.6334                   23921455.8524
 -16165349.56647 -12585349.04843  23262893.0944                   23262892.1414
 -26864325.53548 -20920981.85347  20278541.0864                   20278538.3054
 -14328989.46547 -11149594.44646  21607107.2344                   21607105.6294
 -27991354.76647 -21799067.86546  21485847.0864                   21485842.5984
 -16080419.84848 -12514227.79746  21571232.2814                   21571232.5984
 11  8 21  2  4  0.0000000  0  8G12G29G26G10G05G30G02G25
 -23291930.91448 -18137667.38446  21242657.5474                   21242655.1804
  -5410247.28947  -4202697.63945  22806271.1884                   22806270.2734
   1481267.94947   1168656.51444  23897161.4064                   23897160.4184
 -16096438.90646 -12531652.42144  23276006.3524                   23276005.3524
 -26878981.85948 -20932402.35347  20275752.1334                   20275749.4884
 -14356021.15647 -11170658.07846  21601963.1954                   21601961.5824
 -27987389.66047 -21795978.18346  21486601.3134                   21486597.0904
 -16122570.68048 -12547072.57146  21563211.2504                   21563211.6024
 11  8 21  2  4 30.0000000  0  8G12G29G26G10G05G30G02G25
 -23270001.55148 -18120579.59146  21246830.8364                   21246828.3444
  -5525650.96547  -4292622.49745  22784310.7734                   22784309.3674
   1353603.04346   1069177.47343  23872867.2034                   23872866.5004
 -16027331.83247 -12477802.82843  23289156.8834                   23289155.6564
 -26893102.84848 -20943405.70847  20273064.7734                   20273062.4844
 -14382462.41047 -11191261.63746  21596931.1484                   21596929.7344
 -27983340.54348 -21792823.02946  21487372.0164                   21487368.0514
 -16164145.68448 -12579468.63746  21555299.6804                   21555300.0434
 11  8 21  2  5  0.0000000  0  8G12G29G26G10G05G30G02G25
 -23247602.70348 -18103125.94046  21251093.1414                   21251090.8164
  -5641004.54347  -4382508.30445  22762359.1954                   22762357.4304
   1225956.71947    969712.90544  23848576.8284                   23848576.0554
 -15958025.45347 -12423797.86744  23302345.4844                   23302344.2734
 -26906684.22748 -20953988.58347  20270480.3204                   20270477.8094
 -14408308.16848 -11211401.15346  21592013.3284                   21592011.3594
 -27979201.44548 -21789597.75746  21488159.4384                   21488155.2074
 -16205138.88348 -12611411.35746  21547499.0004                   21547499.2344
 11  8 21  2  5 30.0000000  0  8G12G29G26G10G05G30G02G25
 -23224737.32848 -18085308.76946  21255444.1024                   21255441.7464
  -5756306.72747  -4472354.09045  22740418.1884                   22740417.3914
   1098331.54346    870264.78944  23824289.9454                   23824289.8324
 -15888523.26247 -12369640.32143  23315571.6094                   23315570.0394
 -26919727.66848 -20964152.28347  20267998.5944                   20267996.1054
 -14433559.80147 -11231077.73846  21587207.7504                   21587206.5514
 -27974973.37147 -21786303.14846  21488964.1724                   21488959.9804
 -16245550.94948 -12642901.24246  21539809.0004                   21539809.0314
 11  8 21  2  6  0.0000000  0  8G12G29G26G10G05G30G02G25
 -23201410.57848 -18067132.09646  21259883.2034                   21259880.6884
  -5871558.87947  -4562160.89445  22718486.0944                   22718484.6484
    970727.82446    770833.39444  23800007.4694                   23800007.6294
 -15818831.25447 -12315334.84443  23328833.5784                   23328831.2734
 -26932237.52048 -20973900.20747  20265617.6644                   20265615.2464
 -14458221.33648 -11250294.48246  21582515.1334                   21582513.4734
 -27970659.65648 -21782941.81446  21489785.3834                   21489780.5864
 -16285385.07848 -12673940.79546  21532228.3364                   21532228.3524
 11  8 21  2  6 30.0000000  0  8G12G29G26G10G05G30G02G25
 -23177617.68048 -18048592.17946  21264411.0394                   21264408.7504
  -5986752.19147  -4651921.82445  22696565.9384                   22696563.7814
    843156.13746    671427.00844  23775730.9454                   23775731.2274
 -15748944.96547 -12260877.94843  23342132.7114                   23342130.4454
 -26944208.22348 -20983228.01147  20263340.0234                   20263337.1484
 -14482286.45748 -11269046.49646  21577935.7424                   21577933.6454
 -27966253.47348 -21779508.44046  21490623.5314                   21490619.1844
 -16324634.16848 -12704524.47546  21524759.5944                   21524759.8594
 11  8 21  2  7  0.0000000  0  8G12G29G26G10G05G30G02G25
 -23153369.76248 -18029697.71846  21269025.3834                   21269022.7734
  -6101894.13347  -4741642.74145  22674655.2114                   22674653.4884
    715610.77046    572041.08843  23751460.2194                   23751460.1054
 -15678875.71547 -12206278.61944  23355466.6334                   23355464.8444
 -26955650.30548 -20992143.90647  20261162.3134                   20261159.8874
 -14505765.06248 -11287341.49546  21573467.7114                   21573466.2034
 -27961763.88348 -21776010.04546  21491478.1724                   21491473.6294
 -16363307.32048 -12734659.34946  21517400.7504                   21517400.4454
 11  8 21  2  7 30.0000000  0  8G12G29G26G10G05G30G02G25
 -23128665.83248 -18010447.90746  21273725.8594                   21273723.3874
  -6216979.36747  -4831319.43345  22652754.4224                   22652752.7234
    588098.49246    472680.95144  23727195.4064                   23727194.7384
 -15608623.41447 -12151536.53844  23368835.6484                   23368833.0004
 -26966561.73048 -21000646.29547  20259086.1644                   20259083.6374
 -14528655.00048 -11305177.77746  21569112.2034                   21569110.2344
 -27957188.11348 -21772444.49846  21492348.8984                   21492344.1884
 -16401401.52048 -12764343.12246  21510151.2424                   21510151.7464
 11  8 21  2  8  0.0000000  0  8G12G29G26G10G05G30G02G25
 -23103509.84448 -17990845.84446  21278513.0394                   21278510.7734
  -6332007.55147  -4920951.73745  22630865.6414                   22630864.8554
    460621.43046    373348.29244  23702937.6334                   23702937.1174
 -15538192.18747 -12096655.05644  23382237.9064                   23382236.0474
 -26976945.39548 -21008737.44247  20257110.2814                   20257107.6054
 -14550958.39148 -11322557.03646  21564867.9384                   21564866.3364
 -27952527.26248 -21768812.66746  21493235.3524                   21493231.7304
 -16438918.12548 -12793576.81046  21503012.2034                   21503012.3094
 11  8 21  2  8 30.0000000  0  8G12G29G26G10G05G30G02G25
 -23077899.26648 -17970889.56146  21283386.3364                   21283384.4494
  -6446972.09847  -5010534.44845  22608988.5784                   22608987.0274
    333187.85946    274049.48044  23678687.5704                   23678687.1764
 -15467580.04347 -12041632.63544  23395674.5004                   23395673.3244
 -26986797.52748 -21016414.42447  20255235.2974                   20255232.9024
 -14572671.32048 -11339476.18446  21560735.9694                   21560734.3524
 -27947776.78148 -21765110.99446  21494139.5164                   21494134.8204
 -16475852.41448 -12822356.77446  21495983.6024                   21495983.8754
 11  8 21  2  9  0.0000000  0  8G12G29G26G10G05G30G02G25
 -23051839.98847 -17950583.64146  21288345.6484                   21288343.0044
  -6561875.25447  -5100069.28645  22587123.4844                   22587121.0474
    205797.26646    174784.22544  23654446.0554                   23654445.3714
 -15396793.38746 -11986474.21844  23409144.8054                   23409143.4844
 -26996123.88748 -21023681.69847  20253460.6954                   20253457.9454
 -14593798.78948 -11355939.13246  21556715.1954                   21556713.8324
 -27942941.17648 -21761343.00346  21495059.8834                   21495055.4384
 -16512208.60248 -12850686.25646  21489065.6254                   21489066.0164
 11  8 21  2  9 30.0000000  0  8G12G29G26G10G05G30G02G25
 -23025334.24247 -17929929.83046  21293389.5314                   21293387.0474
  -6676714.56247  -5189554.40845  22565270.0164                   22565268.6374
     78453.37946     75555.30544  23630213.6414                   23630213.0784
 -15325834.50846 -11931181.59543  23422647.8524                   23422645.9104
 -27004925.23848 -21030539.87747  20251785.8754                   20251783.5744
 -14614341.46148 -11371946.39046  21552806.1094                   21552804.8204
 -27938019.79348 -21757508.16946  21495995.7194                   21495992.1294
 -16547986.42648 -12878565.06846  21482257.0944                   21482257.6134
 11  8 21  2 10  0.0000000  0  8G12G29G26G10G05G30G02G25
 -22998382.68048 -17908928.61746  21298518.2114                   21298515.7544
  -6791486.40247  -5278986.94045  22543429.2894                   22543427.8164
    -48838.46546    -23633.06444  23605990.1884                   23605989.2854
 -15254704.27046 -11875755.41143  23436183.2424                   23436182.5124
 -27013201.59848 -21036988.97547  20250210.9614                   20250207.9144
 -14634298.71948 -11387497.49946  21549008.6644                   21549006.3014
 -27933011.39148 -21753605.51946  21496949.7664                   21496945.1054
 -16583184.55548 -12905992.16346  21475559.1884                   21475559.3914
 11  8 21  2 10 30.0000000  0  9G12G29G26G10G05G15G30G02G25
 -22970992.19548 -17887585.38546  21303730.5864                   21303728.1724
  -6906193.68747  -5368369.19345  22521601.2584                   22521600.0474
   -176079.49247   -122781.81244  23581776.7664                   23581776.3404
 -15183410.07446 -11820201.55543  23449750.4454                   23449748.8244
 -27020958.91848 -21043033.63947  20248734.7034                   20248731.9774
   7691628.43056   6008041.63653  24485083.8524                   24485084.5314
 -14653676.26648 -11402596.87546  21545321.3524                   21545319.3014
 -27927920.71548 -21749638.77446  21497918.4064                   21497913.5394
 -16617807.81248 -12932971.32246  21468970.6254                   21468970.6334
 11  8 21  2 11  0.0000000  0  9G12G29G26G10G05G15G30G02G25
 -22943170.52047 -17865906.16346  21309024.6724                   21309022.3204
  -7020839.43047  -5457703.49645  22499785.0394                   22499783.9384
   -303271.44146   -221892.31844  23557574.0394                   23557571.9064
 -15111959.45346 -11764525.82244  23463346.1024                   23463345.5864
 -27028203.90648 -21048679.05847  20247356.1174                   20247353.5474
   7565935.44145   5910099.19343  24461164.6564                   24461165.3364
 -14672480.26248 -11417249.33446  21541742.9774                   21541741.1764
 -27922753.02748 -21745612.01346  21498901.6414                   21498897.1604
 -16651861.63748 -12959506.75346  21462490.4774                   21462490.1644
 11  8 21  2 11 30.0000000  0  9G12G29G26G10G05G15G30G02G25
 -22914923.44147 -17843895.45446  21314399.9384                   21314397.4064
  -7135426.18447  -5546991.81645  22477979.9224                   22477978.0044
   -430414.53546   -320964.81444  23533378.3524                   23533377.6174
 -15040359.43046 -11708733.65343  23476972.7504                   23476970.9104
 -27034942.07448 -21053929.58147  20246074.0164                   20246071.0704
   7440100.67246   5812046.39443  24437219.2664                   24437219.0784
 -14690715.68048 -11431458.74346  21538273.0084                   21538271.1804
 -27917512.37548 -21741528.38346  21499898.8914                   21499894.3984
 -16685350.21548 -12985601.73746  21456117.6564                   21456117.5944
 11  8 21  2 12  0.0000000  0  9G12G29G26G10G05G15G30G02G25
 -22886250.03947 -17821552.54946  21319856.4924                   21319854.1174
  -7249947.93747  -5636229.50745  22456187.0704                   22456185.6994
   -557501.48846   -419993.50144  23509194.6724                   23509193.6804
 -14968608.70346 -11652823.99544  23490625.8984                   23490623.9694
 -27041170.78948 -21058783.11247  20244888.5944                   20244885.6844
   7314130.66046   5713888.10944  24413247.3834                   24413248.3094
 -14708379.76648 -11445222.96346  21534911.3364                   21534909.2624
 -27912194.76248 -21737384.81046  21500910.7194                   21500906.4694
 -16718269.86348 -13011253.42246  21449853.3834                   21449853.1454
 11  8 21  2 12 30.0000000  0  9G12G29G26G10G05G15G30G02G25
 -21281725.63347 -16571273.79446  21625187.1564                   21625184.9884
  -5788971.16447  -4497805.99745  22734201.3754                   22734200.0274
    890903.41046    708633.76444  23784816.7974                   23784816.3524
 -13321284.27746 -10369194.60544  23804101.3204                   23804099.8524
 -25471463.74248 -19835634.75547  20543593.9774                   20543591.1764
   8763459.94146   6843235.79644  24689046.2664                   24689046.4924
 -13150045.30948 -10230936.38446  21831452.6644                   21831450.8524
 -26331372.45348 -20505575.21846  21801731.3444                   21801726.8404
 -15175192.12148 -11808855.18146  21743491.2814                   21743491.4224
 11  8 21  2 13  0.0000000  0  9G12G29G26G10G05G15G30G02G25
 -21252195.09847 -16548263.00246  21630807.0474                   21630803.9694
  -5903346.21547  -4586929.38945  22712436.9144                   22712434.8754
    763950.36747    609709.34944  23760658.4144                   23760656.8984
 -13249228.93747 -10313047.59043  23817812.8054                   23817811.5554
 -25476667.43048 -19839689.57147  20542603.3594                   20542600.9964
   8637238.05146   6744881.26844  24665027.1724                   24665026.8324
 -13166559.45748 -10243804.55446  21828310.2034                   21828308.3674
 -26325890.59848 -20501303.65846  21802774.5634                   21802769.8244
 -15206964.32048 -11833612.74146  21737445.1644                   21737445.3554
 11  8 21  2 13 30.0000000  0  9G12G29G26G10G05G15G30G02G25
 -21222233.10947 -16524915.99546  21636508.2814                   21636505.7384
  -6017637.88347  -4675987.78045  22690687.9694                   22690686.7504
    637076.59847    510846.77244  23736515.1174                   23736514.5204
 -13177018.21147 -10256779.49943  23831554.5004                   23831552.8954
 -25481353.86748 -19843341.34147  20541711.5004                   20541709.2154
   8510900.97347   6646436.97644  24640985.4144                   24640984.7584
 -13182493.41448 -10256220.62346  21825278.3134                   21825276.0784
 -26320319.99648 -20496962.94746  21803834.3444                   21803830.0204
 -15238156.36348 -11857918.23746  21731509.5004                   21731509.4534
 11  8 21  2 14  0.0000000  0  9G12G29G26G10G05G15G30G02G25
 -21191850.45347 -16501241.19446  21642289.9224                   21642287.6134
  -6131853.06247  -4764986.59245  22668953.6724                   22668952.1214
    510276.84847    412041.85444  23712385.5004                   23712384.8554
 -13104663.55947 -10200399.28243  23845322.7274                   23845320.8244
 -25485533.87548 -19846598.48447  20540916.3444                   20540913.6604
   8384442.29347   6547897.88344  24616921.0004                   24616920.9384
 -13197857.34848 -10268192.50246  21822354.4144                   21822352.2504
 -26314669.08648 -20492559.64246  21804909.8594                   21804905.0474
 -15268777.56248 -11881778.90946  21725682.5864                   21725682.6884
 11  8 21  2 14 30.0000000  0  9G12G29G26G10G05G15G30G02G25
 -21161049.78947 -16477240.69046  21648151.0784                   21648148.5234
  -6245990.05947  -4853924.46845  22647233.9064                   22647231.9654
    383554.77047    313297.46644  23688271.4384                   23688270.7704
 -13032167.63347 -10143908.96643  23859118.3204                   23859116.6024
 -25489208.78548 -19849462.04547  20540217.1024                   20540214.3484
   8257865.08247   6449266.46444  24592833.4384                   24592834.3674
 -13212652.29748 -10279721.05146  21819539.1884                   21819537.1684
 -26308938.17648 -20488094.01046  21806000.3914                   21805996.0474
 -15298828.22348 -11905195.01146  21719963.8444                   21719963.7854
 11  8 21  2 15  0.0000000  0  9G12G29G26G10G05G15G30G02G25
 -21129828.78947 -16452912.64346  21654092.1094                   21654089.8204
  -6360042.25047  -4942796.28145  22625530.1094                   22625528.8634
    256918.60946    214620.01844  23664172.7894                   23664172.5704
 -12959528.20747 -10087306.86443  23872941.7664                   23872939.6604
 -25492375.92248 -19851929.94347  20539614.1414                   20539611.6484
   8131176.45747   6350548.20344  24568725.6254                   24568725.7344
 -13226874.89548 -10290803.61646  21816832.6334                   21816830.3444
 -26303122.28147 -20483562.15446  21807107.0704                   21807102.6294
 -15328304.09048 -11928163.21546  21714354.8834                   21714355.0944
 11  8 21  2 15 30.0000000  0  9G12G29G26G10G05G15G30G02G25
 -21098190.72748 -16428259.61446  21660112.8984                   21660110.2774
  -6474007.68047  -5031600.46145  22603843.6954                   22603841.4804
    130371.53147    116012.02644  23640092.3754                   23640091.7344
 -12886748.28947 -10030595.22843  23886790.6334                   23886789.5274
 -25495036.89148 -19854003.41547  20539107.8914                   20539105.1484
   8004378.56346   6251744.77444  24544597.1884                   24544596.9064
 -13240526.85248 -10301441.49546  21814234.5864                   21814232.5904
 -26297222.21548 -20478964.70546  21808229.9144                   21808225.5784
 -15357206.18748 -11950684.35246  21708855.0704                   21708855.2424
 11  8 21  2 16  0.0000000  0  9G12G29G26G10G05G15G30G02G25
 -21066136.77047 -16403282.50146  21666212.1094                   21666210.0354
  -6587883.45347  -5120334.79545  22582173.4224                   22582171.6094
      3918.23447     17477.07844  23616028.3674                   23616027.4024
 -12813829.52746  -9973775.37743  23900666.8914                   23900664.4924
 -25497192.14548 -19855682.83447  20538697.7814                   20538694.8484
   7877475.13746   6152859.18143  24520447.4064                   24520447.2114
 -13253608.33648 -10311634.85246  21811745.7734                   21811743.6644
 -26291237.03148 -20474300.91346  21809368.6024                   21809364.4494
 -15385533.78148 -11972757.79446  21703464.6254                   21703464.5784
 11  8 21  2 16 30.0000000  0  9G12G29G26G10G05G15G30G02G25
 -21033669.44948 -16377983.30146  21672390.5474                   21672388.5664
  -6701668.01647  -5208998.04245  22560520.9924                   22560519.7344
   -122438.25047    -80982.38444  23591983.8054                   23591982.7774
 -12740774.64547  -9916849.59643  23914568.3984                   23914566.7974
 -25498844.16048 -19856970.10847  20538383.2974                   20538380.7664
   7750468.58246   6053893.10643  24496278.5944                   24496278.4844
 -13266121.30548 -10321385.22546  21809364.1024                   21809362.0354
 -26285166.93748 -20469570.97246  21810524.0634                   21810519.4264
 -15413287.98048 -11994384.44046  21698183.1644                   21698182.8674
 11  8 21  2 17  0.0000000  0  9G12G29G26G10G05G15G30G02G25
 -21000795.88748 -16352367.54646  21678646.2344                   21678643.8714
  -6815363.94947  -5297592.24045  22538885.3134                   22538883.0554
   -248698.64147   -179367.01744  23567957.1254                   23567956.2734
 -12667590.96146  -9859823.31843  23928495.0784                   23928493.9184
 -25499998.89848 -19857869.88947  20538163.7894                   20538161.2544
   7623356.80146   5954845.17243  24472089.6174                   24472089.3834
 -13278071.51248 -10330697.07146  21807090.0784                   21807088.4264
 -26279016.69948 -20464778.58346  21811693.9454                   21811690.0394
 -15440473.90248 -12015568.28646  21693009.5944                   21693009.7424
 11  8 21  2 17 30.0000000  0  9G12G29G26G10G05G15G30G02G25
 -20967514.30148 -16326433.86846  21684979.6804                   21684977.5084
  -6928964.44148  -5386112.06745  22517268.0634                   22517266.0204
   -374854.65647   -277670.31044  23543950.8444                   23543949.3874
 -12594276.27346  -9802695.04743  23942446.4534                   23942444.6414
 -25500653.43748 -19858379.91147  20538039.1334                   20538036.2194
   7496147.88346   5855721.48843  24447883.2194                   24447882.5044
 -13289455.65248 -10339567.84946  21804923.8524                   21804922.0354
 -26272781.32448 -20459919.83746  21812880.8284                   21812876.0514
 -15467087.33248 -12036306.02546  21687945.4384                   21687945.4454
 11  8 21  2 18  0.0000000  0  9G12G29G26G10G05G15G30G02G25
 -20933827.83248 -16300184.66946  21691389.7974                   21691387.6764
  -7042468.03947  -5474556.39645  22495668.6414                   22495667.4494
   -500903.30147   -375889.94844  23519964.0634                   23519963.1334
 -12520833.52746  -9745466.93043  23956422.4304                   23956420.4104
 -25500809.63348 -19858501.59447  20538009.1024                   20538006.8914
   7368843.14546   5756523.18443  24423657.1334                   24423656.7344
 -13300275.63748 -10347999.01046  21802865.0704                   21802862.8634
 -26266461.56247 -20454995.34946  21814083.3364                   21814079.0944
 -15493129.38748 -12056598.53246  21682989.5634                   21682989.8244
 11  8 21  2 18 30.0000000  0  9G12G29G26G10G05G15G30G02G25
 -20899739.80947 -16273622.58846  21697876.4924                   21697874.1954
  -7155873.63747  -5562924.34545  22474088.4774                   22474086.8244
   -626841.80547   -474023.76144  23495998.6724                   23495997.5864
 -12447266.18447  -9688141.77343  23970421.5784                   23970420.3324
 -25500470.46148 -19858237.30247  20538073.9614                   20538071.1644
   7241444.43046   5657251.61343  24399414.6804                   24399413.2114
 -13310533.95348 -10355992.49746  21800912.6724                   21800910.8324
 -26260058.23447 -20450005.73746  21815301.8754                   21815297.6564
 -15518601.82048 -12076447.19346  21678142.5704                   21678142.6174
 11  8 21  2 19  0.0000000  0  9G12G29G26G10G05G15G30G02G25
 -20865249.64847 -16246747.15446  21704439.7814                   21704437.7854
  -7269176.27747  -5651212.07345  22452527.5314                   22452526.1994
   -752663.84047   -572066.85544  23472055.7584                   23472054.8674
 -12373573.88746  -9630719.22343  23984445.0784                   23984443.4304
 -25499635.10548 -19857586.35747  20538232.6954                   20538229.9224
   7113957.29746   5557911.20843  24375153.3284                   24375153.4414
 -13320229.30948 -10363547.30246  21799067.7034                   21799065.8794
 -26253568.64147 -20444948.90546  21816536.8364                   21816532.2234
 -15543502.41447 -12095850.25346  21673403.8754                   21673404.3164
 11  8 21  2 19 30.0000000  0  9G12G29G26G10G05G15G30G02G25
 -20830366.98447 -16219565.85546  21711077.9614                   21711075.4454
  -7382380.99247  -5739423.50545  22430985.3984                   22430984.0514
   -878372.56647   -670021.62244  23448134.0234                   23448133.2734
 -12299766.42647  -9573206.90143  23998490.5394                   23998488.0904
 -25498312.10548 -19856555.44147  20538484.7734                   20538482.3284
   6986377.73846   5458498.71843  24350876.6334                   24350876.0904
 -13329370.03148 -10370669.95846  21797328.2504                   21797326.3754
 -26246999.69147 -20439830.24046  21817786.8524                   21817782.5314
 -15567838.78948 -12114813.65246  21668772.9224                   21668773.3674
 11  8 21  2 20  0.0000000  0  9G12G29G26G10G05G15G30G02G25
 -20795092.69947 -16192079.42346  21717790.0004                   21717788.0004
  -7495483.74647  -5827555.46945  22409462.6644                   22409460.9694
  -1003962.20747   -767883.61544  23424234.7664                   23424233.4104
 -12225844.03946  -9515605.10443  24012556.4614                   24012555.2624
 -25496500.93748 -19855144.13247  20538829.3284                   20538826.3794
   6858710.59846   5359018.01244  24326581.8594                   24326581.9654
 -13337955.44548 -10377359.89546  21795694.5554                   21795692.5704
 -26240349.19947 -20434648.02646  21819052.6094                   21819047.9654
 -15591609.43048 -12133336.23546  21664249.6884                   21664249.8134
 11  8 21  2 20 30.0000000  0  9G12G29G26G10G05G15G30G02G25
 -20759426.29347 -16164287.43046  21724577.4844                   21724574.9964
  -7608479.43447  -5915604.01545  22387960.2664                   22387958.5004
  -1129426.35547   -865647.84044  23400360.1414                   23400358.3874
 -12151806.49646  -9457913.52943  24026645.6414                   24026643.8674
 -25494200.80148 -19853351.80547  20539267.1094                   20539264.2234
   6730961.23046   5259473.22444  24302272.5004                   24302271.5554
 -13345984.41047 -10383616.24146  21794166.5864                   21794164.9494
 -26233614.33647 -20429400.07446  21820334.1414                   21820329.6844
 -15614812.45748 -12151416.51746  21659834.0784                   21659834.5004
 11  8 21  2 21  0.0000000  0  9G12G29G26G10G05G15G30G02G25
 -20723372.74247 -16136193.76046  21731438.2344                   21731435.8364
  -7721368.13347  -6003569.18445  22366477.8754                   22366476.7194
  -1254763.50847   -963313.09744  23376508.7974                   23376507.6174
 -12077658.48846  -9400135.86943  24040756.0004                   24040754.2934
 -25491415.53148 -19851181.44547  20539797.2114                   20539794.4574
   6603130.24647   5159864.85944  24277946.5554                   24277946.4304
 -13353460.71148 -10389441.94046  21792744.0234                   21792742.5514
 -26226797.23847 -20424088.03245  21821631.4454                   21821626.6254
 -15637450.81648 -12169056.79946  21655526.1334                   21655526.4384
 11  8 21  2 21 30.0000000  0  9G12G29G26G10G05G15G30G02G25
 -20686936.67247 -16107802.02346  21738371.9614                   21738369.5984
  -7834150.03947  -6091451.12345  22345016.1024                   22345014.4534
  -1379972.30146  -1060878.29044  23352681.7734                   23352681.0124
 -12003404.60247  -9342275.73743  24054885.9774                   24054883.9884
 -25488149.50448 -19848636.47547  20540418.4304                   20540415.7114
   6475217.88747   5060193.06644  24253605.5234                   24253605.3754
 -13360388.14548 -10394839.94646  21791425.7034                   21791424.3134
 -26219900.06247 -20418713.60346  21822943.7344                   21822939.1484
 -15659527.51647 -12186259.43046  21651325.0234                   21651325.3324
 11  8 21  2 22  0.0000000  0  9G12G29G26G10G05G15G30G02G25
 -20650113.52047 -16079108.68546  21745379.2274                   21745377.1094
  -7946815.93047  -6179242.65245  22323576.8284                   22323575.1094
  -1505041.82847  -1158335.00644  23328881.3984                   23328881.2544
 -11929040.39847  -9284329.59743  24069036.5864                   24069034.9844
 -25484397.10948 -19845712.52647  20541132.6414                   20541129.7774
   6347234.46147   4960465.86844  24229251.0704                   24229250.6454
 -13366761.12948 -10399805.92246  21790212.8754                   21790211.6174
 -26212915.80947 -20413271.32546  21824272.8524                   21824268.4734
 -15681036.21148 -12203019.44546  21647232.3594                   21647232.5434
 11  8 21  2 22 30.0000000  0  9G12G29G26G10G05G15G30G02G25
 -20612906.52748 -16050116.23746  21752459.2734                   21752457.5554
  -8059364.44547  -6266942.74746  22302159.2664                   22302157.9844
  -1629969.10546  -1255680.88244  23305109.1254                   23305108.1994
 -11854568.82447  -9226299.78443  24083208.8284                   24083206.9574
 -25480160.65648 -19842411.38547  20541938.7114                   20541936.0004
   6219181.74247   4860684.66944  24204883.3364                   24204882.9694
 -13372581.89548 -10404341.60546  21789105.4924                   21789103.5084
 -26205844.93047 -20407761.56146  21825618.3524                   21825613.9494
 -15701978.37148 -12219338.01646  21643247.1564                   21643247.3754
 11  8 21  2 23  0.0000000  0  9G12G29G26G10G05G15G30G02G25
 -20575325.69547 -16020832.48046  21759610.6804                   21759608.7074
  -8171800.18047  -6354554.95545  22280763.5554                   22280761.8714
  -1754757.07447  -1352918.19544  23281362.8594                   23281361.2734
 -11779999.18446  -9168193.60343  24097397.9454                   24097396.5314
 -25475449.03148 -19838739.97947  20542835.3834                   20542832.2894
   6091055.72747   4760846.33144  24180502.0084                   24180501.0084
 -13377859.02348 -10408453.65746  21788101.0784                   21788099.0634
 -26198694.02747 -20402189.41946  21826979.1954                   21826974.4654
 -15722361.65648 -12235221.09946  21639368.3204                   21639368.7384
 11  8 21  2 23 30.0000000  0  9G12G29G26G10G05G15G30G02G25
 -20537365.95347 -15991253.47746  21766834.0234                   21766831.7114
  -8284113.51247  -6442071.75546  22259390.6724                   22259389.6684
  -1879394.73447  -1450038.34944  23257645.3834                   23257644.2114
 -11705326.29346  -9110006.96243  24111607.7734                   24111606.5664
 -25470256.70748 -19834693.99347  20543823.1954                   20543820.5004
   5962866.90247   4660959.08244  24156107.8364                   24156107.4344
 -13382586.69548 -10412137.57445  21787201.6804                   21787199.1294
 -26191455.65647 -20396549.12446  21828356.7504                   21828352.0944
 -15742179.63748 -12250663.68346  21635597.1414                   21635597.0164
 11  8 21  2 24  0.0000000  0  9G12G29G26G10G05G15G30G02G25
 -20499032.19547 -15961383.01946  21774129.0944                   21774126.6414
  -8396305.30947  -6529493.86545  22238041.9844                   22238039.7274
  -2003881.32847  -1547040.82244  23233956.1564                   23233955.0634
 -11630555.48046  -9051743.91743  24125836.3364                   24125834.8674
 -25464588.21948 -19830276.97347  20544902.0234                   20544899.1884
   5834615.08646   4561022.69244  24131702.5704                   24131701.5474
 -13386769.32447 -10415396.77345  21786405.6254                   21786403.4494
 -26184132.60247 -20390842.84145  21829749.8204                   21829745.5744
 -15761435.90248 -12265668.56546  21631932.7424                   21631933.0434
 11  8 21  2 24 30.0000000  0  9G12G29G26G10G05G15G30G02G25
 -20460333.05547 -15931227.86346  21781492.9224                   21781490.5984
  -8508378.70747  -6616823.71246  22216715.0634                   22216713.1724
  -2128218.27047  -1643926.68944  23210295.8444                   23210294.7114
 -11555694.54746  -8993410.82543  24140082.7664                   24140080.8914
 -25458450.90647 -19825494.64447  20546069.6094                   20546067.2114
   5706297.84446   4461035.34044  24107283.7814                   24107284.1094
 -13390414.08647 -10418236.84945  21785712.0474                   21785710.5474
 -26176730.00847 -20385074.60545  21831158.8754                   21831153.6994
 -15780136.79348 -12280240.69346  21628374.0234                   21628374.5594
 11  8 21  2 25  0.0000000  0  9G12G29G26G10G05G15G30G02G25
 -20421268.12547 -15900787.67046  21788926.8444                   21788924.7194
  -8620328.20347  -6704057.02445  22195411.7814                   22195409.3914
  -2252398.69946  -1740690.58444  23186664.9144                   23186663.4804
 -11480742.76646  -8935006.86643  24154344.7894                   24154342.8714
 -25451843.44547 -19820345.95547  20547327.0554                   20547324.6024
   5577921.14147   4361001.67744  24082855.4614                   24082854.2194
 -13393519.52747 -10420656.67546  21785121.3204                   21785119.2624
 -26169244.73047 -20379241.90545  21832583.0084                   21832578.5744
 -15798280.10948 -12294378.34646  21624921.3204                   21624921.7544
 11  8 21  2 25 30.0000000  0  9G12G29G26G10G05G15G30G02G25
 -20381841.50848 -15870065.65046  21796429.3834                   21796427.2304
  -8732153.50447  -6791193.54146  22174132.0634                   22174129.5044
  -2376420.51247  -1837330.88744  23163064.3054                   23163062.9344
 -11405704.03546  -8876535.13143  24168623.4924                   24168622.6884
 -25444769.59047 -19814833.85647  20548673.5234                   20548670.7074
   5449486.11746   4260922.51144  24058414.7034                   24058413.6844
 -13396089.00847 -10422658.87146  21784632.6024                   21784630.3204
 -26161678.20747 -20373345.90846  21834022.9454                   21834018.3484
 -15815868.44948 -12308083.54046  21621574.2814                   21621574.3834
 11  8 21  2 26  0.0000000  0  9G12G29G26G10G05G15G30G02G25
 -20342057.30148 -15839064.96046  21804000.2734                   21803997.8754
  -8843853.84047  -6878232.70345  22152875.5944                   22152874.0474
  -2500281.64547  -1933846.02044  23139494.6724                   23139493.4144
 -11330582.57846  -8817998.97143  24182919.3984                   24182917.2544
 -25437233.05548 -19808961.21347  20550107.4304                   20550104.6684
   5320994.10546   4160798.96444  24033963.0864                   24033962.4884
 -13398125.89547 -10424246.05145  21784244.3444                   21784242.4494
 -26154031.95747 -20367387.79845  21835477.8054                   21835473.6884
 -15832904.40248 -12321358.31046  21618332.7034                   21618332.7274
 11  8 21  2 26 30.0000000  0  9G12G29G26G10G05G15G30G02G25
 -20301918.90247 -15807788.29246  21811638.4304                   21811636.0744
  -8955427.34447  -6965173.03646  22131643.8914                   22131642.1804
  -2623978.77747  -2030233.33345  23115955.2894                   23115954.5594
 -11255381.02746  -8759400.35543  24197230.3754                   24197228.4804
 -25429235.44547 -19802729.30847  20551629.7734                   20551626.3364
   5192447.51247   4060632.90844  24009501.5474                   24009500.6454
 -13399632.27347 -10425419.85746  21783957.7894                   21783956.0634
 -26146306.06647 -20361367.61345  21836948.2504                   21836943.7584
 -15849389.31248 -12334203.68346  21615195.8284                   21615195.8364
 11  8 21  2 27  0.0000000  0  9G12G29G26G10G05G15G30G02G25
 -20261427.63347 -15776236.66246  21819343.6414                   21819341.2034
  -9066870.50447  -7052011.80045  22110437.0704                   22110435.1414
  -2747506.84047  -2126488.89145  23092449.1884                   23092447.4534
 -11180100.46546  -8700740.20043  24211555.8284                   24211553.7304
 -25420777.52748 -19796138.70847  20553238.8984                   20553236.1564
   5063850.39147   3960427.44344  23985030.0234                   23985029.4344
 -13400608.72347 -10426180.71945  21783772.1414                   21783770.4884
 -26138499.07847 -20355284.25045  21838433.6884                   21838429.3954
 -15865323.00448 -12346619.53846  21612163.4774                   21612163.6484
 11  8 21  2 27 30.0000000  0  9G12G29G26G10G05G15G30G02G25
 -20220585.14147 -15744411.35146  21827115.6954                   21827113.2624
  -9178180.46547  -7138746.78546  22089255.4614                   22089253.5864
  -2870860.83647  -2222608.81945  23068975.2194                   23068974.3594
 -11104742.10946  -8642019.43543  24225895.1484                   24225893.9104
 -25411860.39147 -19789190.28747  20554935.5944                   20554933.1884
   4935206.94947   3860185.91544  23960550.6724                   23960548.6564
 -13401056.21148 -10426529.41246  21783686.8834                   21783685.2344
 -26130610.12947 -20349137.00945  21839934.7034                   21839929.9884
 -15880705.57448 -12358605.95746  21609236.4224                   21609236.7974
 11  8 21  2 28  0.0000000  0  9G12G29G26G10G05G15G30G02G25
 -20179393.63748 -15712314.08546  21834953.9454                   21834952.1094
  -9289354.26247  -7225375.64546  22068099.5474                   22068097.9224
  -2994036.77747  -2318589.98545  23045535.7114                   23045534.1804
 -11029307.74246  -8583239.40743  24240250.1954                   24240248.2074
 -25402485.59048 -19781885.23147  20556719.5314                   20556716.8014
   4806520.13747   3759910.55444  23936062.3754                   23936060.8444
 -13400975.94548 -10426466.83846  21783702.0944                   21783700.4344
 -26122638.48447 -20342925.33845  21841451.9304                   21841447.8014
 -15895537.54748 -12370163.33246  21606414.2274                   21606414.4144
 11  8 21  2 28 30.0000000  0  9G12G29G26G10G05G15G30G02G25
 -20137855.42647 -15679946.66746  21842858.7664                   21842856.6804
  -9400389.15247  -7311896.29446  22046970.4304                   22046968.2894
  -3117030.21147  -2414428.95445  23022131.0234                   23022129.4104
 -10953799.27746  -8524401.69443  24254619.4534                   24254617.4414
 -25392654.66048 -19774224.75946  20558590.3134                   20558587.7034
   4677793.75847   3659604.35744  23911565.8284                   23911564.7974
 -13400369.33648 -10425994.15345  21783817.5234                   21783815.5664
 -26114583.21147 -20336648.48845  21842984.8754                   21842980.2344
 -15909819.53148 -12381292.14146  21603696.0704                   21603696.7304
 11  8 21  2 29  0.0000000  0  9G12G29G26G10G05G15G30G02G25
 -20095972.36347 -15647310.50346  21850828.4924                   21850826.1294
  -9511282.32847  -7398306.51246  22025868.0704                   22025865.9264
  -3239836.68047  -2510122.21244  22998761.6644                   22998760.0634
 -10878218.30946  -8465507.45643  24269002.0864                   24269000.3914
 -25382368.52047 -19766209.57147  20560547.9534                   20560545.1254
   4549031.41047   3559270.12544  23887063.0394                   23887061.7504
 -13399237.34848 -10425112.08346  21784033.0004                   21784031.3874
 -26106443.16847 -20330305.57545  21844533.6414                   21844528.9414
 -15923551.89148 -12391992.67546  21601083.2974                   21601082.9654
 11  8 21  2 29 30.0000000  0  9G12G29G26G10G05G15G30G02G25
 -20053746.27348 -15614407.08346  21858864.0164                   21858861.4614
  -9622030.50047  -7484603.75146  22004793.4614                   22004791.2344
  -3362451.84847  -2605666.42945  22975428.4454                   22975427.2384
 -10802566.25846  -8406557.84843  24283398.4224                   24283396.6134
 -25371628.70348 -19757840.87847  20562591.4064                   20562588.6174
   4420236.64147   3458910.68244  23862554.4304                   23862553.1484
 -13397581.35248 -10423821.65545  21784347.9924                   21784346.3874
 -26098217.94947 -20323896.32245  21846098.8364                   21846094.3404
 -15936735.03948 -12402265.25146  21598574.0704                   21598574.5084
 11  8 21  2 30  0.0000000  0  9G12G29G26G10G05G15G30G02G25
 -20011184.13347 -15581241.79046  21866963.1564                   21866961.1564
  -9732635.78547  -7570789.62046  21983745.9224                   21983744.1644
  -3484876.10947  -2701061.88045  22952131.7504                   22952130.6054
 -10726849.77746  -8347557.97343  24297806.2894                   24297805.4104
 -25360441.21148 -19749123.34747  20564720.5084                   20564717.7274
   4291407.93447   3358524.77244  23838038.9454                   23838037.8244
 -13395407.49247 -10422127.73745  21784761.6564                   21784759.8014
 -26089911.77047 -20317423.95845  21847679.3364                   21847675.0274
 -15949374.50048 -12412114.18046  21596169.0634                   21596169.5664
 11  8 21  2 30 30.0000000  0  9G12G29G26G10G05G15G30G02G25
 -19968288.55147 -15547816.66846  21875126.1484                   21875123.6294
  -9843094.98447  -7656861.69646  21962726.3594                   21962724.3054
  -3607104.64847  -2796304.84145  22928872.6414                   22928871.0474
 -10651070.46946  -8288509.31443  24312227.0234                   24312225.2194
 -25348807.24648 -19740057.92147  20566934.3594                   20566932.0274
   4162549.25047   3258115.46744  23813517.4224                   23813516.5004
 -13392716.93748 -10420031.19145  21785273.8754                   21785272.1294
 -26081523.15247 -20310887.38245  21849275.7814                   21849271.8954
 -15961470.65648 -12421539.74346  21593867.2814                   21593867.3324
 11  8 21  2 31  0.0000000  0  9G12G29G26G10G05G15G30G02G25
 -19925061.49648 -15514133.26746  21883351.9534                   21883349.9804
  -9953405.64547  -7742818.00846  21941734.7734                   21941732.6604
  -3729133.37947  -2891392.09544  22905650.9304                   22905649.4844
 -10575230.16046  -8229412.86743  24326658.1174                   24326657.2584
 -25336728.82048 -19730646.16047  20569232.5864                   20569230.0744
   4033664.09447   3157685.59044  23788992.0084                   23788990.9844
 -13389511.12948 -10417533.14845  21785883.8444                   21785881.5204
 -26073051.32847 -20304285.95445  21850888.1954                   21850883.9844
 -15973024.19548 -12430542.48446  21591668.8444                   21591669.1644
 11  8 21  2 31 30.0000000  0  9G12G29G26G10G05G15G30G02G25
 -19881503.94147 -15480192.32646  21891640.4144                   21891638.3914
 -10063563.45748  -7828655.21846  21920772.2974                   21920770.1254
  -3850956.51247  -2986319.15244  22882468.8754                   22882467.3324
 -10499329.21146  -8170269.33642  24341102.0634                   24341100.7464
 -25324206.19548 -19720888.25946  20571615.9924                   20571612.9804
   3904757.09046   3057238.66444  23764461.8674                   23764460.2114
 -13385790.27748 -10414633.76945  21786591.7344                   21786590.2734
 -26064494.69947 -20297618.44945  21852516.1334                   21852511.7734
 -15984034.60548 -12439122.03146  21589573.3134                   21589573.4264
 11  8 21  2 32  0.0000000  0  9G12G29G26G10G05G15G30G02G25
 -19837621.78147 -15445998.44646  21899991.0784                   21899989.3914
 -10173569.73847  -7914374.36346  21899838.6724                   21899836.9534
  -3972574.19947  -3081086.11544  22859325.2974                   22859324.4614
 -10423373.58246  -8111083.15642  24355555.0784                   24355554.4494
 -25311244.31247 -19710788.07447  20574082.3134                   20574079.7194
   3775827.81346   2956774.40444  23739926.7114                   23739925.6024
 -13381559.93048 -10411337.37645  21787396.9064                   21787395.3524
 -26055856.30947 -20290887.22645  21854160.0314                   21854155.6524
 -15994506.74648 -12447282.11946  21587580.4694                   21587580.7154
 11  8 21  2 32 30.0000000  0  9G12G29G26G10G05G15G30G02G25
 -19793415.57848 -15411552.07746  21908403.2974                   21908401.0554
 -10283419.62147  -7999971.63446  21878934.7034                   21878932.9734
  -4093979.69147  -3175687.71744  22836222.5944                   22836221.4884
 -10347362.91445  -8051854.15242  24370020.1644                   24370018.6684
 -25297842.66448 -19700345.22447  20576632.4454                   20576629.6484
   3646881.49646   2856296.89644  23715388.8054                   23715388.0664
 -13376819.54748 -10407643.56145  21788298.7894                   21788296.8014
 -26047133.31647 -20284090.08245  21855820.1334                   21855815.7234
 -16004439.25048 -12455021.73046  21585690.4924                   21585691.1024
 11  8 21  2 33  0.0000000  0  9G12G29G26G10G05G15G30G02G25
 -19748888.43447 -15376855.61546  21916876.5234                   21916874.2304
 -10393111.03947  -8085445.42646  21858060.9844                   21858059.2504
  -4215169.43747  -3270121.23444  22813160.9774                   22813159.5084
 -10271299.27046  -7992583.76642  24384495.0944                   24384493.1684
 -25284003.77348 -19689561.65846  20579266.1024                   20579263.4494
   3517921.04346   2755808.33544  23690848.3134                   23690848.0004
 -13371571.30948 -10403554.01945  21789297.6564                   21789295.7274
 -26038325.57048 -20277226.90145  21857496.2894                   21857492.2814
 -16013833.64148 -12462342.02046  21583903.0474                   21583903.0354
 11  8 21  2 33 30.0000000  0  9G12G29G26G10G05G15G30G02G25
 -19704045.45347 -15341913.06346  21925410.2584                   21925407.7194
 -10502643.84447  -8170795.62146  21837218.2274                   21837215.7774
  -4336142.23447  -3364385.68944  22790141.3834                   22790138.8714
 -10195187.51246  -7933275.90043  24398978.7424                   24398976.9774
 -25269732.19948 -19678440.94346  20581981.8054                   20581978.9224
   3388947.03146   2655309.21744  23666304.8984                   23666304.9064
 -13365819.83248 -10399072.34245  21790392.0004                   21790390.4304
 -26029435.50047 -20270299.56145  21859187.8674                   21859183.5124
 -16022693.78948 -12469246.03446  21582216.5004                   21582217.2544
 11  8 21  2 34  0.0000000  0  9G12G29G26G10G05G15G30G02G25
 -19658887.73848 -15306725.25246  21934003.2734                   21934001.0434
 -10612014.66447  -8256019.58946  21816405.2504                   21816403.4614
  -4456892.62947  -3458476.84744  22767162.9384                   22767161.0944
 -10119028.35246  -7873931.14943  24413471.4144                   24413469.6644
 -25255028.52748 -19666983.52846  20584779.6024                   20584777.0124
   3259964.12947   2554803.17044  23641760.8914                   23641759.7934
 -13359565.52048 -10394198.84045  21791582.2344                   21791580.5044
 -26020461.19547 -20263306.60545  21860895.3444                   21860891.2234
 -16031019.39148 -12475733.51146  21580632.3914                   21580632.7974
 11  8 21  2 34 30.0000000  0 10G12G29G26G10G05G15G30G02G25G21
 -19613419.52348 -15271295.49746  21942655.9694                   21942653.0164
 -10721222.18447  -8341116.32146  21795623.8524                   21795622.2974
  -4577418.30547  -3552392.90744  22744227.5944                   22744225.7074
 -10042825.40646  -7814552.26843  24427972.5084                   24427969.8954
 -25239896.26648 -19655192.14646  20587659.5784                   20587656.7544
   3130973.77046   2454291.29244  23617215.1254                   23617213.6684
 -13352812.09848 -10388936.44146  21792867.3134                   21792865.5864
 -26011404.17248 -20256249.17545  21862619.2274                   21862614.5474
 -16038813.39548 -12481806.77346  21579149.5784                   21579149.8204
   9320557.49656   7273260.58753  25047075.6094                   25047074.1294
 11  8 21  2 35  0.0000000  0 10G12G29G26G10G05G15G30G02G25G21
 -19567652.35248 -15235632.77646  21951364.5314                   21951362.4574
 -10830272.66047  -8426090.67446  21774872.3054                   21774870.5944
  -4697723.79347  -3646137.38045  22721333.8984                   22721332.6484
  -9966589.31246  -7755147.49043  24442479.7424                   24442476.9024
 -25224345.83648 -19643074.92546  20590618.5704                   20590615.8364
   3001970.51247   2353769.38844  23592666.5784                   23592665.2504
 -13345570.07848 -10383293.30045  21794245.5634                   21794243.8984
 -26002272.19947 -20249133.33745  21864357.2734                   21864352.5984
 -16046085.66048 -12487473.46446  21577765.8364                   21577765.9734
   9231875.64846   7204158.04243  25030199.9384                   25030198.9024
 11  8 21  2 35 30.0000000  0  9G12G29G26G05G15G30G02G25G21
 -19521589.89148 -15199739.96246  21960130.0314                   21960127.7854
 -10939165.15248  -8510941.92946  21754150.3674                   21754148.6374
  -4817806.24247  -3739708.05744  22698483.1094                   22698481.3444
 -25208380.16448 -19630634.12446  20593656.8754                   20593653.9494
   2872956.39147   2253238.99044  23568116.2894                   23568114.4534
 -13337842.63348 -10377271.92745  21795715.7194                   21795714.0864
 -25993065.99648 -20241959.66445  21866108.9384                   21866104.4614
 -16052838.55548 -12492735.46246  21576480.5394                   21576480.9844
   9143192.64846   7135054.53843  25013323.8134                   25013323.1564
 11  8 21  2 36  0.0000000  0  9G12G29G26G05G15G30G02G25G21
 -19475230.14148 -15163615.50546  21968952.2584                   21968950.4264
 -11047892.16048  -8595664.22746  21733460.3204                   21733458.0004
  -4937656.93447  -3833098.13445  22675676.0634                   22675674.5234
 -25191996.72348 -19617867.79746  20596774.2344                   20596771.1094
   2743939.08247   2152706.14144  23543564.5554                   23543563.1804
 -13329626.97748 -10370870.11545  21797279.2734                   21797277.5044
 -25983780.56248 -20234724.26545  21867875.4304                   21867871.3134
 -16059068.72748 -12497590.13846  21575294.5314                   21575295.1484
   9054513.13746   7065953.76143  24996448.9774                   24996447.9414
 11  8 21  2 36 30.0000000  0  9G12G29G26G05G15G30G02G25G21
 -17853149.70748 -13899656.73446  22277623.9144                   22277622.1684
  -9581019.65248  -7452646.66046  22012596.9534                   22012595.1484
  -3481840.70347  -2698695.81845  22952708.2894                   22952706.9694
 -23599770.43048 -18377171.97746  20899765.0394                   20899761.8634
   4190353.82047   3279782.63544  23818807.8834                   23818806.2734
 -11745497.92248  -9136483.84345  22098729.2424                   22098726.9064
 -24398988.27348 -18999821.18545  22169451.3524                   22169447.0314
 -14489349.66848 -11274432.45046  21874002.7504                   21874003.0434
  10541266.92246   8224463.30243  25279368.7734                   25279366.6024
 11  8 21  2 37  0.0000000  0  9G12G29G26G05G15G30G02G25G21
 -17806186.53147 -13863062.06546  22286560.6484                   22286558.4454
  -9689391.32448  -7537092.07646  21991974.6414                   21991973.0164
  -3601199.92647  -2791702.97145  22929995.4614                   22929993.7114
 -23582540.97748 -18363746.42046  20903043.9774                   20903040.6564
   4061356.30947   3179265.17244  23794260.9454                   23794258.8364
 -11736295.49248  -9129313.12545  22100480.3984                   22100478.4494
 -24389526.47748 -18992448.35345  22171252.0394                   22171247.7114
 -14494521.80148 -11278462.67146  21873018.3204                   21873018.3594
  10452609.21546   8155379.52943  25262497.1564                   25262495.7664
 11  8 21  2 37 30.0000000  0  9G12G29G26G05G15G30G02G25G21
 -17758922.82047 -13826233.21146  22295554.6804                   22295552.2664
  -9797578.63348  -7621393.83446  21971387.1884                   21971385.2154
  -3720304.30947  -2884511.51445  22907330.7194                   22907328.8524
 -23564888.25848 -18349991.04546  20906402.8204                   20906399.8834
   3932376.78147   3078761.73344  23769716.3054                   23769714.5354
 -11726599.71948  -9121757.98145  22102325.3674                   22102323.9224
 -24379972.84448 -18985003.96345  22173070.1174                   22173065.8244
 -14499163.90248 -11282079.89646  21872135.1334                   21872135.1954
  10363965.03546   8086306.29443  25245629.0314                   25245627.8834
 11  8 21  2 38  0.0000000  0  9G12G29G26G05G15G30G02G25G21
 -17711368.20347 -13789177.65746  22304603.9844                   22304601.3484
  -9905585.57848  -7705555.03646  21950834.1334                   21950832.4804
  -3839156.55147  -2977123.58045  22884714.0784                   22884711.8244
 -23546821.13348 -18335912.76746  20909840.7974                   20909838.1684
   3803411.68447   2978269.50344  23745175.0634                   23745173.6484
 -11716419.34047  -9113825.23645  22104262.8524                   22104260.7384
 -24370333.58248 -18977492.85645  22174904.5234                   22174900.0944
 -14503284.04748 -11285290.38946  21871350.9924                   21871351.3164
  10275327.50046   8017238.18043  25228761.6564                   25228760.8164
 11  8 21  2 38 30.0000000  0  9G12G29G26G05G15G30G02G25G21
 -17663524.34447 -13751896.74346  22313708.4304                   22313706.4064
 -10013408.90248  -7789573.17946  21930316.0004                   21930313.8524
  -3957751.95747  -3069535.52745  22862145.6954                   22862144.4574
 -23528341.02348 -18321512.68346  20913357.3284                   20913354.3984
   3674464.94947   2877791.66444  23720637.0004                   23720635.5704
 -11705755.79747  -9105515.99245  22106292.1334                   22106290.1214
 -24360607.35548 -18969913.98145  22176755.3834                   22176750.6804
 -14506882.94948 -11288094.73046  21870666.0164                   21870666.6454
  10186696.87146   7948175.50842  25211895.0944                   25211894.2424
 11  8 21  2 39  0.0000000  0  9G12G29G26G05G15G30G02G25G21
 -17615396.27048 -13714394.34346  22322866.8284                   22322864.2344
 -10121048.95348  -7873448.48946  21909832.7584                   21909830.3634
  -4076089.16447  -3161746.29445  22839626.4224                   22839625.3634
 -23509451.96548 -18306793.94146  20916951.7344                   20916949.1334
   3545537.24646   2777328.58244  23696102.8914                   23696101.8204
 -11694613.64147  -9096833.78945  22108412.2894                   22108410.4264
 -24350796.34448 -18962269.04045  22178622.1024                   22178617.9614
 -14509964.48048 -11290495.91946  21870079.3134                   21870080.1054
  10098070.76646   7879116.24642  25195030.5234                   25195028.5394
 11  8 21  2 39 30.0000000  0  9G12G29G26G05G15G30G02G25G21
 -17566984.07047 -13676670.55946  22332079.1484                   22332077.3324
 -10228500.09447  -7957176.61146  21889385.5554                   21889383.2304
  -4194161.36747  -3253750.55145  22817158.1174                   22817156.9964
 -23490153.58248 -18291756.24746  20920624.2734                   20920621.4774
   3416634.41047   2676884.90444  23671573.6254                   23671572.0514
 -11682992.39547  -9087778.29545  22110623.4774                   22110621.9414
 -24340897.19948 -18954555.42945  22180505.6954                   22180501.7194
 -14512527.50048 -11292493.07346  21869592.2894                   21869591.7234
  10009451.28146   7810062.16343  25178166.5474                   25178165.7734
 11  8 21  2 40  0.0000000  0  9G12G29G26G05G15G30G02G25G21
 -17518294.08247 -13638730.32346  22341344.9384                   22341342.6094
 -10335763.46147  -8040758.41346  21868973.7344                   21868971.7274
  -4311968.18047  -3345548.00445  22794740.5864                   22794738.9574
 -23470451.39847 -18276403.89646  20924373.4304                   20924370.6604
   3287756.18446   2576460.37544  23647048.8524                   23647047.2234
 -11670897.63747  -9078353.80845  22112925.2584                   22112923.1484
 -24330913.19147 -18946775.67545  22182405.4384                   22182401.0124
 -14514576.91048 -11294090.01346  21869201.7974                   21869202.0164
   9920834.80146   7741010.53943  25161303.3204                   25161302.5084
 11  8 21  2 40 30.0000000  0  9G12G29G26G05G15G30G02G25G21
 -17469327.44147 -13600574.49946  22350662.5234                   22350660.3164
 -10442835.06648  -8124190.78646  21848599.0164                   21848596.7624
  -4429504.18047  -3437134.44545  22772374.0704                   22772372.0434
 -23450345.94148 -18260737.30646  20928199.3134                   20928196.4774
   3158907.05546   2476058.56444  23622529.6564                   23622528.6334
 -11658330.13347  -9068560.96845  22115316.8204                   22115314.8404
 -24320842.17647 -18938928.14745  22184322.4774                   22184317.5744
 -14516112.80948 -11295286.82246  21868909.7584                   21868909.7274
   9832222.26646   7671961.84343  25144440.9224                   25144440.1764
 11  8 21  2 41  0.0000000  0  9G12G29G26G05G15G30G02G25G21
 -17420093.32047 -13562210.26945  22360032.0234                   22360029.9844
 -10549718.36748  -8207476.43046  21828259.7194                   21828257.6214
  -4546771.49647  -3528511.53045  22750058.6954                   22750056.9384
 -23429845.29748 -18244762.77046  20932100.9694                   20932097.9064
   3030084.57847   2375677.50544  23598015.6884                   23598014.0434
 -11645298.12148  -9058406.14745  22117796.1094                   22117794.6334
 -24310690.25048 -18931017.55045  22186254.7344                   22186249.4884
 -14517142.76648 -11296089.37546  21868713.7344                   21868714.1604
   9743607.06646   7602911.08343  25127577.7734                   25127576.9574
 11  8 21  2 41 30.0000000  0  9G12G29G26G05G15G30G02G25G21
 -17370590.77047 -13523636.84746  22369451.6484                   22369449.3914
 -10656407.25048  -8290610.58646  21807957.1024                   21807955.1054
  -4663762.72347  -3619673.48445  22727796.0634                   22727794.3524
 -23408948.33648 -18228479.42446  20936077.2584                   20936074.5704
   2901295.25447   2275322.25745  23573507.7584                   23573505.9224
 -11631800.38348  -9047888.43345  22120365.2344                   22120363.3164
 -24300453.03548 -18923040.50845  22188202.1414                   22188197.9454
 -14517664.96948 -11296496.27546  21868614.3914                   21868614.6604
   9654992.75046   7533861.16943  25110715.0314                   25110714.5044
 11  8 21  2 42  0.0000000  0  9G12G29G26G05G15G30G02G25G21
 -17320821.03547 -13484855.25946  22378922.5084                   22378920.0984
 -10762898.34848  -8373590.62646  21787692.5394                   21787690.3244
  -4780472.54347  -3710616.14945  22705586.5864                   22705585.0394
 -23387655.75848 -18211887.81547  20940129.0314                   20940126.2544
   2772543.63747   2174996.42545  23549007.0394                   23549005.8524
 -11617837.94947  -9037008.62745  22123022.2114                   22123019.9804
 -24290128.60248 -18914995.49445  22190166.6174                   22190162.4734
 -14517679.66448 -11296507.72746  21868611.7424                   21868612.0234
   9566380.17246   7464812.41843  25093852.6334                   25093851.6954
 11  8 21  2 42 30.0000000  0  9G12G29G26G05G15G30G02G25G21
 -17270790.50847 -13445870.44546  22388443.2734                   22388440.8404
 -10869192.13747  -8456416.91746  21767465.4774                   21767463.5204
  -4896900.47347  -3801339.16645  22683431.1644                   22683429.4964
 -23365972.69948 -18194991.92246  20944255.1644                   20944252.0704
   2643829.78147   2074699.97945  23524513.4924                   23524512.3244
 -11603416.39147  -9025771.06145  22125766.5864                   22125765.1724
 -24279720.13747 -18906884.99945  22192147.4774                   22192142.8094
 -14517191.84048 -11296127.60046  21868704.2344                   21868704.9694
   9477765.93046   7395762.47443  25076989.9924                   25076988.3834
 11  8 21  2 43  0.0000000  0  9G12G29G26G05G15G30G02G25G21
 -17220498.85547 -13406682.14845  22398013.6094                   22398011.3984
 -10975282.96948  -8539085.05246  21747277.2034                   21747274.8244
  -5013039.42247  -3891837.00945  22661330.7274                   22661329.3054
 -23343898.06248 -18177790.91147  20948456.0314                   20948452.8244
   2515159.64846   1974437.64845  23500027.8834                   23500027.0594
 -11588534.93747  -9014175.11445  22128597.7734                   22128596.2424
 -24269224.00847 -18898706.16745  22194144.8674                   22194140.2774
 -14516200.07848 -11295354.79546  21868893.0394                   21868893.0904
   9389152.40246   7326713.01343  25060127.4924                   25060126.1414
 11  8 21  2 43 30.0000000  0  9G12G29G26G05G15G30G02G25G21
 -17169949.20747 -13367292.82045  22407632.7814                   22407630.3674
 -11081168.68447  -8621593.37246  21727127.5084                   21727125.8284
  -5128885.91447  -3982106.96945  22639286.2114                   22639284.4304
 -23321435.01648 -18160287.23746  20952730.4304                   20952727.7384
   2386536.28947   1874211.72745  23475552.1884                   23475550.4384
 -11573196.18447  -9002222.85145  22131517.5164                   22131515.2074
 -24258639.84047 -18890458.78045  22196158.9384                   22196153.9804
 -14514706.26648 -11294190.78646  21869177.2974                   21869177.7704
   9300539.20746   7257663.85543  25043264.7274                   25043263.1484
 11  8 21  2 44  0.0000000  0  9G12G29G26G05G15G30G02G25G21
 -17119149.24247 -13327708.43845  22417299.7034                   22417297.4144
 -11186851.68048  -8703943.72346  21707016.8594                   21707014.7734
  -5244440.82847  -4072149.70245  22617296.5084                   22617294.4414
 -23298590.19148 -18142486.07046  20957077.4844                   20957074.8914
   2257957.89147   1774020.86145  23451083.9774                   23451082.8284
 -11557407.40247  -8989919.90545  22134521.3204                   22134519.9304
 -24247972.27047 -18882146.39645  22198188.8204                   22198184.2854
 -14512717.21148 -11292640.88146  21869555.9844                   21869556.0274
   9211920.51646   7188610.48243  25026400.9844                   25026399.4844
 11  8 21  2 44 30.0000000  0  9G12G29G26G05G15G30G02G25G21
 -17068094.95747 -13287925.90446  22427015.0634                   22427012.6724
 -11292323.06248  -8786129.18546  21686946.1484                   21686943.7934
  -5359694.16847  -4161957.43945  22595364.5864                   22595362.7424
 -23275359.32448 -18124384.09346  20961498.1804                   20961495.4184
   2129434.08247   1673872.49844  23426627.0944                   23426625.3364
 -11541164.70747  -8977263.27445  22137612.6334                   22137610.9104
 -24237214.48848 -18873763.71145  22200236.1254                   22200231.6884
 -14510228.19148 -11290701.38946  21870029.5314                   21870029.6684
   9123303.08246   7119557.97643  25009536.8754                   25009536.6564
 11  8 21  2 45  0.0000000  0  9G12G29G26G05G15G30G02G25G21
 -17016787.60547 -13247946.17045  22436778.6564                   22436776.3324
 -11397578.09448  -8868146.07746  21666916.7034                   21666914.2664
  -5474639.32847  -4251525.08345  22573491.1564                   22573489.2934
 -23251742.45748 -18105981.33446  20965992.0394                   20965989.6134
   2000970.22747   1573770.86144  23402181.0474                   23402178.8954
 -11524467.99647  -8964252.85145  22140789.7664                   22140788.0274
 -24226363.94948 -18865308.76245  22202300.9774                   22202296.5784
 -14507238.62948 -11288371.88046  21870598.5394                   21870598.3324
   9034688.34046   7050507.60843  24992675.0944                   24992673.7774
 11  8 21  2 45 30.0000000  0  9G12G29G26G05G15G30G02G25G21
 -16965239.31647 -13207778.67445  22446587.6484                   22446585.6214
 -11502623.48848  -8949999.59946  21646927.2034                   21646925.2544
  -5589281.99247  -4340856.96545  22551675.2894                   22551673.2664
 -23227750.82848 -18087286.55546  20970558.0164                   20970555.2344
   1872560.47347   1473711.40844  23377745.0784                   23377743.3984
 -11507329.09047  -8950897.87645  22144051.3364                   22144049.3954
 -24215429.02348 -18856788.03545  22204382.2114                   22204377.5354
 -14503759.64148 -11285660.97246  21871260.5164                   21871260.3594
   8946066.71546   6981451.87542  24975810.0784                   24975808.9924
 11  8 21  2 46  0.0000000  0  9G12G29G26G05G15G30G02G25G21
 -16913450.10247 -13167423.47445  22456442.8674                   22456440.5354
 -11607454.04748  -9031685.71046  21626978.8284                   21626976.6644
  -5703615.59047  -4429948.05145  22529918.2504                   22529917.0044
 -23203383.95748 -18068299.38046  20975194.5474                   20975191.8244
   1744210.68447   1373698.66344  23353321.0394                   23353319.2274
 -11489747.73847  -8937198.12645  22147396.9924                   22147395.2344
 -24204406.75848 -18848199.26845  22206479.2114                   22206475.0004
 -14499790.36748 -11282568.04146  21872015.7814                   21872016.0354
   8857441.07046   6912393.05743  24958946.0314                   24958944.7114
 11  8 21  2 46 30.0000000  0  9G12G29G26G05G15G30G02G25G21
 -16861420.51247 -13126880.94845  22466343.5394                   22466341.5514
 -11712064.94948  -9113200.66946  21607071.8984                   21607070.0044
  -5817634.43047  -4518793.85745  22508221.3674                   22508219.0594
 -23178642.20748 -18049020.09446  20979902.5554                   20979900.1684
   1615926.18847   1273736.80144  23328909.9064                   23328907.8834
 -11471724.26247  -8923153.84945  22150826.7584                   22150824.4884
 -24193294.72348 -18839540.53745  22208593.9924                   22208589.4924
 -14495330.50448 -11279092.84246  21872864.4844                   21872864.8594
   8768812.55946   6843331.98643  24942080.0864                   24942078.3054
 11  8 21  2 47  0.0000000  0  9G12G29G26G05G15G30G02G25G21
 -16809151.44947 -13086151.83545  22476290.1334                   22476288.0434
 -11816452.23048  -9194541.37346  21587207.8444                   21587205.5164
  -5931332.66047  -4607389.85445  22486585.4924                   22486583.4304
 -23153526.08248 -18029449.09246  20984682.4384                   20984679.5904
   1487711.86747   1173829.62144  23304511.1334                   23304509.5514
 -11453259.53547  -8908765.76245  22154340.5864                   22154338.4494
 -24182090.80147 -18830810.21245  22210726.0554                   22210721.4844
 -14490380.41448 -11275235.64446  21873806.8134                   21873806.9304
   8680182.48046   6774269.63743  24925214.8284                   24925213.0474
 11  8 21  2 47 30.0000000  0  9G12G29G26G05G15G30G02G25G21
 -16756650.34447 -13045241.88945  22486281.1414                   22486278.8444
 -11920617.42248  -9275709.03146  21567385.6564                   21567383.6054
  -6044710.59847  -4695736.25645  22465010.1724                   22465008.1094
 -23128041.84048 -18009591.23146  20989531.8364                   20989529.1954
   1359566.50047   1073976.16944  23280125.4144                   23280123.8164
 -11434360.19947  -8894038.99745  22157936.7114                   22157935.2504
 -24170798.56248 -18822011.04945  22212875.1254                   22212870.3134
 -14484945.94548 -11271001.00146  21874840.3524                   21874840.1914
   8591546.40246   6705202.66843  24908347.8834                   24908346.0164
 11  8 21  2 48  0.0000000  0  9G12G29G26G05G15G30G02G25G21
 -16703921.97347 -13004154.87445  22496314.7424                   22496312.3634
 -12024560.23448  -9356703.39546  21547606.0704                   21547604.0204
  -6157766.61347  -4783831.79945  22443495.9844                   22443494.0314
 -23102193.79348 -17989449.89446  20994450.3674                   20994447.6804
   1231491.31647    974177.39244  23255753.9224                   23255751.6994
 -11415030.59448  -8878976.98545  22161615.3204                   22161612.9574
 -24159419.63747 -18813144.36645  22215040.1954                   22215035.6374
 -14479031.03148 -11266391.99046  21875966.2504                   21875966.1564
   8502902.27046   6636129.40043  24891479.1334                   24891477.4184
 11  8 21  2 48 30.0000000  0  9G12G29G26G05G15G30G02G25G21
 -16650970.41047 -12962893.94245  22506391.2344                   22506388.6134
 -12128279.03148  -9437523.20046  21527869.3444                   21527866.7974
  -6270497.78547  -4871674.23545  22422044.1024                   22422042.3324
 -23075985.22748 -17969027.63846  20999437.7894                   20999435.2934
   1103488.73847    874435.20645  23231395.2114                   23231393.7344
 -11395274.58247  -8863582.70045  22165374.2504                   22165372.5204
 -24147954.62548 -18804210.60645  22217221.8444                   22217217.3404
 -14472638.74248 -11261411.01246  21877182.5784                   21877182.8444
   8414248.05946   6567048.26143  24874608.4384                   24874607.5864
 11  8 21  2 49  0.0000000  0  9G12G29G26G05G15G30G02G25G21
 -16597793.25047 -12921457.18845  22516510.6484                   22516508.2504
 -12231766.07448  -9518162.42246  21508176.0704                   21508173.6764
  -6382895.02347  -4959256.44645  22400655.6724                   22400653.9024
 -23049412.64148 -17948321.72946  21004494.3984                   21004491.6844
    975567.59847    774756.47845  23207053.3054                   23207051.2344
 -11375089.22747  -8847853.85045  22169215.4924                   22169214.1134
 -24136397.53948 -18795205.08045  22219421.1884                   22219416.4104
 -14465765.66048 -11256055.39046  21878490.5164                   21878490.5204
   8325589.02346   6497963.42843  24857737.0864                   24857736.2274
 11  8 21  2 49 30.0000000  0  9G12G29G26G05G15G30G02G25G21
 -16544392.40647 -12879846.16545  22526672.5784                   22526669.9494
 -12335018.19148  -9598618.58146  21488527.9384                   21488525.7974
  -6494953.89847  -5046575.00545  22379331.1174                   22379329.9454
 -23022478.09448 -17927333.76846  21009620.1644                   21009617.1724
    847731.24247    675143.78845  23182726.8134                   23182724.9924
 -11354476.42647  -8831791.94345  22173137.9774                   22173136.1644
 -24124747.42647 -18786127.07245  22221637.7814                   22221633.8674
 -14458413.07848 -11250326.11746  21879889.7424                   21879890.1644
   8236925.77046   6428875.27643  24840865.0634                   24840863.5634
 11  8 21  2 50  0.0000000  0  9G12G29G26G05G15G30G02G25G21
 -16490774.12147 -12838065.70345  22536875.4694                   22536873.6844
 -12438035.75848  -9678891.96946  21468924.4384                   21468921.8134
  -6606673.59847  -5133629.26345  22358071.5944                   22358069.9224
 -22995186.93448 -17906067.94346  21014813.3674                   21014810.2034
    719979.90247    575597.34045  23158416.5084                   23158414.9384
 -11333441.93747  -8815401.43145  22177141.1414                   22177139.3524
 -24113006.75047 -18776978.52345  22223872.0554                   22223868.0234
 -14450586.19548 -11244227.26146  21881379.2814                   21881379.3754
   8148254.20346   6359780.67443  24823991.2114                   24823990.0314
 11  8 21  2 50 30.0000000  0  9G12G29G26G05G15G30G02G25G21
 -16436941.68447 -12796118.35445  22547119.5784                   22547117.0664
 -12540816.68748  -9758980.97346  21449365.4844                   21449363.6174
  -6718050.82447  -5220416.67045  22336876.5944                   22336875.5314
 -22967541.51648 -17884526.06046  21020074.4304                   21020071.1294
    592316.67647    476119.57145  23134122.6644                   23134120.8444
 -11311988.53547  -8798684.51745  22181223.6334                   22181221.8484
 -24101175.42247 -18767759.30845  22226123.2194                   22226119.4574
 -14442287.21948 -11237760.53746  21882958.5784                   21882958.1454
   8059573.76246   6290679.15243  24807115.9144                   24807114.6374
 11  8 21  2 51  0.0000000  0  9G12G29G26G05G15G30G02G25G21
 -16382901.95347 -12754009.48745  22557403.3134                   22557400.6804
 -12643362.74648  -9838886.95046  21429851.5944                   21429849.1644
  -6829085.79747  -5306937.37945  22315748.2664                   22315746.1024
 -22939548.34448 -17862713.21146  21025401.0554                   21025398.3014
    464740.20747    376709.38945  23109845.5784                   23109844.0474
 -11290123.14147  -8781646.54045  22185384.0554                   22185382.5514
 -24089257.43748 -18758472.55245  22228391.6724                   22228387.2234
 -14433522.48048 -11230930.87946  21884626.3364                   21884626.1644
   7970880.14146   6221567.35143  24790238.0784                   24790236.2504
 11  8 21  2 51 30.0000000  0  9G12G29G26G05G15G30G02G25G21
 -16328651.93447 -12711736.77345  22567726.4144                   22567724.2034
 -12745665.24248  -9918603.14246  21410384.2974                   21410382.0164
  -6939768.80547  -5393183.82945  22294685.3444                   22294683.8204
 -22911203.90648 -17840626.62946  21030794.3594                   21030791.6804
    337259.65647    277373.94945  23085586.4534                   23085584.7894
 -11267842.37147  -8764284.90945  22189624.5474                   22189622.1994
 -24077246.10947 -18749113.07845  22230677.4454                   22230672.6484
 -14424287.99648 -11223735.19246  21886383.5704                   21886384.0204
   7882178.78146   6152449.52243  24773358.6094                   24773356.9414
 11  8 21  2 52  0.0000000  0  9G12G29G26G05G15G30G02G25G21
 -16274198.85547 -12669305.81045  22578089.1564                   22578085.9654
 -12847726.18448  -9998131.09846  21390962.3834                   21390960.1764
  -7050100.34047  -5479156.42345  22273690.1174                   22273688.8364
 -22882514.50048 -17818271.25646  21036253.7814                   21036251.5164
    209874.46947    178112.80645  23061346.3284                   23061344.0904
 -11245153.03947  -8746604.91745  22193942.1724                   22193939.8874
 -24065145.20347 -18739683.80545  22232979.8674                   22232975.7704
 -14414589.98848 -11216178.32146  21888229.0944                   21888229.6094
   7793465.40646   6083322.35743  24756476.4534                   24756475.3404
 11  8 21  2 52 30.0000000  0  9G12G29G26G05G15G30G02G25G21
 -16219541.96147 -12626716.04045  22588489.4144                   22588487.2854
 -12949539.60548 -10077466.18346  21371588.1954                   21371585.5314
  -7160073.34847  -5564849.61145  22252763.2974                   22252761.2234
 -22853479.28148 -17795646.42746  21041779.5164                   21041776.3014
     82591.10547     78931.02145  23037124.7504                   23037123.2704
 -11222054.52747  -8728606.07045  22198337.5084                   22198335.0514
 -24052950.82847 -18730181.70145  22235300.5004                   22235296.0234
 -14404427.41448 -11208259.43646  21890162.7814                   21890163.1764
   7704742.57846   6014187.82043  24739593.0784                   24739591.3324
 11  8 21  2 53  0.0000000  0  9G12G29G26G05G15G30G02G25G21
 -16164685.68047 -12583970.90845  22598928.1724                   22598926.4024
 -13051103.80948 -10156607.07746  21352261.1094                   21352259.1294
  -7269685.25047  -5650261.44345  22231904.7194                   22231902.2074
 -22824101.50448 -17772754.65746  21047369.8834                   21047366.9774
    -44588.42647    -20169.88045  23012923.4304                   23012921.4144
 -11198550.61747  -8710291.34345  22202809.9844                   22202807.9264
 -24040663.93447 -18720607.50645  22237638.5234                   22237634.5704
 -14393803.39848 -11199980.99246  21892184.5784                   21892185.0084
   7616008.60546   5945044.62543  24722706.6254                   24722706.2194
 11  8 21  2 53 30.0000000  0  9G12G29G26G05G15G30G02G25G21
 -16109635.09847 -12541074.36245  22609403.8674                   22609402.0274
 -13152418.67248 -10235553.67546  21332981.3834                   21332978.8714
  -7378934.25847  -5735390.49445  22211115.2894                   22211113.5004
 -22794385.71948 -17749599.50646  21053024.5944                   21053021.9574
   -171663.02347   -119188.99345  22988741.8284                   22988739.8554
 -11174646.26647  -8691664.57545  22207358.7344                   22207357.6254
 -24028285.93447 -18710962.31145  22239993.7734                   22239989.6724
 -14382722.43748 -11191346.46846  21894293.3054                   21894293.4734
   7527261.57845   5875891.21943  24705819.5784                   24705818.0744
 11  8 21  2 54  0.0000000  0  9G12G29G26G05G15G30G02G25G21
 -16054392.66447 -12498028.32945  22619916.1334                   22619914.0394
 -13253481.45748 -10314303.86246  21313749.8364                   21313747.2814
  -7487816.37147  -5820233.64645  22190395.5864                   22190394.0744
 -22764333.89148 -17726182.49946  21058743.2344                   21058740.7584
   -298629.34447   -218123.75345  22964580.7504                   22964578.7734
 -11150343.69947  -8672727.52145  22211983.3914                   22211981.4844
 -24015816.09047 -18701245.55045  22242366.7894                   22242362.6214
 -14371186.12948 -11182357.14146  21896488.6804                   21896488.5824
   7438500.82446   5806727.10943  24688928.7814                   24688927.1844
 11  8 21  2 54 30.0000000  0  9G12G29G26G05G15G30G02G25G21
 -15998962.31647 -12454835.87845  22630464.3754                   22630462.5044
 -13354290.68048 -10392856.45546  21294566.3834                   21294563.9184
  -7596328.96147  -5904788.86645  22169746.6954                   22169744.5164
 -22733949.09048 -17702506.04946  21064525.2814                   21064522.4304
   -425484.98447   -316972.25645  22940440.9384                   22940438.8874
 -11125646.71947  -8653483.13545  22216683.3364                   22216681.9064
 -24003254.73447 -18691457.49245  22244756.8834                   22244753.0434
 -14359197.76248 -11173015.55646  21898770.0084                   21898769.9494
   7349725.31646   5737551.61543  24672035.2274                   24672033.2624
 11  8 21  2 55  0.0000000  0  9G12G29G26G05G15G30G02G25G21
 -15943345.50447 -12411498.12045  22641047.5164                   22641045.9494
 -13454842.02748 -10471208.11546  21275432.2114                   21275429.8954
  -7704466.68447  -5989051.97345  22149168.1954                   22149166.3014
 -22703232.32848 -17678570.91646  21070370.6334                   21070367.8914
   -552225.14547   -415730.77245  22916322.9384                   22916321.2194
 -11100556.42247  -8633932.24545  22221457.4304                   22221455.8014
 -23990600.01647 -18681596.67545  22247165.5864                   22247161.2384
 -14346757.96148 -11163322.20746  21901137.1334                   21901136.9964
   7260936.03946   5668365.25943  24655139.2504                   24655137.2034
 11  8 21  2 55 30.0000000  0  9G12G29G26G05G15G30G02G25G21
 -15887545.03547 -12368017.26645  22651666.4614                   22651664.4304
 -13555132.83648 -10549356.77346  21256347.3754                   21256345.3954
  -7812226.08247  -6073020.28545  22128662.6564                   22128660.4384
 -22672186.00048 -17654378.98746  21076278.2974                   21076275.8674
   -678846.47347   -514396.70845  22892228.2344                   22892226.1684
 -11075075.79347  -8614077.22845  22226306.4614                   22226305.1644
 -23977851.52047 -18671662.77945  22249591.2584                   22249587.2304
 -14333868.98848 -11153278.85846  21903589.7814                   21903590.1644
   7172132.74646   5599168.02243  24638240.7584                   24638238.0434
 11  8 21  2 56  0.0000000  0  9G12G29G26G05G15G30G02G25G21
 -15831563.56647 -12324395.36045  22662319.3364                   22662317.2304
 -13655160.99648 -10627300.75046  21237312.5864                   21237310.3794
  -7919602.92647  -6156690.51145  22108229.1254                   22108227.0274
 -22640812.17248 -17629931.85146  21082248.2584                   21082246.1524
   -805345.57847   -612967.38645  22868155.8134                   22868154.2194
 -11049206.93747  -8593919.68645  22231228.9694                   22231227.5944
 -23965008.50847 -18661655.24345  22252035.0944                   22252030.7934
 -14320532.78948 -11142887.00446  21906127.7194                   21906127.9184
   7083315.30546   5529959.86543  24621339.2274                   24621336.1764
 11  8 21  2 56 30.0000000  0 10G12G29G26G18G05G15G30G02G25G21
 -15775405.79747 -12280636.07945  22673005.6094                   22673003.7384
 -13754925.21948 -10705039.07346  21218328.0234                   21218325.5704
  -8026595.15647  -6240061.02845  22087869.4694                   22087867.4774
  10845774.61356   8465635.29453  24566192.6724                   24566192.2814
 -22609114.34048 -17605232.24946  21088280.7424                   21088277.9454
   -931720.98047   -711441.71745  22844106.9774                   22844105.6764
 -11022954.51247  -8573463.25945  22236224.9774                   22236223.4224
 -23952071.86747 -18651574.74645  22254497.0394                   22254492.7704
 -14306753.21548 -11132149.66746  21908749.7664                   21908750.0354
   6994481.66846   5460738.92843  24604434.0784                   24604431.6684
 11  8 21  2 57  0.0000000  0 10G12G29G26G18G05G15G30G02G25G21
 -15719081.28147 -12236746.86945  22683724.3524                   22683722.0234
 -13854429.64148 -10782574.96346  21199392.8834                   21199390.7234
  -8133205.92247  -6323134.31045  22067581.4924                   22067580.0314
  10723642.43046   8370467.56543  24542951.4144                   24542950.8834
 -22577101.82048 -17580287.42646  21094372.0474                   21094369.9614
  -1057976.02347   -809822.20145  22820081.7344                   22820079.8954
 -10996327.87147  -8552715.24845  22241291.9144                   22241289.6294
 -23939047.93747 -18641426.21445  22256975.7344                   22256970.8954
 -14292539.26248 -11121073.85946  21911454.4614                   21911454.5204
   6905624.98046   5391500.09143  24587525.1174                   24587523.2664
 11  8 21  2 57 30.0000000  0 10G12G29G26G18G05G15G30G02G25G21
 -15662594.81247 -12192731.45745  22694473.3754                   22694471.7344
 -13953673.60948 -10859907.89146  21180507.3984                   21180505.3754
  -8239433.30947  -6405908.86245  22047367.4614                   22047365.1054
  10601667.15246   8275422.10043  24519741.0394                   24519739.6374
 -22544778.95748 -17555100.77546  21100523.1484                   21100520.4384
  -1184109.37547   -908107.88745  22796079.0704                   22796077.6134
 -10969331.68447  -8531679.26845  22246428.5784                   22246426.9414
 -23925937.93047 -18631210.62745  22259470.3444                   22259465.8554
 -14277894.98848 -11109662.73946  21914241.1954                   21914241.2504
   6816742.82846   5322241.38043  24570611.9304                   24570609.5434
 11  8 21  2 58  0.0000000  0 10G12G29G26G18G05G15G30G02G25G21
 -15605945.33247 -12148589.01745  22705253.1484                   22705250.7544
 -14052650.88748 -10937033.01346  21161672.1564                   21161670.2464
  -8345269.86747  -6488378.86745  22027227.1484                   22027225.0664
  10479854.14846   8180502.98243  24496559.8054                   24496559.9654
 -22512144.14848 -17529671.06046  21106733.4304                   21106730.8594
  -1310113.97347  -1006293.22245  22772101.4224                   22772099.5594
 -10941965.04347  -8510354.61745  22251636.4454                   22251634.9344
 -23912737.79347 -18620924.80845  22261982.0634                   22261977.3674
 -14262819.08248 -11097915.29346  21917110.1804                   21917110.3634
   6727838.48846   5252965.49343  24553693.8134                   24553691.1254
 11  8 21  2 58 30.0000000  0 10G12G29G26G18G05G15G30G02G25G21
 -15549131.78547 -12104318.74245  22716064.1174                   22716062.1604
 -14151354.25048 -11013944.69746  21142889.8984                   21142887.7274
  -8450707.62547  -6570538.11645  22007163.3834                   22007161.4344
  10358209.28946   8085714.93043  24473411.6484                   24473410.5664
 -22479195.28548 -17503996.62046  21113003.1254                   21113000.5784
  -1435981.92647  -1104372.09845  22748149.6564                   22748147.6764
 -10914226.23047  -8488739.98145  22256915.2194                   22256913.4574
 -23899442.44947 -18610564.80445  22264512.3594                   22264507.1524
 -14247309.25448 -11085829.71146  21920061.4224                   21920061.8984
   6638916.10246   5183675.39143  24536772.5944                   24536769.3674
 11  8 21  2 59  0.0000000  0 10G12G29G26G18G05G15G30G02G25G21
 -15492160.57847 -12059925.61645  22726905.3594                   22726903.5474
 -14249785.01648 -11090643.97646  21124159.1804                   21124156.7974
  -8555746.25847  -6652386.36545  21987175.2734                   21987172.9224
  10236730.24646   7991056.10443  24450294.8524                   24450293.8204
 -22445938.27048 -17478082.07846  21119331.9454                   21119329.0634
  -1561713.87547  -1202345.01045  22724223.6804                   22724221.7074
 -10886121.66847  -8466840.34645  22262263.5474                   22262261.2154
 -23886055.14547 -18600133.12045  22267060.1254                   22267055.4344
 -14231371.54748 -11073410.72546  21923094.3594                   21923094.5864
   6549971.86346   5114368.29843  24519846.0704                   24519844.5514
 11  8 21  2 59 30.0000000  0 10G12G29G26G18G05G15G30G02G25G21
 -15435030.89147 -12015408.99945  22737777.4694                   22737774.5164
 -14347936.93048 -11167125.95846  21105481.5944                   21105479.1254
  -8660378.81647  -6733918.17945  21967263.6564                   21967261.5634
  10115422.13346   7896530.50343  24427210.8674                   24427209.2854
 -22412371.73848 -17451926.34446  21125719.5864                   21125716.3914
  -1687303.25047  -1300206.79045  22700324.6644                   22700323.1844
 -10857650.63347  -8444655.14345  22267681.7504                   22267679.1134
 -23872571.47747 -18589626.34445  22269625.6644                   22269621.0004
 -14215004.64148 -11060657.28946  21926208.9384                   21926209.1804
   6461008.76646   5045046.51343  24502917.3674                   24502914.2974
 11  8 21  3  0  0.0000000  0 10G12G29G26G18G05G15G30G02G25G21
 -15377743.40647 -11970769.42145  22748679.1644                   22748676.4064
 -14445805.64848 -11243387.27946  21086857.8054                   21086854.9614
  -8764599.56647  -6815129.11845  21947431.3754                   21947429.5944
   9994288.42646   7802140.71243  24404159.2814                   24404158.1524
 -22378496.39548 -17425529.96046  21132165.4694                   21132163.0204
  -1812744.26647  -1397952.99245  22676454.3914                   22676452.0474
 -10828813.92647  -8422184.99145  22273168.6644                   22273166.9454
 -23858989.26247 -18579042.82245  22272210.0004                   22272205.9104
 -14198208.99248 -11047569.77746  21929405.3204                   21929405.2814
   6372028.48046   4975711.32543  24485984.5394                   24485981.7074
 11  8 21  3  0 30.0000000  0 10G12G29G26G18G05G15G30G02G25G21
 -13744884.87147 -10698412.13645  23059401.2194                   23059399.2774
 -12967966.78148 -10091824.49346  21368081.0784                   21368078.9144
  -7292982.89147  -5668414.80445  22227470.7664                   22227468.7734
  11448752.98446   8935489.89543  24680934.6174                   24680932.8524
 -20768896.67648 -16171296.41846  21438462.1804                   21438459.9344
   -362610.99647   -267978.93245  22952404.6954                   22952403.3134
  -9224196.80547  -7171833.98745  22578517.1174                   22578515.1054
 -22269889.66047 -17340783.37245  22574606.1254                   22574601.5044
 -12605568.84448  -9806551.48746  22232474.4924                   22232474.4414
   7858452.35946   6133963.81043  24768841.2274                   24768838.9884
 11  8 21  3  1  0.0000000  0 10G12G29G26G18G05G15G30G02G25G21
 -13687293.24247 -10653535.57245  23070360.3984                   23070358.5474
 -13065263.55948 -10167640.14546  21349566.0084                   21349563.6604
  -7396371.26647  -5748977.12345  22207796.7344                   22207794.2034
  11327970.26646   8841373.66843  24657950.4774                   24657949.1054
 -20734411.91848 -16144425.17346  21445024.5554                   21445021.9574
   -487747.83647   -365488.12045  22928592.6024                   22928590.6684
  -9194639.36747  -7148802.22845  22584141.6024                   22584139.6294
 -22256110.23047 -17330046.14345  22577227.9534                   22577223.0824
 -12587924.73047  -9792802.83346  22235831.9694                   22235832.2734
   7769434.93846   6064599.63643  24751902.6804                   24751900.6024
 11  8 21  3  1 30.0000000  0 10G12G29G26G18G05G15G30G02G25G21
 -13629552.17247 -10608542.55645  23081348.2114                   23081346.4384
 -13162268.67248 -10243228.52246  21331106.7034                   21331104.1094
  -7499336.36747  -5829209.63545  22188203.1024                   22188201.2114
  11207366.53145   8747396.80142  24634999.4614                   24634998.6844
 -20699624.59048 -16117318.15846  21451644.4774                   21451641.5514
   -612726.07447   -462873.69745  22904809.7974                   22904808.1174
  -9164724.19147  -7125491.70545  22589834.0314                   22589832.1414
 -22242229.84047 -17319230.23345  22579869.2034                   22579864.7814
 -12569858.30948  -9778725.10246  22239269.9064                   22239270.0634
   7680400.01246   5995221.92443  24734959.7114                   24734957.4454
 11  8 21  3  2  0.0000000  0 10G12G29G26G18G05G15G30G02G25G21
 -13571667.80147 -10563437.87445  23092363.2344                   23092361.3204
 -13258982.87948 -10318590.21846  21312702.5314                   21312700.1294
  -7601877.59447  -5909111.86645  22168689.7114                   22168687.9384
  11086940.16846   8653558.19542  24612082.8914                   24612082.5824
 -20664539.95348 -16089979.46646  21458320.8524                   21458318.0784
   -737545.39147   -560135.44245  22881057.4844                   22881055.4884
  -9134457.18047  -7101907.04345  22595593.7584                   22595591.9884
 -22228251.06647 -17308337.68945  22582529.3054                   22582525.2974
 -12551375.11348  -9764322.62746  22242786.9774                   22242787.3324
   7591344.21946   5925827.85443  24718012.4064                   24718010.6214
 11  8 21  3  2 30.0000000  0 10G12G29G26G18G05G15G30G02G25G21
 -13513642.47347 -10518223.36345  23103405.5084                   23103403.5044
 -13355402.85248 -10393722.64046  21294354.5474                   21294351.8674
  -7703990.90647  -5988680.64445  22149258.5554                   22149256.5394
  10966693.52046   8559859.63743  24589201.5704                   24589199.9614
 -20629159.60248 -16062410.36046  21465053.4614                   21465050.7814
   -862202.21947   -657270.57745  22857336.1724                   22857334.0204
  -9103840.66847  -7078050.02045  22601419.7114                   22601417.8634
 -22214172.66447 -17297367.50545  22585208.3204                   22585203.9024
 -12532476.94148  -9749596.78046  22246383.5004                   22246383.1644
   7502267.73046   5856417.69543  24701061.6174                   24701059.6454
 11  8 21  3  3  0.0000000  0 10G12G29G26G18G05G15G30G02G25G21
 -13455482.58247 -10472903.98345  23114472.7034                   23114470.4804
 -13451530.00848 -10468626.89146  21276062.1174                   21276059.4774
  -7805676.29347  -6067915.99345  22129908.3674                   22129906.4654
  10846624.32846   8466299.27943  24566353.0944                   24566351.7424
 -20593489.80948 -16034615.71946  21471841.3674                   21471838.4574
   -986696.77747   -754279.29645  22833645.6954                   22833642.9774
  -9072881.22347  -7053925.79645  22607311.6954                   22607310.0274
 -22199997.91847 -17286322.23845  22587904.9534                   22587901.4804
 -12513169.92648  -9734552.35246  22250057.0394                   22250057.6054
   7413166.78546   5786988.44943  24684106.2344                   24684104.1054
 11  8 21  3  3 30.0000000  0 10G12G29G26G18G05G15G30G02G25G21
 -13397189.31247 -10427480.68445  23125565.5554                   23125563.5744
 -13547359.82448 -10543299.43846  21257826.3204                   21257823.5634
  -7906928.20347  -6146813.54945  22110640.6254                   22110639.0044
  10726735.77746   8372879.69243  24543539.0004                   24543537.7544
 -20557530.68448 -16006595.61246  21478683.8364                   21478680.8204
  -1111024.00447   -851157.61345  22809987.2584                   22809984.4064
  -9041579.78547  -7029535.06445  22613267.9844                   22613266.4224
 -22185724.33247 -17275199.95745  22590621.9694                   22590617.2974
 -12493454.62548  -9719189.78646  22253809.1334                   22253808.9454
   7324042.91846   5717541.32943  24667146.3594                   24667144.7584
 11  8 21  3  4  0.0000000  0 10G12G29G26G18G05G15G30G02G25G21
 -13338762.08647 -10381952.99145  23136683.8594                   23136681.7624
 -13642886.53148 -10617735.81246  21239647.8284                   21239645.7734
  -8007740.06247  -6225368.21845  22091456.9774                   22091454.6604
  10607032.41846   8279604.55543  24520760.0944                   24520758.4844
 -20521281.52748 -15978349.50646  21485582.0554                   21485579.1454
  -1235177.24647   -947900.34545  22786361.3134                   22786358.5314
  -9009935.98047  -7004877.55945  22619289.5004                   22619287.9184
 -22171347.83647 -17263997.46945  22593357.4454                   22593353.0474
 -12473330.21548  -9703508.40646  22257638.8984                   22257638.5274
   7234898.96546   5648078.59243  24650182.7894                   24650180.2734
 11  8 21  3  4 30.0000000  0 10G12G29G26G18G05G15G30G02G25G21
 -13280209.65647 -10336327.74145  23147826.3444                   23147823.7704
 -13738113.18448 -10691938.35546  21221526.7344                   21221524.1684
  -8108114.12147  -6303581.73445  22072356.5234                   22072354.1054
  10487510.24646   8186470.39043  24498015.7114                   24498014.1254
 -20484750.22348 -15949883.55446  21492533.8674                   21492530.4884
  -1359159.05547  -1044509.49845  22762767.8594                   22762765.4574
  -8977958.57047  -6979960.09945  22625374.3524                   22625372.7624
 -22156873.98047 -17252719.13545  22596111.8674                   22596107.3204
 -12452805.02747  -9687514.76746  22261544.7114                   22261544.2234
   7145728.83246   5578595.46443  24633214.9064                   24633212.6644
 11  8 21  3  5  0.0000000  0 10G12G29G26G18G05G15G30G02G25G21
 -13221533.71147 -10290606.26145  23158992.1414                   23158989.4064
 -13833035.90248 -10765904.08046  21203463.6884                   21203461.0784
  -8208045.23047  -6381450.11045  22053340.2584                   22053337.8674
  10368171.14146   8093478.96043  24475306.8444                   24475304.4574
 -20447937.89848 -15921198.59946  21499538.7974                   21499535.8484
  -1482964.71947  -1140981.39445  22739208.6094                   22739206.1374
  -8945649.05947  -6954783.84145  22631523.1884                   22631521.1454
 -22142300.79747 -17241363.40545  22598884.7194                   22598880.4804
 -12431880.14547  -9671209.65846  22265525.9064                   22265526.8634
   7056533.57446   5509092.75544  24616240.3834                   24616239.6054
 11  8 21  3  5 30.0000000  0 10G12G29G26G18G05G15G30G02G25G21
 -13162734.17647 -10244788.45845  23170181.1174                   23170179.1884
 -13927649.35948 -10839628.82346  21185459.5004                   21185456.9844
  -8307527.27747  -6458968.56545  22034409.0004                   22034407.1564
  10249019.59046   8000633.75043  24452633.0004                   24452631.1954
 -20410844.07848 -15892294.30746  21506597.2584                   21506594.5434
  -1606588.17247  -1237311.31445  22715683.7974                   22715681.7074
  -8913007.46947  -6929348.83645  22637734.7424                   22637732.4654
 -22127624.70347 -17229927.48545  22601677.8594                   22601673.2814
 -12410555.17247  -9654592.81346  22269584.4384                   22269584.6484
   6967315.69946   5439572.44943  24599262.8524                   24599261.7934
 11  8 21  3  6  0.0000000  0 10G12G29G26G18G05G15G30G02G25G21
 -13103815.25847 -10198877.64245  23181392.8984                   23181390.4414
 -14021952.33248 -10913111.62146  21167514.0084                   21167511.7384
  -8406557.85547  -6536135.20645  22015564.7814                   22015562.0664
  10130055.81646   7907934.81943  24429993.9304                   24429992.9654
 -20373472.35248 -15863173.47646  21513709.2814                   21513706.3134
  -1730027.21947  -1333497.53245  22692194.1884                   22692191.2934
  -8880038.07047  -6903658.39945  22644008.4144                   22644006.7624
 -22112846.20347 -17218411.76545  22604490.2194                   22604485.9064
 -12388833.98848  -9637667.20646  22273717.7584                   22273717.8364
   6878073.48446   5370033.17643  24582280.6484                   24582278.0314
 11  8 21  3  6 30.0000000  0 10G12G29G26G18G05G15G30G02G25G21
 -13044778.27347 -10152874.81145  23192627.4774                   23192625.2234
 -14115940.79747 -10986349.35746  21149628.8674                   21149626.1134
  -8505131.98047  -6612946.19145  21996805.9454                   21996804.6054
  10011282.68446   7815384.46043  24407392.6094                   24407390.6884
 -20335823.32848 -15833836.56046  21520873.2814                   21520870.4614
  -1853277.65247  -1429536.79945  22668740.0004                   22668737.9734
  -8846742.32047  -6877713.65945  22650343.7114                   22650342.6994
 -22097963.76647 -17206815.06245  22607321.8204                   22607317.4104
 -12366717.62548  -9620433.66946  22277926.3204                   22277926.5904
   6788808.48846   5300476.18443  24565294.5784                   24565292.8164
 11  8 21  3  7  0.0000000  0 10G12G29G26G18G05G15G30G02G25G21
 -12985629.39847 -10106784.80345  23203883.4224                   23203880.4184
 -14209615.54747 -11059342.64746  21131802.8674                   21131800.5554
  -8603249.48847  -6689401.35245  21978135.0084                   21978133.0474
   9892698.45746   7722981.27343  24384825.3444                   24384825.2814
 -20297902.35248 -15804287.73546  21528089.6334                   21528086.6334
  -1976338.84447  -1525428.56045  22645322.5394                   22645320.3954
  -8813126.18047  -6851519.27245  22656741.4844                   22656739.7384
 -22082979.52347 -17195139.01545  22610173.3364                   22610169.0164
 -12344211.66847  -9602896.56046  22282208.5554                   22282209.2424
   6699517.06646   5230898.53443  24548303.0864                   24548300.3834
 11  8 21  3  7 30.0000000  0 10G12G29G26G18G05G15G30G02G25G21
 -12926369.06647 -10060607.95445  23215160.0704                   23215157.9104
 -14302971.14148 -11132087.23046  21114037.8284                   21114035.2934
  -8700904.20747  -6765495.90845  21959552.0004                   21959549.6564
   9774306.69146   7630728.03243  24362297.2114                   24362295.9884
 -20259709.63748 -15774527.17246  21535357.0084                   21535354.8554
  -2099205.36347  -1621168.66945  22621941.6094                   22621939.6644
  -8779190.29747  -6825075.74145  22663199.5234                   22663197.1804
 -22067890.65647 -17183381.46645  22613044.5864                   22613040.7034
 -12321316.37148  -9585056.07046  22286565.5944                   22286566.2934
   6610201.50846   5161302.15944  24531306.9614                   24531304.0634
 11  8 21  3  8  0.0000000  0 10G12G29G26G18G05G15G30G02G25G21
 -12866999.02747 -10014345.62545  23226457.7194                   23226455.0084
 -14396004.34448 -11204580.60546  21096334.1954                   21096331.7774
  -8798091.76247  -6841226.45345  21941057.8284                   21941055.4064
   9656109.95746   7538626.84143  24339804.2274                   24339803.6094
 -20221246.11348 -15744555.57946  21542676.2814                   21542673.9924
  -2221872.18047  -1716753.13845  22598598.8284                   22598596.6374
  -8744936.28147  -6798384.28945  22669717.5704                   22669715.4654
 -22052695.39848 -17171541.01645  22615936.5554                   22615932.2974
 -12298032.95748  -9566913.15946  22290996.5394                   22290996.6564
   6520862.39846   5091687.33043  24514305.7664                   24514303.0124
 11  8 21  3  8 30.0000000  0 10G12G29G26G18G05G15G30G02G25G21
 -12807528.87547  -9968005.23945  23237774.1644                   23237772.8404
 -14488719.10947 -11276825.83446  21078691.2584                   21078688.7814
  -8894815.23447  -6916595.34445  21922651.5554                   21922649.8754
   9538102.65246   7446673.17243  24317349.0004                   24317347.1604
 -20182520.80148 -15714380.00046  21550045.9224                   21550043.1844
  -2344343.12147  -1812185.00845  22575293.3364                   22575291.0594
  -8710373.94547  -6771452.61145  22676294.1484                   22676292.7304
 -22037399.80947 -17159622.38345  22618847.3914                   22618842.5234
 -12274370.89848  -9548475.19746  22295499.3364                   22295499.8164
   6431492.97346   5022048.92443  24497299.4844                   24497297.1994
 11  8 21  3  9  0.0000000  0 10G12G29G26G18G05G15G30G02G25G21
 -12747961.42247  -9921589.08945  23249109.5634                   23249107.4104
 -14581113.46948 -11348821.40946  21061109.0864                   21061106.5704
  -8991071.69947  -6991600.36545  21904334.8834                   21904332.5594
   9420286.14846   7354868.19543  24294928.8204                   24294928.3594
 -20143536.64148 -15684002.71446  21557464.4224                   21557461.3954
  -2466615.33647  -1907461.98145  22552025.8204                   22552023.6644
  -8675506.48047  -6744283.16845  22682929.5474                   22682927.3874
 -22022003.79747 -17147625.47545  22621776.4384                   22621772.2194
 -12250332.95348  -9529744.33146  22300073.5944                   22300073.8754
   6342092.63746   4952386.44843  24480286.8204                   24480284.3404
 11  8 21  3  9 30.0000000  0 10G12G29G26G18G05G15G30G02G25G21
 -12688295.80547  -9875096.43345  23260463.6094                   23260461.4614
 -14673180.47348 -11420561.89346  21043589.1174                   21043586.8014
  -9086853.41847  -7066235.44045  21886108.1174                   21886106.0004
   9302665.75446   7263216.00243  24272546.6484                   24272545.0274
 -20104291.30148 -15653421.90646  21564932.5474                   21564929.7664
  -2588681.09447  -2002578.12545  22528797.3754                   22528794.8914
  -8640332.75047  -6716875.08145  22689622.6884                   22689620.9614
 -22006502.44947 -17135546.54145  22624726.5554                   22624721.7464
 -12225917.56648  -9510719.36046  22304719.5314                   22304719.7114
   6252665.44946   4882703.03243  24463269.5394                   24463267.2584
 11  8 21  3 10  0.0000000  0 10G12G29G26G18G05G15G30G02G25G21
 -12628534.56647  -9828529.26145  23271836.0554                   23271833.3164
 -14764917.30947 -11492045.12546  21026132.2504                   21026129.5554
  -9182156.84847  -7140497.80345  21867972.6804                   21867970.5234
   9185242.85246   7171717.73543  24250201.8054                   24250199.4144
 -20064786.85948 -15622639.20946  21572450.2344                   21572447.3014
  -2710537.18047  -2097530.87345  22505608.8914                   22505607.0474
  -8604855.41447  -6689230.39945  22696374.1024                   22696372.3834
 -21990894.82847 -17123384.75245  22627696.7034                   22627691.5744
 -12201127.16047  -9491402.17346  22309437.3364                   22309437.3914
   6163211.05947   4812998.38144  24446246.9924                   24446244.3404
 11  8 21  3 10 30.0000000  0 10G12G29G26G18G05G15G30G02G25G21
 -12568680.67647  -9781889.89145  23283225.9454                   23283224.0864
 -14856321.39547 -11563269.06146  21008738.7034                   21008736.0634
  -9276978.39847  -7214384.70645  21849928.9694                   21849926.2664
   9068018.87146   7080374.41443  24227894.6334                   24227892.1914
 -20025025.68748 -15591656.47346  21580016.2894                   21580013.0204
  -2832179.92647  -2192317.39545  22482461.1024                   22482458.8094
  -8569077.41847  -6661351.46545  22703182.1884                   22703180.6724
 -21975180.42247 -17111139.79045  22630686.9224                   22630682.4654
 -12175964.30147  -9471794.76646  22314225.3134                   22314225.5744
   6073729.28947   4743272.38944  24429218.7344                   24429216.0124
 11  8 21  3 11  0.0000000  0 10G12G29G26G18G05G15G30G02G25G21
 -12508737.28146  -9735180.78845  23294632.8444                   23294630.5864
 -14947390.84047 -11634232.23546  20991408.6804                   20991406.0084
  -9371315.22347  -7287893.88445  21831976.7584                   21831974.6454
   8950994.54346   6989186.69143  24205625.1804                   24205624.3014
 -19985010.93048 -15560476.13246  21587630.8364                   21587627.9024
  -2953606.76647  -2286935.66445  22459354.3054                   22459352.1684
  -8533002.41447  -6633241.09145  22710046.9064                   22710045.3714
 -21959359.07847 -17098811.49045  22633697.6024                   22633693.3444
 -12150432.15247  -9451899.59246  22319084.2584                   22319084.0354
   5984219.43846   4673524.55544  24412185.7814                   24412183.4384
 11  8 21  3 11 30.0000000  0 10G12G29G26G18G05G15G30G02G25G21
 -12448709.22347  -9688405.72745  23306055.8834                   23306053.7034
 -15038125.25047 -11704934.34946  20974142.4924                   20974140.1054
  -9465166.09047  -7361024.40545  21814117.0474                   21814114.9964
   8834169.27747   6898154.05143  24183394.5784                   24183392.4224
 -19944746.65648 -15529101.36546  21595292.8204                   21595289.8594
  -3074816.51647  -2381384.78045  22436288.3674                   22436286.3524
  -8496635.23847  -6604903.05445  22716967.5634                   22716965.8404
 -21943432.40647 -17086401.12445  22636728.3054                   22636724.0474
 -12124535.32848  -9431720.26946  22324012.1334                   22324012.3594
   5894679.36346   4603753.10343  24395146.5864                   24395144.3164
 11  8 21  3 12  0.0000000  0 10G12G29G26G18G05G15G30G02G25G21
 -12388596.21547  -9641564.44045  23317495.0314                   23317492.9414
 -15128518.93448 -11775370.95746  20956941.4454                   20956938.4304
  -9558524.82847  -7433771.43545  21796351.9694                   21796349.5004
   8717547.19947   6807279.80543  24161202.3674                   24161199.6564
 -19904231.96148 -15497531.46546  21603002.2584                   21602999.2974
  -3195802.69547  -2475659.68545  22413266.0864                   22413263.8714
  -8459975.87547  -6576337.33845  22723943.7274                   22723942.0394
 -21927396.62147 -17073905.73045  22639780.2814                   22639775.3914
 -12098273.52047  -9411256.54346  22329009.5554                   22329009.9264
   5805111.46946   4533960.02443  24378102.1254                   24378100.0634
 11  8 21  3 12 30.0000000  0 10G12G29G26G18G05G15G30G02G25G21
 -12328401.90647  -9594659.79845  23328950.1174                   23328948.1524
 -15218570.12548 -11845540.69346  20939804.8984                   20939802.3984
  -9651388.36347  -7506132.58845  21778680.8364                   21778678.3014
   8601128.87147   6716564.34843  24139048.7114                   24139045.3914
 -19863469.84048 -15465768.76046  21610759.1804                   21610756.2584
  -3316562.91447  -2569758.50345  22390286.3674                   22390283.5944
  -8423028.00847  -6547546.79645  22730974.8524                   22730972.4264
 -21911251.67247 -17061325.26345  22642852.1094                   22642848.0084
 -12071649.95347  -9390510.92946  22334075.9064                   22334075.8014
   5715515.24646   4464144.88443  24361052.4304                   24361049.7584
 11  8 21  3 13  0.0000000  0 10G12G29G26G18G05G15G30G02G25G21
 -12268130.78547  -9547695.31845  23340418.5314                   23340417.1374
 -15308277.66048 -11915442.65646  20922734.3284                   20922731.6294
  -9743755.00047  -7578106.57045  21761103.8984                   21761101.7624
   8484914.16047   6626007.54743  24116933.1334                   24116930.6214
 -19822464.08248 -15433816.21346  21618562.0164                   21618559.1054
  -3437095.07847  -2663679.64545  22367349.4454                   22367346.8954
  -8385796.08647  -6518534.93745  22738059.6644                   22738057.3954
 -21894998.46947 -17048660.47345  22645945.2194                   22645940.5824
 -12044668.75047  -9369486.63146  22339209.9304                   22339210.2854
   5625889.01246   4394306.27143  24343997.5944                   24343994.0904
 11  8 21  3 13 30.0000000  0 10G12G29G26G18G05G15G30G02G25G21
 -12207785.35247  -9500672.94145  23351901.8134                   23351899.4304
 -15397638.89147 -11985074.76546  20905729.1334                   20905726.5664
  -9835621.13747  -7649690.51945  21743622.1414                   21743619.7734
   8368904.50846   6535610.56343  24094857.0554                   24094854.8054
 -19781216.52048 -15401675.24846  21626411.4304                   21626408.5124
  -3557395.48447  -2757420.17845  22344457.1024                   22344454.5084
  -8348282.76647  -6489303.79245  22745197.9924                   22745195.7854
 -21878635.98447 -17035910.47245  22649059.1174                   22649054.2424
 -12017332.37947  -9348185.57846  22344411.8984                   22344411.6684
   5536232.87147   4324444.38243  24326936.7584                   24326933.4064
 11  8 21  3 14  0.0000000  0 10G12G29G26G18G05G15G30G02G25G21
 -12147366.43046  -9453593.29145  23363399.2974                   23363397.4264
 -15486649.35548 -12054433.55746  20888791.1334                   20888788.5474
  -9926981.59447  -7720880.45445  21726236.7194                   21726234.6374
   8253102.93046   6445375.66243  24072820.8284                   24072819.5274
 -19739727.73448 -15369346.32846  21634306.3444                   21634303.3524
  -3677459.32047  -2850976.36945  22321609.2274                   22321607.5084
  -8310489.07447  -6459854.19545  22752390.3134                   22752388.1134
 -21862161.60247 -17023073.33345  22652193.9774                   22652189.7664
 -11989641.48047  -9326608.28446  22349681.5004                   22349681.8444
   5446548.03946   4254560.20343  24309869.5864                   24309867.1334
 11  8 21  3 14 30.0000000  0 10G12G29G26G18G05G15G30G02G25G21
 -12086885.01246  -9406464.95045  23374908.6644                   23374906.6454
 -15575314.69547 -12123523.42646  20871918.7274                   20871916.2194
 -10017841.35947  -7791680.23945  21708946.6414                   21708944.7384
   8137502.65246   6355297.68143  24050822.6884                   24050820.8524
 -19698008.09848 -15336837.51646  21642245.2584                   21642242.8954
  -3797291.38347  -2944351.97445  22298806.1804                   22298803.7194
  -8272426.29747  -6430194.89645  22759633.1724                   22759631.0124
 -21845583.29747 -17010155.18845  22655348.6644                   22655344.0594
 -11961606.98447  -9304763.24146  22355016.0864                   22355016.9804
   5356826.72346   4184647.50843  24292796.7734                   24292793.2624
 11  8 21  3 15  0.0000000  0 10G12G29G26G18G05G15G30G02G25G21
 -12026336.80946  -9359284.56344  23386430.7734                   23386428.6564
 -15663624.83248 -12192336.50146  20855113.7664                   20855111.3754
 -10108189.96547  -7862081.71345  21691753.9844                   21691751.5354
   8022111.96946   6265382.99243  24028864.5634                   24028862.4024
 -19656052.57448 -15304144.89046  21650229.0784                   21650226.8634
  -3916880.80947  -3037538.48445  22276049.0704                   22276046.8054
  -8234090.34847  -6400322.76445  22766928.4384                   22766927.1764
 -21828893.16847 -16997149.90445  22658525.0084                   22658520.1484
 -11933224.42247  -9282646.97246  22360417.4844                   22360417.8634
   5267075.93846   4114711.87943  24275717.6644                   24275714.2464
 11  8 21  3 15 30.0000000  0 10G12G29G26G18G05G15G30G02G25G21
 -11965727.23846  -9312056.33145  23397963.9454                   23397962.0944
 -15751580.48848 -12260873.36446  20838376.2664                   20838374.0044
 -10198027.17247  -7932084.69545  21674658.5004                   21674656.1684
   7906929.05146   6175630.17443  24006945.8284                   24006943.8914
 -19613866.52048 -15271272.63646  21658257.1334                   21658254.2624
  -4036227.68747  -3130536.00345  22253337.5554                   22253335.9304
  -8195487.09447  -6370242.32045  22774274.6954                   22774272.7114
 -21812093.40247 -16984059.20645  22661721.9144                   22661717.0354
 -11904499.50847  -9260263.95146  22365883.4144                   22365884.0634
   5177292.14546   4044750.54643  24258631.8674                   24258629.2974
